<?xml version="1.0" encoding="UTF-8" standalone="no" ?>
<gpx xmlns="http://www.topografix.com/GPX/1/1" xmlns:xsi="http://www.w3.org/2001/XMLSchema-instance" xsi:schemaLocation="http://www.topografix.com/GPX/1/1 http://www.topografix.com/GPX/1/1/gpx.xsd" version="1.1" creator="VisuGPX - https://www.visugpx.com">
  <metadata>
    <name>Grand Colombier (Bugey)</name>
    <desc><![CDATA[Grand Colombier en boucle sur deux jours]]></desc>
  </metadata>
  <trk>
    <name><![CDATA[2013-06-15 09:38]]></name>
    <desc><![CDATA[<h1>OruxMaps</h1><br /><hr align="center" width="480" style="height: 2px; width: 517px"/><h2>Nom: 2013-06-15 09:38</h2><br /><p>Temps de départ: 06/15/2013 09:38</p><p>Temps d'arrivée: 06/16/2013 13:59</p><p>Distance: 35,4 km (28:20)</p><p>Temps déplacement: 23:16</p><p>Vitesse moyenne: 1,2 km/h</p><p>Vitesse moyenne: 1,5 km/h</p><p>Vitess Max.: 6,8 km/h</p><p>Altitude minimale: 241 m</p><p>Altitude maximale: 1528 m</p><p>Vitesse d'élévation: 303,6 m/h</p><p>Vitesse de descente: -457,1 m/h</p><p>Gain Altitude: 2406 m</p><p>Perte Altitude: -1633 m</p><p>Temps d'élévation: 07:55</p><p>Temps de descente: 03:34</p><hr align="center" width="480" style="height: 2px; width: 517px"/>]]></desc>
    <trkseg>
      <trkpt lat="45.84854" lon="5.78016">
        <ele>250</ele>
        <time>2013-06-15T07:38:58Z</time>
      </trkpt>
      <trkpt lat="45.84843" lon="5.77995">
        <ele>248.55</ele>
        <time>2013-06-15T07:40:01Z</time>
      </trkpt>
      <trkpt lat="45.8483" lon="5.78012">
        <ele>248.16</ele>
        <time>2013-06-15T07:40:16Z</time>
      </trkpt>
      <trkpt lat="45.84829" lon="5.7804">
        <ele>249.43</ele>
        <time>2013-06-15T07:40:31Z</time>
      </trkpt>
      <trkpt lat="45.8482" lon="5.78063">
        <ele>253.1</ele>
        <time>2013-06-15T07:40:46Z</time>
      </trkpt>
      <trkpt lat="45.84812" lon="5.78087">
        <ele>241.38</ele>
        <time>2013-06-15T07:41:11Z</time>
      </trkpt>
      <trkpt lat="45.84821" lon="5.78111">
        <ele>250.06</ele>
        <time>2013-06-15T07:41:28Z</time>
      </trkpt>
      <trkpt lat="45.84837" lon="5.78124">
        <ele>263.94</ele>
        <time>2013-06-15T07:41:47Z</time>
      </trkpt>
      <trkpt lat="45.84855" lon="5.78129">
        <ele>263.12</ele>
        <time>2013-06-15T07:42:00Z</time>
      </trkpt>
      <trkpt lat="45.84874" lon="5.78129">
        <ele>264.7</ele>
        <time>2013-06-15T07:42:15Z</time>
      </trkpt>
      <trkpt lat="45.84893" lon="5.78129">
        <ele>263.33</ele>
        <time>2013-06-15T07:42:30Z</time>
      </trkpt>
      <trkpt lat="45.84911" lon="5.78126">
        <ele>258.59</ele>
        <time>2013-06-15T07:42:43Z</time>
      </trkpt>
      <trkpt lat="45.84929" lon="5.78129">
        <ele>258.51</ele>
        <time>2013-06-15T07:43:00Z</time>
      </trkpt>
      <trkpt lat="45.84947" lon="5.78125">
        <ele>265.06</ele>
        <time>2013-06-15T07:43:15Z</time>
      </trkpt>
      <trkpt lat="45.84965" lon="5.78115">
        <ele>261.08</ele>
        <time>2013-06-15T07:43:29Z</time>
      </trkpt>
      <trkpt lat="45.84981" lon="5.78104">
        <ele>258.21</ele>
        <time>2013-06-15T07:43:45Z</time>
      </trkpt>
      <trkpt lat="45.84998" lon="5.78093">
        <ele>262.4</ele>
        <time>2013-06-15T07:44:02Z</time>
      </trkpt>
      <trkpt lat="45.85011" lon="5.78075">
        <ele>257.36</ele>
        <time>2013-06-15T07:44:20Z</time>
      </trkpt>
      <trkpt lat="45.85026" lon="5.78058">
        <ele>262.29</ele>
        <time>2013-06-15T07:44:38Z</time>
      </trkpt>
      <trkpt lat="45.8504" lon="5.78042">
        <ele>262.56</ele>
        <time>2013-06-15T07:44:52Z</time>
      </trkpt>
      <trkpt lat="45.85056" lon="5.78029">
        <ele>265.73</ele>
        <time>2013-06-15T07:45:08Z</time>
      </trkpt>
      <trkpt lat="45.85071" lon="5.78013">
        <ele>271.5</ele>
        <time>2013-06-15T07:45:26Z</time>
      </trkpt>
      <trkpt lat="45.8508" lon="5.7799">
        <ele>268.69</ele>
        <time>2013-06-15T07:45:39Z</time>
      </trkpt>
      <trkpt lat="45.8509" lon="5.77967">
        <ele>279.59</ele>
        <time>2013-06-15T07:45:56Z</time>
      </trkpt>
      <trkpt lat="45.85099" lon="5.77944">
        <ele>280.01</ele>
        <time>2013-06-15T07:46:15Z</time>
      </trkpt>
      <trkpt lat="45.85107" lon="5.7792">
        <ele>281.49</ele>
        <time>2013-06-15T07:46:34Z</time>
      </trkpt>
      <trkpt lat="45.85118" lon="5.779">
        <ele>285.29</ele>
        <time>2013-06-15T07:46:53Z</time>
      </trkpt>
      <trkpt lat="45.85131" lon="5.77879">
        <ele>287.86</ele>
        <time>2013-06-15T07:47:09Z</time>
      </trkpt>
      <trkpt lat="45.8514" lon="5.77856">
        <ele>282.76</ele>
        <time>2013-06-15T07:47:26Z</time>
      </trkpt>
      <trkpt lat="45.85149" lon="5.77833">
        <ele>288.47</ele>
        <time>2013-06-15T07:47:44Z</time>
      </trkpt>
      <trkpt lat="45.85149" lon="5.77807">
        <ele>287.63</ele>
        <time>2013-06-15T07:48:00Z</time>
      </trkpt>
      <trkpt lat="45.85146" lon="5.77781">
        <ele>292.65</ele>
        <time>2013-06-15T07:48:18Z</time>
      </trkpt>
      <trkpt lat="45.85135" lon="5.77759">
        <ele>287.86</ele>
        <time>2013-06-15T07:48:32Z</time>
      </trkpt>
      <trkpt lat="45.85124" lon="5.77737">
        <ele>286.82</ele>
        <time>2013-06-15T07:48:48Z</time>
      </trkpt>
      <trkpt lat="45.85126" lon="5.77711">
        <ele>292.87</ele>
        <time>2013-06-15T07:49:11Z</time>
      </trkpt>
      <trkpt lat="45.85142" lon="5.77698">
        <ele>301.84</ele>
        <time>2013-06-15T07:49:30Z</time>
      </trkpt>
      <trkpt lat="45.8516" lon="5.77696">
        <ele>299.39</ele>
        <time>2013-06-15T07:50:47Z</time>
      </trkpt>
      <trkpt lat="45.85179" lon="5.77696">
        <ele>306.16</ele>
        <time>2013-06-15T07:51:08Z</time>
      </trkpt>
      <trkpt lat="45.85197" lon="5.77696">
        <ele>311.17</ele>
        <time>2013-06-15T07:51:27Z</time>
      </trkpt>
      <trkpt lat="45.85215" lon="5.77688">
        <ele>315.34</ele>
        <time>2013-06-15T07:51:49Z</time>
      </trkpt>
      <trkpt lat="45.85233" lon="5.7768">
        <ele>313.71</ele>
        <time>2013-06-15T07:52:11Z</time>
      </trkpt>
      <trkpt lat="45.85252" lon="5.77677">
        <ele>313.72</ele>
        <time>2013-06-15T07:53:00Z</time>
      </trkpt>
      <trkpt lat="45.85268" lon="5.77663">
        <ele>311.92</ele>
        <time>2013-06-15T07:53:15Z</time>
      </trkpt>
      <trkpt lat="45.85283" lon="5.77647">
        <ele>321.22</ele>
        <time>2013-06-15T07:53:39Z</time>
      </trkpt>
      <trkpt lat="45.85297" lon="5.77629">
        <ele>325.75</ele>
        <time>2013-06-15T07:54:00Z</time>
      </trkpt>
      <trkpt lat="45.85315" lon="5.77622">
        <ele>326.98</ele>
        <time>2013-06-15T07:54:23Z</time>
      </trkpt>
      <trkpt lat="45.85333" lon="5.7762">
        <ele>328.16</ele>
        <time>2013-06-15T07:54:47Z</time>
      </trkpt>
      <trkpt lat="45.85351" lon="5.77617">
        <ele>333.82</ele>
        <time>2013-06-15T07:55:15Z</time>
      </trkpt>
      <trkpt lat="45.8537" lon="5.77613">
        <ele>336.5</ele>
        <time>2013-06-15T07:55:44Z</time>
      </trkpt>
      <trkpt lat="45.85386" lon="5.77601">
        <ele>339.89</ele>
        <time>2013-06-15T07:56:07Z</time>
      </trkpt>
      <trkpt lat="45.85404" lon="5.77596">
        <ele>352.77</ele>
        <time>2013-06-15T07:56:35Z</time>
      </trkpt>
      <trkpt lat="45.85422" lon="5.7759">
        <ele>357.91</ele>
        <time>2013-06-15T07:57:07Z</time>
      </trkpt>
      <trkpt lat="45.85438" lon="5.77576">
        <ele>364.31</ele>
        <time>2013-06-15T07:57:37Z</time>
      </trkpt>
      <trkpt lat="45.85455" lon="5.77567">
        <ele>368.05</ele>
        <time>2013-06-15T07:58:07Z</time>
      </trkpt>
      <trkpt lat="45.85473" lon="5.77563">
        <ele>374.93</ele>
        <time>2013-06-15T07:58:47Z</time>
      </trkpt>
      <trkpt lat="45.85478" lon="5.77588">
        <ele>375.98</ele>
        <time>2013-06-15T07:59:08Z</time>
      </trkpt>
      <trkpt lat="45.8548" lon="5.77615">
        <ele>375.84</ele>
        <time>2013-06-15T07:59:27Z</time>
      </trkpt>
      <trkpt lat="45.85485" lon="5.77641">
        <ele>379.42</ele>
        <time>2013-06-15T07:59:47Z</time>
      </trkpt>
      <trkpt lat="45.85488" lon="5.77668">
        <ele>381.65</ele>
        <time>2013-06-15T08:00:06Z</time>
      </trkpt>
      <trkpt lat="45.85488" lon="5.77694">
        <ele>380.35</ele>
        <time>2013-06-15T08:00:24Z</time>
      </trkpt>
      <trkpt lat="45.85486" lon="5.7772">
        <ele>382.32</ele>
        <time>2013-06-15T08:00:41Z</time>
      </trkpt>
      <trkpt lat="45.8549" lon="5.77747">
        <ele>388.16</ele>
        <time>2013-06-15T08:00:58Z</time>
      </trkpt>
      <trkpt lat="45.85502" lon="5.77768">
        <ele>386.3</ele>
        <time>2013-06-15T08:01:18Z</time>
      </trkpt>
      <trkpt lat="45.85516" lon="5.77785">
        <ele>390.21</ele>
        <time>2013-06-15T08:01:35Z</time>
      </trkpt>
      <trkpt lat="45.85527" lon="5.77805">
        <ele>391.35</ele>
        <time>2013-06-15T08:01:55Z</time>
      </trkpt>
      <trkpt lat="45.85536" lon="5.77829">
        <ele>397.12</ele>
        <time>2013-06-15T08:02:14Z</time>
      </trkpt>
      <trkpt lat="45.85545" lon="5.77806">
        <ele>402.98</ele>
        <time>2013-06-15T08:02:52Z</time>
      </trkpt>
      <trkpt lat="45.8554" lon="5.77781">
        <ele>402.66</ele>
        <time>2013-06-15T08:03:07Z</time>
      </trkpt>
      <trkpt lat="45.85534" lon="5.77756">
        <ele>395.49</ele>
        <time>2013-06-15T08:03:22Z</time>
      </trkpt>
      <trkpt lat="45.85532" lon="5.77728">
        <ele>402.87</ele>
        <time>2013-06-15T08:03:45Z</time>
      </trkpt>
      <trkpt lat="45.85536" lon="5.77702">
        <ele>399.6</ele>
        <time>2013-06-15T08:04:05Z</time>
      </trkpt>
      <trkpt lat="45.85536" lon="5.77676">
        <ele>399.61</ele>
        <time>2013-06-15T08:04:23Z</time>
      </trkpt>
      <trkpt lat="45.8554" lon="5.7765">
        <ele>402.54</ele>
        <time>2013-06-15T08:04:43Z</time>
      </trkpt>
      <trkpt lat="45.8555" lon="5.77628">
        <ele>401.04</ele>
        <time>2013-06-15T08:05:03Z</time>
      </trkpt>
      <trkpt lat="45.85547" lon="5.77602">
        <ele>411.75</ele>
        <time>2013-06-15T08:05:24Z</time>
      </trkpt>
      <trkpt lat="45.85544" lon="5.77576">
        <ele>420.61</ele>
        <time>2013-06-15T08:05:43Z</time>
      </trkpt>
      <trkpt lat="45.85553" lon="5.77599">
        <ele>424.78</ele>
        <time>2013-06-15T08:08:22Z</time>
      </trkpt>
      <trkpt lat="45.85566" lon="5.77619">
        <ele>423.58</ele>
        <time>2013-06-15T08:08:45Z</time>
      </trkpt>
      <trkpt lat="45.85563" lon="5.77646">
        <ele>429.44</ele>
        <time>2013-06-15T08:09:13Z</time>
      </trkpt>
      <trkpt lat="45.85562" lon="5.77672">
        <ele>430.48</ele>
        <time>2013-06-15T08:09:34Z</time>
      </trkpt>
      <trkpt lat="45.85568" lon="5.77697">
        <ele>431.99</ele>
        <time>2013-06-15T08:09:52Z</time>
      </trkpt>
      <trkpt lat="45.8558" lon="5.77717">
        <ele>431.39</ele>
        <time>2013-06-15T08:10:12Z</time>
      </trkpt>
      <trkpt lat="45.85589" lon="5.7774">
        <ele>437.26</ele>
        <time>2013-06-15T08:10:32Z</time>
      </trkpt>
      <trkpt lat="45.85595" lon="5.77766">
        <ele>434.77</ele>
        <time>2013-06-15T08:10:51Z</time>
      </trkpt>
      <trkpt lat="45.85601" lon="5.77791">
        <ele>440.53</ele>
        <time>2013-06-15T08:11:14Z</time>
      </trkpt>
      <trkpt lat="45.85611" lon="5.77812">
        <ele>447.81</ele>
        <time>2013-06-15T08:11:41Z</time>
      </trkpt>
      <trkpt lat="45.85612" lon="5.77786">
        <ele>444.7</ele>
        <time>2013-06-15T08:12:18Z</time>
      </trkpt>
      <trkpt lat="45.85611" lon="5.77759">
        <ele>448.76</ele>
        <time>2013-06-15T08:12:39Z</time>
      </trkpt>
      <trkpt lat="45.85613" lon="5.77733">
        <ele>450.32</ele>
        <time>2013-06-15T08:12:58Z</time>
      </trkpt>
      <trkpt lat="45.85611" lon="5.77707">
        <ele>453.46</ele>
        <time>2013-06-15T08:13:20Z</time>
      </trkpt>
      <trkpt lat="45.8561" lon="5.7768">
        <ele>454.91</ele>
        <time>2013-06-15T08:13:51Z</time>
      </trkpt>
      <trkpt lat="45.85616" lon="5.77655">
        <ele>456.6</ele>
        <time>2013-06-15T08:14:08Z</time>
      </trkpt>
      <trkpt lat="45.85632" lon="5.7764">
        <ele>460.36</ele>
        <time>2013-06-15T08:14:33Z</time>
      </trkpt>
      <trkpt lat="45.85648" lon="5.77627">
        <ele>455.14</ele>
        <time>2013-06-15T08:14:49Z</time>
      </trkpt>
      <trkpt lat="45.85657" lon="5.77603">
        <ele>450.67</ele>
        <time>2013-06-15T08:15:04Z</time>
      </trkpt>
      <trkpt lat="45.85664" lon="5.77578">
        <ele>465.96</ele>
        <time>2013-06-15T08:15:21Z</time>
      </trkpt>
      <trkpt lat="45.85676" lon="5.77559">
        <ele>468.6</ele>
        <time>2013-06-15T08:15:36Z</time>
      </trkpt>
      <trkpt lat="45.85687" lon="5.77538">
        <ele>471.97</ele>
        <time>2013-06-15T08:15:52Z</time>
      </trkpt>
      <trkpt lat="45.85701" lon="5.77519">
        <ele>470.09</ele>
        <time>2013-06-15T08:16:15Z</time>
      </trkpt>
      <trkpt lat="45.85709" lon="5.77496">
        <ele>476.31</ele>
        <time>2013-06-15T08:16:35Z</time>
      </trkpt>
      <trkpt lat="45.85703" lon="5.77471">
        <ele>474.75</ele>
        <time>2013-06-15T08:16:48Z</time>
      </trkpt>
      <trkpt lat="45.85686" lon="5.77458">
        <ele>475.96</ele>
        <time>2013-06-15T08:17:05Z</time>
      </trkpt>
      <trkpt lat="45.85673" lon="5.7744">
        <ele>478.68</ele>
        <time>2013-06-15T08:17:23Z</time>
      </trkpt>
      <trkpt lat="45.85661" lon="5.77419">
        <ele>482.24</ele>
        <time>2013-06-15T08:17:45Z</time>
      </trkpt>
      <trkpt lat="45.85649" lon="5.77399">
        <ele>487.19</ele>
        <time>2013-06-15T08:18:02Z</time>
      </trkpt>
      <trkpt lat="45.85636" lon="5.77379">
        <ele>488.62</ele>
        <time>2013-06-15T08:18:21Z</time>
      </trkpt>
      <trkpt lat="45.85621" lon="5.77365">
        <ele>487.88</ele>
        <time>2013-06-15T08:18:39Z</time>
      </trkpt>
      <trkpt lat="45.85606" lon="5.77349">
        <ele>482.53</ele>
        <time>2013-06-15T08:18:56Z</time>
      </trkpt>
      <trkpt lat="45.85594" lon="5.77329">
        <ele>491.89</ele>
        <time>2013-06-15T08:19:19Z</time>
      </trkpt>
      <trkpt lat="45.85582" lon="5.7731">
        <ele>489.34</ele>
        <time>2013-06-15T08:19:36Z</time>
      </trkpt>
      <trkpt lat="45.85571" lon="5.77289">
        <ele>488.21</ele>
        <time>2013-06-15T08:19:56Z</time>
      </trkpt>
      <trkpt lat="45.85554" lon="5.7728">
        <ele>492.2</ele>
        <time>2013-06-15T08:20:16Z</time>
      </trkpt>
      <trkpt lat="45.85536" lon="5.77286">
        <ele>502.93</ele>
        <time>2013-06-15T08:20:31Z</time>
      </trkpt>
      <trkpt lat="45.85519" lon="5.77295">
        <ele>508.07</ele>
        <time>2013-06-15T08:20:50Z</time>
      </trkpt>
      <trkpt lat="45.85533" lon="5.77279">
        <ele>512.59</ele>
        <time>2013-06-15T08:21:59Z</time>
      </trkpt>
      <trkpt lat="45.85547" lon="5.77262">
        <ele>508.81</ele>
        <time>2013-06-15T08:22:18Z</time>
      </trkpt>
      <trkpt lat="45.85564" lon="5.7725">
        <ele>510.55</ele>
        <time>2013-06-15T08:22:40Z</time>
      </trkpt>
      <trkpt lat="45.85581" lon="5.77259">
        <ele>515.81</ele>
        <time>2013-06-15T08:23:03Z</time>
      </trkpt>
      <trkpt lat="45.85593" lon="5.77281">
        <ele>518.31</ele>
        <time>2013-06-15T08:23:24Z</time>
      </trkpt>
      <trkpt lat="45.85609" lon="5.77293">
        <ele>521.74</ele>
        <time>2013-06-15T08:23:44Z</time>
      </trkpt>
      <trkpt lat="45.85625" lon="5.77306">
        <ele>523.73</ele>
        <time>2013-06-15T08:24:06Z</time>
      </trkpt>
      <trkpt lat="45.85642" lon="5.77315">
        <ele>527.46</ele>
        <time>2013-06-15T08:24:23Z</time>
      </trkpt>
      <trkpt lat="45.85661" lon="5.7732">
        <ele>528.46</ele>
        <time>2013-06-15T08:24:43Z</time>
      </trkpt>
      <trkpt lat="45.85677" lon="5.77332">
        <ele>533.03</ele>
        <time>2013-06-15T08:25:05Z</time>
      </trkpt>
      <trkpt lat="45.85667" lon="5.77308">
        <ele>538.62</ele>
        <time>2013-06-15T08:25:47Z</time>
      </trkpt>
      <trkpt lat="45.85652" lon="5.77292">
        <ele>538.55</ele>
        <time>2013-06-15T08:26:06Z</time>
      </trkpt>
      <trkpt lat="45.85637" lon="5.77277">
        <ele>537.69</ele>
        <time>2013-06-15T08:26:25Z</time>
      </trkpt>
      <trkpt lat="45.85628" lon="5.77253">
        <ele>538.15</ele>
        <time>2013-06-15T08:26:48Z</time>
      </trkpt>
      <trkpt lat="45.8562" lon="5.7723">
        <ele>539.15</ele>
        <time>2013-06-15T08:27:06Z</time>
      </trkpt>
      <trkpt lat="45.8562" lon="5.77203">
        <ele>540.61</ele>
        <time>2013-06-15T08:27:28Z</time>
      </trkpt>
      <trkpt lat="45.85626" lon="5.77178">
        <ele>551.98</ele>
        <time>2013-06-15T08:27:49Z</time>
      </trkpt>
      <trkpt lat="45.85637" lon="5.77198">
        <ele>564.73</ele>
        <time>2013-06-15T08:28:54Z</time>
      </trkpt>
      <trkpt lat="45.85651" lon="5.77216">
        <ele>561.66</ele>
        <time>2013-06-15T08:29:13Z</time>
      </trkpt>
      <trkpt lat="45.85667" lon="5.77229">
        <ele>562.45</ele>
        <time>2013-06-15T08:29:33Z</time>
      </trkpt>
      <trkpt lat="45.85677" lon="5.77251">
        <ele>565.76</ele>
        <time>2013-06-15T08:29:54Z</time>
      </trkpt>
      <trkpt lat="45.85693" lon="5.77264">
        <ele>570.16</ele>
        <time>2013-06-15T08:30:17Z</time>
      </trkpt>
      <trkpt lat="45.85711" lon="5.77272">
        <ele>576.63</ele>
        <time>2013-06-15T08:30:34Z</time>
      </trkpt>
      <trkpt lat="45.85729" lon="5.77277">
        <ele>578.76</ele>
        <time>2013-06-15T08:30:57Z</time>
      </trkpt>
      <trkpt lat="45.85747" lon="5.77283">
        <ele>580.79</ele>
        <time>2013-06-15T08:31:17Z</time>
      </trkpt>
      <trkpt lat="45.85737" lon="5.77261">
        <ele>574.06</ele>
        <time>2013-06-15T08:31:56Z</time>
      </trkpt>
      <trkpt lat="45.85722" lon="5.77245">
        <ele>577.02</ele>
        <time>2013-06-15T08:32:13Z</time>
      </trkpt>
      <trkpt lat="45.85713" lon="5.77222">
        <ele>577.38</ele>
        <time>2013-06-15T08:32:35Z</time>
      </trkpt>
      <trkpt lat="45.85713" lon="5.77194">
        <ele>591.69</ele>
        <time>2013-06-15T08:32:58Z</time>
      </trkpt>
      <trkpt lat="45.85704" lon="5.7717">
        <ele>589.65</ele>
        <time>2013-06-15T08:33:19Z</time>
      </trkpt>
      <trkpt lat="45.85706" lon="5.77144">
        <ele>588</ele>
        <time>2013-06-15T08:33:37Z</time>
      </trkpt>
      <trkpt lat="45.857" lon="5.77119">
        <ele>590.91</ele>
        <time>2013-06-15T08:34:00Z</time>
      </trkpt>
      <trkpt lat="45.857" lon="5.77093">
        <ele>592.49</ele>
        <time>2013-06-15T08:34:18Z</time>
      </trkpt>
      <trkpt lat="45.85706" lon="5.77067">
        <ele>599.71</ele>
        <time>2013-06-15T08:34:38Z</time>
      </trkpt>
      <trkpt lat="45.85713" lon="5.77092">
        <ele>617.67</ele>
        <time>2013-06-15T08:35:44Z</time>
      </trkpt>
      <trkpt lat="45.85729" lon="5.77105">
        <ele>615.62</ele>
        <time>2013-06-15T08:36:00Z</time>
      </trkpt>
      <trkpt lat="45.85741" lon="5.77124">
        <ele>615.52</ele>
        <time>2013-06-15T08:36:22Z</time>
      </trkpt>
      <trkpt lat="45.85748" lon="5.77148">
        <ele>614.76</ele>
        <time>2013-06-15T08:36:41Z</time>
      </trkpt>
      <trkpt lat="45.85757" lon="5.7717">
        <ele>614.18</ele>
        <time>2013-06-15T08:37:01Z</time>
      </trkpt>
      <trkpt lat="45.85769" lon="5.77191">
        <ele>620</ele>
        <time>2013-06-15T08:37:21Z</time>
      </trkpt>
      <trkpt lat="45.85785" lon="5.77204">
        <ele>620.02</ele>
        <time>2013-06-15T08:37:40Z</time>
      </trkpt>
      <trkpt lat="45.85801" lon="5.77217">
        <ele>622.23</ele>
        <time>2013-06-15T08:38:02Z</time>
      </trkpt>
      <trkpt lat="45.85819" lon="5.77223">
        <ele>624.45</ele>
        <time>2013-06-15T08:38:22Z</time>
      </trkpt>
      <trkpt lat="45.85836" lon="5.77237">
        <ele>633.06</ele>
        <time>2013-06-15T08:38:45Z</time>
      </trkpt>
      <trkpt lat="45.85845" lon="5.77259">
        <ele>634.44</ele>
        <time>2013-06-15T08:39:06Z</time>
      </trkpt>
      <trkpt lat="45.8585" lon="5.77286">
        <ele>651.95</ele>
        <time>2013-06-15T08:39:44Z</time>
      </trkpt>
      <trkpt lat="45.85862" lon="5.77266">
        <ele>649.6</ele>
        <time>2013-06-15T08:40:29Z</time>
      </trkpt>
      <trkpt lat="45.85863" lon="5.77238">
        <ele>648.31</ele>
        <time>2013-06-15T08:40:50Z</time>
      </trkpt>
      <trkpt lat="45.85859" lon="5.77213">
        <ele>649.44</ele>
        <time>2013-06-15T08:41:10Z</time>
      </trkpt>
      <trkpt lat="45.85847" lon="5.77192">
        <ele>651.36</ele>
        <time>2013-06-15T08:41:29Z</time>
      </trkpt>
      <trkpt lat="45.85832" lon="5.77176">
        <ele>646.2</ele>
        <time>2013-06-15T08:41:48Z</time>
      </trkpt>
      <trkpt lat="45.85822" lon="5.77154">
        <ele>652.15</ele>
        <time>2013-06-15T08:42:07Z</time>
      </trkpt>
      <trkpt lat="45.85819" lon="5.77127">
        <ele>653.9</ele>
        <time>2013-06-15T08:42:29Z</time>
      </trkpt>
      <trkpt lat="45.8582" lon="5.77101">
        <ele>655.88</ele>
        <time>2013-06-15T08:42:49Z</time>
      </trkpt>
      <trkpt lat="45.85825" lon="5.77075">
        <ele>665.01</ele>
        <time>2013-06-15T08:43:10Z</time>
      </trkpt>
      <trkpt lat="45.8582" lon="5.77048">
        <ele>656.57</ele>
        <time>2013-06-15T08:43:29Z</time>
      </trkpt>
      <trkpt lat="45.85814" lon="5.77023">
        <ele>658.98</ele>
        <time>2013-06-15T08:43:52Z</time>
      </trkpt>
      <trkpt lat="45.85817" lon="5.76998">
        <ele>664.23</ele>
        <time>2013-06-15T08:44:11Z</time>
      </trkpt>
      <trkpt lat="45.8582" lon="5.76972">
        <ele>670.26</ele>
        <time>2013-06-15T08:44:29Z</time>
      </trkpt>
      <trkpt lat="45.85824" lon="5.76946">
        <ele>668.36</ele>
        <time>2013-06-15T08:44:51Z</time>
      </trkpt>
      <trkpt lat="45.85827" lon="5.7692">
        <ele>677.53</ele>
        <time>2013-06-15T08:45:11Z</time>
      </trkpt>
      <trkpt lat="45.85827" lon="5.76892">
        <ele>680.04</ele>
        <time>2013-06-15T08:45:33Z</time>
      </trkpt>
      <trkpt lat="45.85836" lon="5.76914">
        <ele>687.98</ele>
        <time>2013-06-15T08:46:15Z</time>
      </trkpt>
      <trkpt lat="45.85839" lon="5.7694">
        <ele>694.57</ele>
        <time>2013-06-15T08:46:35Z</time>
      </trkpt>
      <trkpt lat="45.85844" lon="5.76966">
        <ele>700.57</ele>
        <time>2013-06-15T08:46:55Z</time>
      </trkpt>
      <trkpt lat="45.85849" lon="5.76991">
        <ele>698.61</ele>
        <time>2013-06-15T08:47:11Z</time>
      </trkpt>
      <trkpt lat="45.85858" lon="5.77014">
        <ele>698.02</ele>
        <time>2013-06-15T08:47:31Z</time>
      </trkpt>
      <trkpt lat="45.85869" lon="5.77035">
        <ele>696.16</ele>
        <time>2013-06-15T08:47:47Z</time>
      </trkpt>
      <trkpt lat="45.8588" lon="5.77056">
        <ele>698.49</ele>
        <time>2013-06-15T08:48:11Z</time>
      </trkpt>
      <trkpt lat="45.85885" lon="5.77081">
        <ele>708.68</ele>
        <time>2013-06-15T08:48:29Z</time>
      </trkpt>
      <trkpt lat="45.85895" lon="5.77105">
        <ele>702.25</ele>
        <time>2013-06-15T08:48:50Z</time>
      </trkpt>
      <trkpt lat="45.85899" lon="5.77078">
        <ele>699.5</ele>
        <time>2013-06-15T08:49:25Z</time>
      </trkpt>
      <trkpt lat="45.85901" lon="5.77052">
        <ele>703.64</ele>
        <time>2013-06-15T08:49:44Z</time>
      </trkpt>
      <trkpt lat="45.859" lon="5.77026">
        <ele>704.81</ele>
        <time>2013-06-15T08:50:02Z</time>
      </trkpt>
      <trkpt lat="45.85899" lon="5.77">
        <ele>716.05</ele>
        <time>2013-06-15T08:50:20Z</time>
      </trkpt>
      <trkpt lat="45.85901" lon="5.76974">
        <ele>719.56</ele>
        <time>2013-06-15T08:50:39Z</time>
      </trkpt>
      <trkpt lat="45.85908" lon="5.7695">
        <ele>717.9</ele>
        <time>2013-06-15T08:50:56Z</time>
      </trkpt>
      <trkpt lat="45.85917" lon="5.76926">
        <ele>713.64</ele>
        <time>2013-06-15T08:51:20Z</time>
      </trkpt>
      <trkpt lat="45.85923" lon="5.76902">
        <ele>720.8</ele>
        <time>2013-06-15T08:51:39Z</time>
      </trkpt>
      <trkpt lat="45.85923" lon="5.76875">
        <ele>728.14</ele>
        <time>2013-06-15T08:51:59Z</time>
      </trkpt>
      <trkpt lat="45.85918" lon="5.7685">
        <ele>733.77</ele>
        <time>2013-06-15T08:52:22Z</time>
      </trkpt>
      <trkpt lat="45.85925" lon="5.76825">
        <ele>733.69</ele>
        <time>2013-06-15T08:52:35Z</time>
      </trkpt>
      <trkpt lat="45.85928" lon="5.76797">
        <ele>739.79</ele>
        <time>2013-06-15T08:52:57Z</time>
      </trkpt>
      <trkpt lat="45.85916" lon="5.76777">
        <ele>737.06</ele>
        <time>2013-06-15T08:53:17Z</time>
      </trkpt>
      <trkpt lat="45.85903" lon="5.76759">
        <ele>733.49</ele>
        <time>2013-06-15T08:53:35Z</time>
      </trkpt>
      <trkpt lat="45.85902" lon="5.76732">
        <ele>732.53</ele>
        <time>2013-06-15T08:53:56Z</time>
      </trkpt>
      <trkpt lat="45.85903" lon="5.76706">
        <ele>735.79</ele>
        <time>2013-06-15T08:54:18Z</time>
      </trkpt>
      <trkpt lat="45.85895" lon="5.76682">
        <ele>740.5</ele>
        <time>2013-06-15T08:54:47Z</time>
      </trkpt>
      <trkpt lat="45.85882" lon="5.76665">
        <ele>740.16</ele>
        <time>2013-06-15T08:55:08Z</time>
      </trkpt>
      <trkpt lat="45.85866" lon="5.76652">
        <ele>742.81</ele>
        <time>2013-06-15T08:55:26Z</time>
      </trkpt>
      <trkpt lat="45.8585" lon="5.76637">
        <ele>749.13</ele>
        <time>2013-06-15T08:55:46Z</time>
      </trkpt>
      <trkpt lat="45.85867" lon="5.76626">
        <ele>766.75</ele>
        <time>2013-06-15T08:58:31Z</time>
      </trkpt>
      <trkpt lat="45.85886" lon="5.7663">
        <ele>754.47</ele>
        <time>2013-06-15T08:58:50Z</time>
      </trkpt>
      <trkpt lat="45.85903" lon="5.76639">
        <ele>757.73</ele>
        <time>2013-06-15T08:59:11Z</time>
      </trkpt>
      <trkpt lat="45.85919" lon="5.76652">
        <ele>761.38</ele>
        <time>2013-06-15T08:59:32Z</time>
      </trkpt>
      <trkpt lat="45.85936" lon="5.76662">
        <ele>756.26</ele>
        <time>2013-06-15T08:59:52Z</time>
      </trkpt>
      <trkpt lat="45.85951" lon="5.76677">
        <ele>763.56</ele>
        <time>2013-06-15T09:00:28Z</time>
      </trkpt>
      <trkpt lat="45.85965" lon="5.76694">
        <ele>767.02</ele>
        <time>2013-06-15T09:00:46Z</time>
      </trkpt>
      <trkpt lat="45.85976" lon="5.76714">
        <ele>768.78</ele>
        <time>2013-06-15T09:01:04Z</time>
      </trkpt>
      <trkpt lat="45.85986" lon="5.76736">
        <ele>771.2</ele>
        <time>2013-06-15T09:01:25Z</time>
      </trkpt>
      <trkpt lat="45.85998" lon="5.76758">
        <ele>777.34</ele>
        <time>2013-06-15T09:01:42Z</time>
      </trkpt>
      <trkpt lat="45.86003" lon="5.76784">
        <ele>786.3</ele>
        <time>2013-06-15T09:02:02Z</time>
      </trkpt>
      <trkpt lat="45.86007" lon="5.7681">
        <ele>792.32</ele>
        <time>2013-06-15T09:02:23Z</time>
      </trkpt>
      <trkpt lat="45.86012" lon="5.76836">
        <ele>786.41</ele>
        <time>2013-06-15T09:02:43Z</time>
      </trkpt>
      <trkpt lat="45.86026" lon="5.76818">
        <ele>791.72</ele>
        <time>2013-06-15T09:03:25Z</time>
      </trkpt>
      <trkpt lat="45.86031" lon="5.76794">
        <ele>797.07</ele>
        <time>2013-06-15T09:03:47Z</time>
      </trkpt>
      <trkpt lat="45.8603" lon="5.76768">
        <ele>800.85</ele>
        <time>2013-06-15T09:04:04Z</time>
      </trkpt>
      <trkpt lat="45.86032" lon="5.76741">
        <ele>799.65</ele>
        <time>2013-06-15T09:04:22Z</time>
      </trkpt>
      <trkpt lat="45.86038" lon="5.76716">
        <ele>795.63</ele>
        <time>2013-06-15T09:04:44Z</time>
      </trkpt>
      <trkpt lat="45.86048" lon="5.76692">
        <ele>806.34</ele>
        <time>2013-06-15T09:05:07Z</time>
      </trkpt>
      <trkpt lat="45.86055" lon="5.76717">
        <ele>817.51</ele>
        <time>2013-06-15T09:06:08Z</time>
      </trkpt>
      <trkpt lat="45.86057" lon="5.76743">
        <ele>821.74</ele>
        <time>2013-06-15T09:06:28Z</time>
      </trkpt>
      <trkpt lat="45.86059" lon="5.7677">
        <ele>820.51</ele>
        <time>2013-06-15T09:06:47Z</time>
      </trkpt>
      <trkpt lat="45.86063" lon="5.76796">
        <ele>828.34</ele>
        <time>2013-06-15T09:07:06Z</time>
      </trkpt>
      <trkpt lat="45.86066" lon="5.76821">
        <ele>825.62</ele>
        <time>2013-06-15T09:07:27Z</time>
      </trkpt>
      <trkpt lat="45.86073" lon="5.76845">
        <ele>830.53</ele>
        <time>2013-06-15T09:07:49Z</time>
      </trkpt>
      <trkpt lat="45.86079" lon="5.76871">
        <ele>827.21</ele>
        <time>2013-06-15T09:08:10Z</time>
      </trkpt>
      <trkpt lat="45.86084" lon="5.76897">
        <ele>834.19</ele>
        <time>2013-06-15T09:08:30Z</time>
      </trkpt>
      <trkpt lat="45.8609" lon="5.76923">
        <ele>833.01</ele>
        <time>2013-06-15T09:08:49Z</time>
      </trkpt>
      <trkpt lat="45.86096" lon="5.76948">
        <ele>833.63</ele>
        <time>2013-06-15T09:09:09Z</time>
      </trkpt>
      <trkpt lat="45.86101" lon="5.76973">
        <ele>839.38</ele>
        <time>2013-06-15T09:09:33Z</time>
      </trkpt>
      <trkpt lat="45.86106" lon="5.76998">
        <ele>847.03</ele>
        <time>2013-06-15T09:09:53Z</time>
      </trkpt>
      <trkpt lat="45.86106" lon="5.77024">
        <ele>847.03</ele>
        <time>2013-06-15T09:10:14Z</time>
      </trkpt>
      <trkpt lat="45.86111" lon="5.77049">
        <ele>854.4</ele>
        <time>2013-06-15T09:10:33Z</time>
      </trkpt>
      <trkpt lat="45.86115" lon="5.77075">
        <ele>858.83</ele>
        <time>2013-06-15T09:10:48Z</time>
      </trkpt>
      <trkpt lat="45.86123" lon="5.77099">
        <ele>853.72</ele>
        <time>2013-06-15T09:11:11Z</time>
      </trkpt>
      <trkpt lat="45.8613" lon="5.77124">
        <ele>857.14</ele>
        <time>2013-06-15T09:11:33Z</time>
      </trkpt>
      <trkpt lat="45.86132" lon="5.7715">
        <ele>860.41</ele>
        <time>2013-06-15T09:11:53Z</time>
      </trkpt>
      <trkpt lat="45.86148" lon="5.77134">
        <ele>853.05</ele>
        <time>2013-06-15T09:12:27Z</time>
      </trkpt>
      <trkpt lat="45.86146" lon="5.77105">
        <ele>851.46</ele>
        <time>2013-06-15T09:12:55Z</time>
      </trkpt>
      <trkpt lat="45.86148" lon="5.77077">
        <ele>850.51</ele>
        <time>2013-06-15T09:13:08Z</time>
      </trkpt>
      <trkpt lat="45.86147" lon="5.77051">
        <ele>860.3</ele>
        <time>2013-06-15T09:13:27Z</time>
      </trkpt>
      <trkpt lat="45.86149" lon="5.77024">
        <ele>863.66</ele>
        <time>2013-06-15T09:13:48Z</time>
      </trkpt>
      <trkpt lat="45.86153" lon="5.76998">
        <ele>865.26</ele>
        <time>2013-06-15T09:14:07Z</time>
      </trkpt>
      <trkpt lat="45.86157" lon="5.76972">
        <ele>873.25</ele>
        <time>2013-06-15T09:14:31Z</time>
      </trkpt>
      <trkpt lat="45.8616" lon="5.76945">
        <ele>875.38</ele>
        <time>2013-06-15T09:14:53Z</time>
      </trkpt>
      <trkpt lat="45.86156" lon="5.76919">
        <ele>874.65</ele>
        <time>2013-06-15T09:15:13Z</time>
      </trkpt>
      <trkpt lat="45.86162" lon="5.76893">
        <ele>875.54</ele>
        <time>2013-06-15T09:15:31Z</time>
      </trkpt>
      <trkpt lat="45.86167" lon="5.76868">
        <ele>870.71</ele>
        <time>2013-06-15T09:15:51Z</time>
      </trkpt>
      <trkpt lat="45.86171" lon="5.76841">
        <ele>882.75</ele>
        <time>2013-06-15T09:16:11Z</time>
      </trkpt>
      <trkpt lat="45.86177" lon="5.76816">
        <ele>881.07</ele>
        <time>2013-06-15T09:16:33Z</time>
      </trkpt>
      <trkpt lat="45.86183" lon="5.7679">
        <ele>884.82</ele>
        <time>2013-06-15T09:16:55Z</time>
      </trkpt>
      <trkpt lat="45.86191" lon="5.76767">
        <ele>893.1</ele>
        <time>2013-06-15T09:17:13Z</time>
      </trkpt>
      <trkpt lat="45.86196" lon="5.76792">
        <ele>898.19</ele>
        <time>2013-06-15T09:17:55Z</time>
      </trkpt>
      <trkpt lat="45.86193" lon="5.76821">
        <ele>899.38</ele>
        <time>2013-06-15T09:18:15Z</time>
      </trkpt>
      <trkpt lat="45.862" lon="5.76845">
        <ele>895.38</ele>
        <time>2013-06-15T09:18:42Z</time>
      </trkpt>
      <trkpt lat="45.86199" lon="5.76873">
        <ele>890.15</ele>
        <time>2013-06-15T09:18:58Z</time>
      </trkpt>
      <trkpt lat="45.86201" lon="5.769">
        <ele>893.21</ele>
        <time>2013-06-15T09:19:20Z</time>
      </trkpt>
      <trkpt lat="45.86206" lon="5.76925">
        <ele>894.49</ele>
        <time>2013-06-15T09:19:40Z</time>
      </trkpt>
      <trkpt lat="45.86215" lon="5.76949">
        <ele>896.76</ele>
        <time>2013-06-15T09:20:05Z</time>
      </trkpt>
      <trkpt lat="45.86221" lon="5.76976">
        <ele>900.76</ele>
        <time>2013-06-15T09:20:30Z</time>
      </trkpt>
      <trkpt lat="45.86219" lon="5.77002">
        <ele>900.68</ele>
        <time>2013-06-15T09:20:43Z</time>
      </trkpt>
      <trkpt lat="45.86219" lon="5.77028">
        <ele>900.43</ele>
        <time>2013-06-15T09:21:02Z</time>
      </trkpt>
      <trkpt lat="45.86222" lon="5.77056">
        <ele>901.23</ele>
        <time>2013-06-15T09:21:36Z</time>
      </trkpt>
      <trkpt lat="45.86225" lon="5.77082">
        <ele>899.1</ele>
        <time>2013-06-15T09:21:54Z</time>
      </trkpt>
      <trkpt lat="45.86228" lon="5.77108">
        <ele>903.57</ele>
        <time>2013-06-15T09:22:26Z</time>
      </trkpt>
      <trkpt lat="45.86236" lon="5.77084">
        <ele>905.22</ele>
        <time>2013-06-15T09:23:34Z</time>
      </trkpt>
      <trkpt lat="45.86241" lon="5.77059">
        <ele>906.13</ele>
        <time>2013-06-15T09:23:55Z</time>
      </trkpt>
      <trkpt lat="45.86254" lon="5.77038">
        <ele>906.76</ele>
        <time>2013-06-15T09:24:32Z</time>
      </trkpt>
      <trkpt lat="45.8626" lon="5.77014">
        <ele>905.54</ele>
        <time>2013-06-15T09:24:46Z</time>
      </trkpt>
      <trkpt lat="45.86263" lon="5.76988">
        <ele>906.33</ele>
        <time>2013-06-15T09:25:07Z</time>
      </trkpt>
      <trkpt lat="45.86265" lon="5.76961">
        <ele>909.16</ele>
        <time>2013-06-15T09:25:23Z</time>
      </trkpt>
      <trkpt lat="45.86269" lon="5.76936">
        <ele>908.92</ele>
        <time>2013-06-15T09:25:43Z</time>
      </trkpt>
      <trkpt lat="45.86273" lon="5.7691">
        <ele>914.28</ele>
        <time>2013-06-15T09:26:10Z</time>
      </trkpt>
      <trkpt lat="45.86277" lon="5.76884">
        <ele>932.19</ele>
        <time>2013-06-15T09:26:27Z</time>
      </trkpt>
      <trkpt lat="45.8628" lon="5.76858">
        <ele>950.78</ele>
        <time>2013-06-15T09:26:43Z</time>
      </trkpt>
      <trkpt lat="45.86285" lon="5.76832">
        <ele>951.35</ele>
        <time>2013-06-15T09:27:04Z</time>
      </trkpt>
      <trkpt lat="45.86285" lon="5.76859">
        <ele>971.08</ele>
        <time>2013-06-15T09:28:09Z</time>
      </trkpt>
      <trkpt lat="45.86285" lon="5.76886">
        <ele>973.71</ele>
        <time>2013-06-15T09:28:31Z</time>
      </trkpt>
      <trkpt lat="45.86284" lon="5.76912">
        <ele>967.46</ele>
        <time>2013-06-15T09:28:45Z</time>
      </trkpt>
      <trkpt lat="45.86286" lon="5.76938">
        <ele>971.57</ele>
        <time>2013-06-15T09:29:10Z</time>
      </trkpt>
      <trkpt lat="45.86289" lon="5.76963">
        <ele>975.71</ele>
        <time>2013-06-15T09:29:29Z</time>
      </trkpt>
      <trkpt lat="45.86295" lon="5.76937">
        <ele>978.13</ele>
        <time>2013-06-15T09:29:57Z</time>
      </trkpt>
      <trkpt lat="45.86299" lon="5.76911">
        <ele>979.89</ele>
        <time>2013-06-15T09:30:19Z</time>
      </trkpt>
      <trkpt lat="45.86308" lon="5.76889">
        <ele>982.91</ele>
        <time>2013-06-15T09:30:36Z</time>
      </trkpt>
      <trkpt lat="45.86315" lon="5.76865">
        <ele>979.05</ele>
        <time>2013-06-15T09:30:59Z</time>
      </trkpt>
      <trkpt lat="45.86317" lon="5.76891">
        <ele>990.51</ele>
        <time>2013-06-15T09:31:48Z</time>
      </trkpt>
      <trkpt lat="45.86331" lon="5.76875">
        <ele>1006.2</ele>
        <time>2013-06-15T09:32:54Z</time>
      </trkpt>
      <trkpt lat="45.86333" lon="5.76901">
        <ele>1014.24</ele>
        <time>2013-06-15T09:34:09Z</time>
      </trkpt>
      <trkpt lat="45.8633" lon="5.76927">
        <ele>1019.55</ele>
        <time>2013-06-15T09:34:30Z</time>
      </trkpt>
      <trkpt lat="45.8633" lon="5.76953">
        <ele>1021.15</ele>
        <time>2013-06-15T09:34:53Z</time>
      </trkpt>
      <trkpt lat="45.86339" lon="5.76976">
        <ele>1024.17</ele>
        <time>2013-06-15T09:35:21Z</time>
      </trkpt>
      <trkpt lat="45.86335" lon="5.77001">
        <ele>1024.54</ele>
        <time>2013-06-15T09:35:34Z</time>
      </trkpt>
      <trkpt lat="45.8633" lon="5.77027">
        <ele>1028.66</ele>
        <time>2013-06-15T09:36:03Z</time>
      </trkpt>
      <trkpt lat="45.86325" lon="5.77052">
        <ele>1032.37</ele>
        <time>2013-06-15T09:36:23Z</time>
      </trkpt>
      <trkpt lat="45.8631" lon="5.77068">
        <ele>1024.97</ele>
        <time>2013-06-15T09:36:49Z</time>
      </trkpt>
      <trkpt lat="45.86308" lon="5.77094">
        <ele>1031.65</ele>
        <time>2013-06-15T09:37:16Z</time>
      </trkpt>
      <trkpt lat="45.86312" lon="5.7712">
        <ele>1033.87</ele>
        <time>2013-06-15T09:37:48Z</time>
      </trkpt>
      <trkpt lat="45.86328" lon="5.77134">
        <ele>1035.73</ele>
        <time>2013-06-15T09:38:07Z</time>
      </trkpt>
      <trkpt lat="45.8634" lon="5.77154">
        <ele>1047.68</ele>
        <time>2013-06-15T09:38:35Z</time>
      </trkpt>
      <trkpt lat="45.86338" lon="5.77181">
        <ele>1035.12</ele>
        <time>2013-06-15T09:38:57Z</time>
      </trkpt>
      <trkpt lat="45.86336" lon="5.77209">
        <ele>1035.77</ele>
        <time>2013-06-15T09:39:04Z</time>
      </trkpt>
      <trkpt lat="45.86331" lon="5.77234">
        <ele>1049.81</ele>
        <time>2013-06-15T09:39:24Z</time>
      </trkpt>
      <trkpt lat="45.86336" lon="5.7726">
        <ele>1046.26</ele>
        <time>2013-06-15T09:39:45Z</time>
      </trkpt>
      <trkpt lat="45.86344" lon="5.77283">
        <ele>1054.38</ele>
        <time>2013-06-15T09:40:12Z</time>
      </trkpt>
      <trkpt lat="45.8636" lon="5.77296">
        <ele>1057.49</ele>
        <time>2013-06-15T09:40:45Z</time>
      </trkpt>
      <trkpt lat="45.86363" lon="5.77324">
        <ele>1053.61</ele>
        <time>2013-06-15T09:41:05Z</time>
      </trkpt>
      <trkpt lat="45.86359" lon="5.77354">
        <ele>1055.84</ele>
        <time>2013-06-15T09:41:12Z</time>
      </trkpt>
      <trkpt lat="45.86356" lon="5.7738">
        <ele>1064.57</ele>
        <time>2013-06-15T09:41:33Z</time>
      </trkpt>
      <trkpt lat="45.86367" lon="5.77401">
        <ele>1060.83</ele>
        <time>2013-06-15T09:41:55Z</time>
      </trkpt>
      <trkpt lat="45.86374" lon="5.77425">
        <ele>1065.64</ele>
        <time>2013-06-15T09:42:17Z</time>
      </trkpt>
      <trkpt lat="45.86384" lon="5.77447">
        <ele>1068.51</ele>
        <time>2013-06-15T09:42:43Z</time>
      </trkpt>
      <trkpt lat="45.86394" lon="5.7747">
        <ele>1079.18</ele>
        <time>2013-06-15T09:43:07Z</time>
      </trkpt>
      <trkpt lat="45.86404" lon="5.77491">
        <ele>1077.61</ele>
        <time>2013-06-15T09:43:29Z</time>
      </trkpt>
      <trkpt lat="45.86412" lon="5.77516">
        <ele>1072.72</ele>
        <time>2013-06-15T09:43:59Z</time>
      </trkpt>
      <trkpt lat="45.86414" lon="5.77542">
        <ele>1080.97</ele>
        <time>2013-06-15T09:44:16Z</time>
      </trkpt>
      <trkpt lat="45.86422" lon="5.77566">
        <ele>1085.12</ele>
        <time>2013-06-15T09:44:39Z</time>
      </trkpt>
      <trkpt lat="45.86433" lon="5.77586">
        <ele>1088.69</ele>
        <time>2013-06-15T09:45:06Z</time>
      </trkpt>
      <trkpt lat="45.86446" lon="5.77605">
        <ele>1084</ele>
        <time>2013-06-15T09:45:44Z</time>
      </trkpt>
      <trkpt lat="45.86445" lon="5.7763">
        <ele>1088.31</ele>
        <time>2013-06-15T09:46:17Z</time>
      </trkpt>
      <trkpt lat="45.8645" lon="5.77656">
        <ele>1092.91</ele>
        <time>2013-06-15T09:46:41Z</time>
      </trkpt>
      <trkpt lat="45.86458" lon="5.77682">
        <ele>1096.25</ele>
        <time>2013-06-15T09:47:10Z</time>
      </trkpt>
      <trkpt lat="45.86463" lon="5.77707">
        <ele>1097.5</ele>
        <time>2013-06-15T09:47:32Z</time>
      </trkpt>
      <trkpt lat="45.8647" lon="5.77732">
        <ele>1103.36</ele>
        <time>2013-06-15T09:47:56Z</time>
      </trkpt>
      <trkpt lat="45.86476" lon="5.77757">
        <ele>1095.78</ele>
        <time>2013-06-15T09:48:17Z</time>
      </trkpt>
      <trkpt lat="45.86485" lon="5.7778">
        <ele>1099.13</ele>
        <time>2013-06-15T09:48:37Z</time>
      </trkpt>
      <trkpt lat="45.86496" lon="5.77801">
        <ele>1092.89</ele>
        <time>2013-06-15T09:49:00Z</time>
      </trkpt>
      <trkpt lat="45.86512" lon="5.77813">
        <ele>1095.69</ele>
        <time>2013-06-15T09:49:49Z</time>
      </trkpt>
      <trkpt lat="45.86524" lon="5.77834">
        <ele>1109.05</ele>
        <time>2013-06-15T09:50:07Z</time>
      </trkpt>
      <trkpt lat="45.86537" lon="5.77853">
        <ele>1107.86</ele>
        <time>2013-06-15T09:50:30Z</time>
      </trkpt>
      <trkpt lat="45.8655" lon="5.77873">
        <ele>1107.87</ele>
        <time>2013-06-15T09:50:50Z</time>
      </trkpt>
      <trkpt lat="45.86565" lon="5.77888">
        <ele>1115.04</ele>
        <time>2013-06-15T09:51:08Z</time>
      </trkpt>
      <trkpt lat="45.86577" lon="5.77907">
        <ele>1114.28</ele>
        <time>2013-06-15T09:51:32Z</time>
      </trkpt>
      <trkpt lat="45.86592" lon="5.77923">
        <ele>1119.8</ele>
        <time>2013-06-15T09:51:56Z</time>
      </trkpt>
      <trkpt lat="45.8661" lon="5.77924">
        <ele>1125.17</ele>
        <time>2013-06-15T09:52:20Z</time>
      </trkpt>
      <trkpt lat="45.86628" lon="5.77917">
        <ele>1122.67</ele>
        <time>2013-06-15T09:52:41Z</time>
      </trkpt>
      <trkpt lat="45.86644" lon="5.77906">
        <ele>1131.31</ele>
        <time>2013-06-15T09:54:14Z</time>
      </trkpt>
      <trkpt lat="45.86661" lon="5.77894">
        <ele>1136.72</ele>
        <time>2013-06-15T09:54:49Z</time>
      </trkpt>
      <trkpt lat="45.86676" lon="5.77879">
        <ele>1116.02</ele>
        <time>2013-06-15T09:56:30Z</time>
      </trkpt>
      <trkpt lat="45.86693" lon="5.77868">
        <ele>1127.23</ele>
        <time>2013-06-15T09:57:00Z</time>
      </trkpt>
      <trkpt lat="45.86711" lon="5.77861">
        <ele>1131.66</ele>
        <time>2013-06-15T09:57:22Z</time>
      </trkpt>
      <trkpt lat="45.86728" lon="5.7785">
        <ele>1128.51</ele>
        <time>2013-06-15T09:57:41Z</time>
      </trkpt>
      <trkpt lat="45.86715" lon="5.77832">
        <ele>1152.95</ele>
        <time>2013-06-15T09:58:33Z</time>
      </trkpt>
      <trkpt lat="45.86699" lon="5.77821">
        <ele>1160.4</ele>
        <time>2013-06-15T09:58:53Z</time>
      </trkpt>
      <trkpt lat="45.86681" lon="5.77817">
        <ele>1156.83</ele>
        <time>2013-06-15T09:59:12Z</time>
      </trkpt>
      <trkpt lat="45.86667" lon="5.77798">
        <ele>1156.53</ele>
        <time>2013-06-15T09:59:31Z</time>
      </trkpt>
      <trkpt lat="45.86657" lon="5.77775">
        <ele>1156.47</ele>
        <time>2013-06-15T09:59:48Z</time>
      </trkpt>
      <trkpt lat="45.86659" lon="5.7775">
        <ele>1155.69</ele>
        <time>2013-06-15T10:00:11Z</time>
      </trkpt>
      <trkpt lat="45.86673" lon="5.77731">
        <ele>1161.93</ele>
        <time>2013-06-15T10:00:33Z</time>
      </trkpt>
      <trkpt lat="45.8669" lon="5.77718">
        <ele>1164.2</ele>
        <time>2013-06-15T10:00:54Z</time>
      </trkpt>
      <trkpt lat="45.86703" lon="5.77699">
        <ele>1167.08</ele>
        <time>2013-06-15T10:01:10Z</time>
      </trkpt>
      <trkpt lat="45.867" lon="5.77673">
        <ele>1177.6</ele>
        <time>2013-06-15T10:01:33Z</time>
      </trkpt>
      <trkpt lat="45.86688" lon="5.77654">
        <ele>1175.94</ele>
        <time>2013-06-15T10:01:51Z</time>
      </trkpt>
      <trkpt lat="45.86677" lon="5.77633">
        <ele>1170.95</ele>
        <time>2013-06-15T10:02:10Z</time>
      </trkpt>
      <trkpt lat="45.86664" lon="5.77615">
        <ele>1171.79</ele>
        <time>2013-06-15T10:02:30Z</time>
      </trkpt>
      <trkpt lat="45.86657" lon="5.7759">
        <ele>1175.45</ele>
        <time>2013-06-15T10:02:52Z</time>
      </trkpt>
      <trkpt lat="45.86651" lon="5.77565">
        <ele>1184.59</ele>
        <time>2013-06-15T10:03:16Z</time>
      </trkpt>
      <trkpt lat="45.86643" lon="5.77542">
        <ele>1187.87</ele>
        <time>2013-06-15T10:03:36Z</time>
      </trkpt>
      <trkpt lat="45.86627" lon="5.77526">
        <ele>1184.62</ele>
        <time>2013-06-15T10:03:52Z</time>
      </trkpt>
      <trkpt lat="45.86608" lon="5.77523">
        <ele>1183.17</ele>
        <time>2013-06-15T10:04:19Z</time>
      </trkpt>
      <trkpt lat="45.86589" lon="5.77519">
        <ele>1188.6</ele>
        <time>2013-06-15T10:04:43Z</time>
      </trkpt>
      <trkpt lat="45.86575" lon="5.77501">
        <ele>1189.99</ele>
        <time>2013-06-15T10:05:08Z</time>
      </trkpt>
      <trkpt lat="45.86566" lon="5.77479">
        <ele>1191.33</ele>
        <time>2013-06-15T10:05:23Z</time>
      </trkpt>
      <trkpt lat="45.86552" lon="5.77461">
        <ele>1189.97</ele>
        <time>2013-06-15T10:06:22Z</time>
      </trkpt>
      <trkpt lat="45.86535" lon="5.77453">
        <ele>1193.19</ele>
        <time>2013-06-15T10:06:37Z</time>
      </trkpt>
      <trkpt lat="45.86516" lon="5.77446">
        <ele>1188.87</ele>
        <time>2013-06-15T10:06:51Z</time>
      </trkpt>
      <trkpt lat="45.86499" lon="5.77434">
        <ele>1189.28</ele>
        <time>2013-06-15T10:07:11Z</time>
      </trkpt>
      <trkpt lat="45.86481" lon="5.77437">
        <ele>1184.8</ele>
        <time>2013-06-15T10:10:39Z</time>
      </trkpt>
      <trkpt lat="45.865" lon="5.7743">
        <ele>1174.71</ele>
        <time>2013-06-15T10:14:20Z</time>
      </trkpt>
      <trkpt lat="45.86514" lon="5.77446">
        <ele>1178.59</ele>
        <time>2013-06-15T10:18:33Z</time>
      </trkpt>
      <trkpt lat="45.86526" lon="5.77426">
        <ele>1182.43</ele>
        <time>2013-06-15T10:18:55Z</time>
      </trkpt>
      <trkpt lat="45.86543" lon="5.77419">
        <ele>1186.73</ele>
        <time>2013-06-15T10:19:09Z</time>
      </trkpt>
      <trkpt lat="45.86542" lon="5.77393">
        <ele>1197.4</ele>
        <time>2013-06-15T10:19:50Z</time>
      </trkpt>
      <trkpt lat="45.86529" lon="5.77375">
        <ele>1207.54</ele>
        <time>2013-06-15T10:20:12Z</time>
      </trkpt>
      <trkpt lat="45.86518" lon="5.77353">
        <ele>1199.71</ele>
        <time>2013-06-15T10:20:31Z</time>
      </trkpt>
      <trkpt lat="45.8653" lon="5.77372">
        <ele>1186</ele>
        <time>2013-06-15T10:21:01Z</time>
      </trkpt>
      <trkpt lat="45.86539" lon="5.77395">
        <ele>1183.71</ele>
        <time>2013-06-15T10:21:17Z</time>
      </trkpt>
      <trkpt lat="45.86548" lon="5.77418">
        <ele>1188.32</ele>
        <time>2013-06-15T10:21:30Z</time>
      </trkpt>
      <trkpt lat="45.86555" lon="5.77443">
        <ele>1185.47</ele>
        <time>2013-06-15T10:21:44Z</time>
      </trkpt>
      <trkpt lat="45.86561" lon="5.77469">
        <ele>1197.63</ele>
        <time>2013-06-15T10:21:55Z</time>
      </trkpt>
      <trkpt lat="45.86578" lon="5.77479">
        <ele>1207.65</ele>
        <time>2013-06-15T10:22:08Z</time>
      </trkpt>
      <trkpt lat="45.86596" lon="5.77481">
        <ele>1208.04</ele>
        <time>2013-06-15T10:22:25Z</time>
      </trkpt>
      <trkpt lat="45.86611" lon="5.77465">
        <ele>1193.88</ele>
        <time>2013-06-15T10:22:48Z</time>
      </trkpt>
      <trkpt lat="45.86626" lon="5.77449">
        <ele>1199.24</ele>
        <time>2013-06-15T10:23:08Z</time>
      </trkpt>
      <trkpt lat="45.86635" lon="5.77426">
        <ele>1200.62</ele>
        <time>2013-06-15T10:23:20Z</time>
      </trkpt>
      <trkpt lat="45.8664" lon="5.77401">
        <ele>1206.73</ele>
        <time>2013-06-15T10:23:40Z</time>
      </trkpt>
      <trkpt lat="45.86639" lon="5.77375">
        <ele>1199.67</ele>
        <time>2013-06-15T10:24:09Z</time>
      </trkpt>
      <trkpt lat="45.86641" lon="5.77349">
        <ele>1199.3</ele>
        <time>2013-06-15T10:24:29Z</time>
      </trkpt>
      <trkpt lat="45.86657" lon="5.77332">
        <ele>1206.1</ele>
        <time>2013-06-15T10:24:56Z</time>
      </trkpt>
      <trkpt lat="45.86672" lon="5.77316">
        <ele>1207.41</ele>
        <time>2013-06-15T10:25:06Z</time>
      </trkpt>
      <trkpt lat="45.86689" lon="5.77303">
        <ele>1204.68</ele>
        <time>2013-06-15T10:25:23Z</time>
      </trkpt>
      <trkpt lat="45.86706" lon="5.77293">
        <ele>1205.42</ele>
        <time>2013-06-15T10:25:40Z</time>
      </trkpt>
      <trkpt lat="45.86724" lon="5.7729">
        <ele>1205.66</ele>
        <time>2013-06-15T10:25:55Z</time>
      </trkpt>
      <trkpt lat="45.86742" lon="5.77297">
        <ele>1212.78</ele>
        <time>2013-06-15T10:26:16Z</time>
      </trkpt>
      <trkpt lat="45.8676" lon="5.77298">
        <ele>1223.24</ele>
        <time>2013-06-15T10:26:27Z</time>
      </trkpt>
      <trkpt lat="45.86776" lon="5.7731">
        <ele>1215.19</ele>
        <time>2013-06-15T10:26:52Z</time>
      </trkpt>
      <trkpt lat="45.86795" lon="5.7731">
        <ele>1211.42</ele>
        <time>2013-06-15T10:27:04Z</time>
      </trkpt>
      <trkpt lat="45.86813" lon="5.77311">
        <ele>1210.65</ele>
        <time>2013-06-15T10:27:22Z</time>
      </trkpt>
      <trkpt lat="45.86831" lon="5.77315">
        <ele>1207.62</ele>
        <time>2013-06-15T10:27:40Z</time>
      </trkpt>
      <trkpt lat="45.86848" lon="5.77306">
        <ele>1208.45</ele>
        <time>2013-06-15T10:27:56Z</time>
      </trkpt>
      <trkpt lat="45.86866" lon="5.77299">
        <ele>1209.12</ele>
        <time>2013-06-15T10:28:20Z</time>
      </trkpt>
      <trkpt lat="45.86883" lon="5.77312">
        <ele>1218.19</ele>
        <time>2013-06-15T10:28:40Z</time>
      </trkpt>
      <trkpt lat="45.869" lon="5.77325">
        <ele>1210.44</ele>
        <time>2013-06-15T10:28:57Z</time>
      </trkpt>
      <trkpt lat="45.86919" lon="5.7733">
        <ele>1214.54</ele>
        <time>2013-06-15T10:29:14Z</time>
      </trkpt>
      <trkpt lat="45.86937" lon="5.77338">
        <ele>1235.11</ele>
        <time>2013-06-15T10:29:30Z</time>
      </trkpt>
      <trkpt lat="45.86955" lon="5.77341">
        <ele>1225.58</ele>
        <time>2013-06-15T10:29:46Z</time>
      </trkpt>
      <trkpt lat="45.86973" lon="5.77343">
        <ele>1226.84</ele>
        <time>2013-06-15T10:30:02Z</time>
      </trkpt>
      <trkpt lat="45.86991" lon="5.77347">
        <ele>1223.13</ele>
        <time>2013-06-15T10:30:20Z</time>
      </trkpt>
      <trkpt lat="45.87008" lon="5.77357">
        <ele>1220.27</ele>
        <time>2013-06-15T10:30:32Z</time>
      </trkpt>
      <trkpt lat="45.87026" lon="5.77365">
        <ele>1228.34</ele>
        <time>2013-06-15T10:30:50Z</time>
      </trkpt>
      <trkpt lat="45.87045" lon="5.77366">
        <ele>1220.54</ele>
        <time>2013-06-15T10:31:06Z</time>
      </trkpt>
      <trkpt lat="45.87063" lon="5.77368">
        <ele>1230.54</ele>
        <time>2013-06-15T10:31:22Z</time>
      </trkpt>
      <trkpt lat="45.8708" lon="5.77376">
        <ele>1232.41</ele>
        <time>2013-06-15T10:31:39Z</time>
      </trkpt>
      <trkpt lat="45.87096" lon="5.77392">
        <ele>1233.76</ele>
        <time>2013-06-15T10:31:55Z</time>
      </trkpt>
      <trkpt lat="45.87109" lon="5.77411">
        <ele>1238.02</ele>
        <time>2013-06-15T10:32:43Z</time>
      </trkpt>
      <trkpt lat="45.87128" lon="5.7741">
        <ele>1251.14</ele>
        <time>2013-06-15T10:39:36Z</time>
      </trkpt>
      <trkpt lat="45.87112" lon="5.77423">
        <ele>1259.1</ele>
        <time>2013-06-15T10:42:25Z</time>
      </trkpt>
      <trkpt lat="45.87112" lon="5.77394">
        <ele>1246.98</ele>
        <time>2013-06-15T11:00:13Z</time>
      </trkpt>
      <trkpt lat="45.87104" lon="5.77369">
        <ele>1248.97</ele>
        <time>2013-06-15T11:00:27Z</time>
      </trkpt>
      <trkpt lat="45.87097" lon="5.77344">
        <ele>1251.95</ele>
        <time>2013-06-15T11:00:45Z</time>
      </trkpt>
      <trkpt lat="45.87094" lon="5.77318">
        <ele>1248.39</ele>
        <time>2013-06-15T11:01:03Z</time>
      </trkpt>
      <trkpt lat="45.87095" lon="5.77291">
        <ele>1246.23</ele>
        <time>2013-06-15T11:01:18Z</time>
      </trkpt>
      <trkpt lat="45.87101" lon="5.77266">
        <ele>1247.64</ele>
        <time>2013-06-15T11:01:36Z</time>
      </trkpt>
      <trkpt lat="45.87114" lon="5.77246">
        <ele>1252.12</ele>
        <time>2013-06-15T11:02:19Z</time>
      </trkpt>
      <trkpt lat="45.87124" lon="5.77224">
        <ele>1255.86</ele>
        <time>2013-06-15T11:02:40Z</time>
      </trkpt>
      <trkpt lat="45.87131" lon="5.77199">
        <ele>1264.98</ele>
        <time>2013-06-15T11:03:03Z</time>
      </trkpt>
      <trkpt lat="45.87137" lon="5.77174">
        <ele>1262.24</ele>
        <time>2013-06-15T11:03:18Z</time>
      </trkpt>
      <trkpt lat="45.87144" lon="5.7715">
        <ele>1256.28</ele>
        <time>2013-06-15T11:03:38Z</time>
      </trkpt>
      <trkpt lat="45.87139" lon="5.77125">
        <ele>1282.75</ele>
        <time>2013-06-15T11:04:11Z</time>
      </trkpt>
      <trkpt lat="45.87118" lon="5.77109">
        <ele>1274.46</ele>
        <time>2013-06-15T11:04:27Z</time>
      </trkpt>
      <trkpt lat="45.87101" lon="5.77098">
        <ele>1270.98</ele>
        <time>2013-06-15T11:04:45Z</time>
      </trkpt>
      <trkpt lat="45.87086" lon="5.77083">
        <ele>1280.29</ele>
        <time>2013-06-15T11:05:04Z</time>
      </trkpt>
      <trkpt lat="45.87102" lon="5.77069">
        <ele>1270.04</ele>
        <time>2013-06-15T11:05:32Z</time>
      </trkpt>
      <trkpt lat="45.87122" lon="5.77071">
        <ele>1277.9</ele>
        <time>2013-06-15T11:05:51Z</time>
      </trkpt>
      <trkpt lat="45.8714" lon="5.77067">
        <ele>1274.61</ele>
        <time>2013-06-15T11:06:08Z</time>
      </trkpt>
      <trkpt lat="45.87158" lon="5.77062">
        <ele>1285.1</ele>
        <time>2013-06-15T11:06:28Z</time>
      </trkpt>
      <trkpt lat="45.87175" lon="5.77051">
        <ele>1292.41</ele>
        <time>2013-06-15T11:06:47Z</time>
      </trkpt>
      <trkpt lat="45.87165" lon="5.77029">
        <ele>1293.25</ele>
        <time>2013-06-15T11:07:14Z</time>
      </trkpt>
      <trkpt lat="45.87148" lon="5.77019">
        <ele>1291.09</ele>
        <time>2013-06-15T11:07:29Z</time>
      </trkpt>
      <trkpt lat="45.8713" lon="5.77012">
        <ele>1291.67</ele>
        <time>2013-06-15T11:07:55Z</time>
      </trkpt>
      <trkpt lat="45.87113" lon="5.77004">
        <ele>1293.63</ele>
        <time>2013-06-15T11:08:16Z</time>
      </trkpt>
      <trkpt lat="45.87127" lon="5.76987">
        <ele>1304.56</ele>
        <time>2013-06-15T11:09:05Z</time>
      </trkpt>
      <trkpt lat="45.87145" lon="5.76984">
        <ele>1308.53</ele>
        <time>2013-06-15T11:09:26Z</time>
      </trkpt>
      <trkpt lat="45.87162" lon="5.7697">
        <ele>1315.74</ele>
        <time>2013-06-15T11:09:47Z</time>
      </trkpt>
      <trkpt lat="45.87179" lon="5.7696">
        <ele>1301.86</ele>
        <time>2013-06-15T11:10:00Z</time>
      </trkpt>
      <trkpt lat="45.87195" lon="5.76946">
        <ele>1305.56</ele>
        <time>2013-06-15T11:10:19Z</time>
      </trkpt>
      <trkpt lat="45.87212" lon="5.76936">
        <ele>1309.41</ele>
        <time>2013-06-15T11:10:43Z</time>
      </trkpt>
      <trkpt lat="45.87218" lon="5.76911">
        <ele>1310.21</ele>
        <time>2013-06-15T11:11:03Z</time>
      </trkpt>
      <trkpt lat="45.87214" lon="5.76885">
        <ele>1312.21</ele>
        <time>2013-06-15T11:11:22Z</time>
      </trkpt>
      <trkpt lat="45.87205" lon="5.76862">
        <ele>1312.78</ele>
        <time>2013-06-15T11:11:47Z</time>
      </trkpt>
      <trkpt lat="45.87194" lon="5.76841">
        <ele>1317.87</ele>
        <time>2013-06-15T11:12:08Z</time>
      </trkpt>
      <trkpt lat="45.872" lon="5.76816">
        <ele>1320.07</ele>
        <time>2013-06-15T11:12:40Z</time>
      </trkpt>
      <trkpt lat="45.87211" lon="5.76795">
        <ele>1321.51</ele>
        <time>2013-06-15T11:13:17Z</time>
      </trkpt>
      <trkpt lat="45.87212" lon="5.76769">
        <ele>1321.62</ele>
        <time>2013-06-15T11:13:37Z</time>
      </trkpt>
      <trkpt lat="45.87208" lon="5.76743">
        <ele>1321.63</ele>
        <time>2013-06-15T11:14:53Z</time>
      </trkpt>
      <trkpt lat="45.87207" lon="5.76716">
        <ele>1321.77</ele>
        <time>2013-06-15T11:15:26Z</time>
      </trkpt>
      <trkpt lat="45.87209" lon="5.7669">
        <ele>1325.16</ele>
        <time>2013-06-15T11:15:42Z</time>
      </trkpt>
      <trkpt lat="45.87215" lon="5.76665">
        <ele>1326.42</ele>
        <time>2013-06-15T11:16:19Z</time>
      </trkpt>
      <trkpt lat="45.8723" lon="5.7665">
        <ele>1328.6</ele>
        <time>2013-06-15T11:16:45Z</time>
      </trkpt>
      <trkpt lat="45.87247" lon="5.76638">
        <ele>1327.43</ele>
        <time>2013-06-15T11:17:46Z</time>
      </trkpt>
      <trkpt lat="45.87263" lon="5.76627">
        <ele>1328.73</ele>
        <time>2013-06-15T11:18:01Z</time>
      </trkpt>
      <trkpt lat="45.87281" lon="5.76618">
        <ele>1330.02</ele>
        <time>2013-06-15T11:18:18Z</time>
      </trkpt>
      <trkpt lat="45.87298" lon="5.76606">
        <ele>1329.89</ele>
        <time>2013-06-15T11:18:34Z</time>
      </trkpt>
      <trkpt lat="45.87315" lon="5.76598">
        <ele>1331.76</ele>
        <time>2013-06-15T11:18:56Z</time>
      </trkpt>
      <trkpt lat="45.87332" lon="5.76585">
        <ele>1333.34</ele>
        <time>2013-06-15T11:19:26Z</time>
      </trkpt>
      <trkpt lat="45.87349" lon="5.76574">
        <ele>1330.3</ele>
        <time>2013-06-15T11:20:00Z</time>
      </trkpt>
      <trkpt lat="45.87366" lon="5.76562">
        <ele>1330.1</ele>
        <time>2013-06-15T11:21:08Z</time>
      </trkpt>
      <trkpt lat="45.87384" lon="5.76555">
        <ele>1326.99</ele>
        <time>2013-06-15T11:22:03Z</time>
      </trkpt>
      <trkpt lat="45.87402" lon="5.76545">
        <ele>1326.48</ele>
        <time>2013-06-15T11:22:32Z</time>
      </trkpt>
      <trkpt lat="45.87421" lon="5.76541">
        <ele>1326.19</ele>
        <time>2013-06-15T11:22:44Z</time>
      </trkpt>
      <trkpt lat="45.87439" lon="5.76534">
        <ele>1326.92</ele>
        <time>2013-06-15T11:22:59Z</time>
      </trkpt>
      <trkpt lat="45.87457" lon="5.76528">
        <ele>1324.24</ele>
        <time>2013-06-15T11:23:12Z</time>
      </trkpt>
      <trkpt lat="45.87473" lon="5.76514">
        <ele>1324.56</ele>
        <time>2013-06-15T11:23:28Z</time>
      </trkpt>
      <trkpt lat="45.87487" lon="5.76496">
        <ele>1324.59</ele>
        <time>2013-06-15T11:23:46Z</time>
      </trkpt>
      <trkpt lat="45.87505" lon="5.76488">
        <ele>1324.94</ele>
        <time>2013-06-15T11:24:02Z</time>
      </trkpt>
      <trkpt lat="45.87523" lon="5.76482">
        <ele>1329.05</ele>
        <time>2013-06-15T11:24:16Z</time>
      </trkpt>
      <trkpt lat="45.8754" lon="5.76472">
        <ele>1327.51</ele>
        <time>2013-06-15T11:24:31Z</time>
      </trkpt>
      <trkpt lat="45.87557" lon="5.76461">
        <ele>1330.53</ele>
        <time>2013-06-15T11:24:48Z</time>
      </trkpt>
      <trkpt lat="45.87575" lon="5.76454">
        <ele>1326.56</ele>
        <time>2013-06-15T11:25:06Z</time>
      </trkpt>
      <trkpt lat="45.87594" lon="5.76448">
        <ele>1325.68</ele>
        <time>2013-06-15T11:25:20Z</time>
      </trkpt>
      <trkpt lat="45.87606" lon="5.76429">
        <ele>1324.08</ele>
        <time>2013-06-15T11:25:33Z</time>
      </trkpt>
      <trkpt lat="45.87616" lon="5.76408">
        <ele>1324.7</ele>
        <time>2013-06-15T11:25:45Z</time>
      </trkpt>
      <trkpt lat="45.87628" lon="5.76386">
        <ele>1321.51</ele>
        <time>2013-06-15T11:26:00Z</time>
      </trkpt>
      <trkpt lat="45.8764" lon="5.76364">
        <ele>1322.84</ele>
        <time>2013-06-15T11:26:13Z</time>
      </trkpt>
      <trkpt lat="45.87651" lon="5.76344">
        <ele>1320.47</ele>
        <time>2013-06-15T11:26:26Z</time>
      </trkpt>
      <trkpt lat="45.87661" lon="5.76321">
        <ele>1325.41</ele>
        <time>2013-06-15T11:26:46Z</time>
      </trkpt>
      <trkpt lat="45.87676" lon="5.76304">
        <ele>1322</ele>
        <time>2013-06-15T11:27:07Z</time>
      </trkpt>
      <trkpt lat="45.87693" lon="5.76294">
        <ele>1322.31</ele>
        <time>2013-06-15T11:27:26Z</time>
      </trkpt>
      <trkpt lat="45.87711" lon="5.76286">
        <ele>1311.05</ele>
        <time>2013-06-15T11:27:57Z</time>
      </trkpt>
      <trkpt lat="45.87729" lon="5.76284">
        <ele>1329.23</ele>
        <time>2013-06-15T11:28:13Z</time>
      </trkpt>
      <trkpt lat="45.87748" lon="5.76282">
        <ele>1326.11</ele>
        <time>2013-06-15T11:28:28Z</time>
      </trkpt>
      <trkpt lat="45.87767" lon="5.76283">
        <ele>1328.15</ele>
        <time>2013-06-15T11:28:42Z</time>
      </trkpt>
      <trkpt lat="45.87785" lon="5.7628">
        <ele>1327.97</ele>
        <time>2013-06-15T11:29:05Z</time>
      </trkpt>
      <trkpt lat="45.87803" lon="5.76281">
        <ele>1329.83</ele>
        <time>2013-06-15T11:29:18Z</time>
      </trkpt>
      <trkpt lat="45.87823" lon="5.76282">
        <ele>1328.46</ele>
        <time>2013-06-15T11:29:33Z</time>
      </trkpt>
      <trkpt lat="45.87841" lon="5.76284">
        <ele>1330.46</ele>
        <time>2013-06-15T11:29:47Z</time>
      </trkpt>
      <trkpt lat="45.8786" lon="5.76283">
        <ele>1330.57</ele>
        <time>2013-06-15T11:30:04Z</time>
      </trkpt>
      <trkpt lat="45.87878" lon="5.76288">
        <ele>1334.23</ele>
        <time>2013-06-15T11:30:19Z</time>
      </trkpt>
      <trkpt lat="45.87897" lon="5.76287">
        <ele>1341.97</ele>
        <time>2013-06-15T11:30:33Z</time>
      </trkpt>
      <trkpt lat="45.87915" lon="5.76291">
        <ele>1345.24</ele>
        <time>2013-06-15T11:30:49Z</time>
      </trkpt>
      <trkpt lat="45.87934" lon="5.76296">
        <ele>1348.85</ele>
        <time>2013-06-15T11:31:01Z</time>
      </trkpt>
      <trkpt lat="45.87952" lon="5.76301">
        <ele>1350.49</ele>
        <time>2013-06-15T11:31:18Z</time>
      </trkpt>
      <trkpt lat="45.8797" lon="5.76295">
        <ele>1351</ele>
        <time>2013-06-15T11:31:36Z</time>
      </trkpt>
      <trkpt lat="45.87988" lon="5.7629">
        <ele>1348.38</ele>
        <time>2013-06-15T11:31:52Z</time>
      </trkpt>
      <trkpt lat="45.88005" lon="5.76282">
        <ele>1347.59</ele>
        <time>2013-06-15T11:32:10Z</time>
      </trkpt>
      <trkpt lat="45.88024" lon="5.76277">
        <ele>1343.26</ele>
        <time>2013-06-15T11:32:23Z</time>
      </trkpt>
      <trkpt lat="45.88044" lon="5.76277">
        <ele>1335.82</ele>
        <time>2013-06-15T11:32:39Z</time>
      </trkpt>
      <trkpt lat="45.88063" lon="5.76278">
        <ele>1342.74</ele>
        <time>2013-06-15T11:32:59Z</time>
      </trkpt>
      <trkpt lat="45.88082" lon="5.76274">
        <ele>1340.81</ele>
        <time>2013-06-15T11:33:16Z</time>
      </trkpt>
      <trkpt lat="45.881" lon="5.76268">
        <ele>1343.05</ele>
        <time>2013-06-15T11:33:32Z</time>
      </trkpt>
      <trkpt lat="45.88118" lon="5.76261">
        <ele>1339.96</ele>
        <time>2013-06-15T11:33:49Z</time>
      </trkpt>
      <trkpt lat="45.88135" lon="5.76252">
        <ele>1343.46</ele>
        <time>2013-06-15T11:34:11Z</time>
      </trkpt>
      <trkpt lat="45.88153" lon="5.76254">
        <ele>1343.43</ele>
        <time>2013-06-15T11:34:25Z</time>
      </trkpt>
      <trkpt lat="45.8817" lon="5.76246">
        <ele>1338.56</ele>
        <time>2013-06-15T11:34:41Z</time>
      </trkpt>
      <trkpt lat="45.88189" lon="5.76238">
        <ele>1335.61</ele>
        <time>2013-06-15T11:34:57Z</time>
      </trkpt>
      <trkpt lat="45.88206" lon="5.76227">
        <ele>1336.33</ele>
        <time>2013-06-15T11:35:18Z</time>
      </trkpt>
      <trkpt lat="45.88212" lon="5.76203">
        <ele>1339.65</ele>
        <time>2013-06-15T11:35:49Z</time>
      </trkpt>
      <trkpt lat="45.8823" lon="5.76195">
        <ele>1340.68</ele>
        <time>2013-06-15T11:36:10Z</time>
      </trkpt>
      <trkpt lat="45.88247" lon="5.76185">
        <ele>1340.86</ele>
        <time>2013-06-15T11:36:26Z</time>
      </trkpt>
      <trkpt lat="45.88264" lon="5.76178">
        <ele>1342.14</ele>
        <time>2013-06-15T11:36:40Z</time>
      </trkpt>
      <trkpt lat="45.88281" lon="5.76166">
        <ele>1334.67</ele>
        <time>2013-06-15T11:36:56Z</time>
      </trkpt>
      <trkpt lat="45.88299" lon="5.76159">
        <ele>1351.64</ele>
        <time>2013-06-15T11:37:29Z</time>
      </trkpt>
      <trkpt lat="45.88317" lon="5.76146">
        <ele>1340.4</ele>
        <time>2013-06-15T11:37:41Z</time>
      </trkpt>
      <trkpt lat="45.88334" lon="5.76136">
        <ele>1340.46</ele>
        <time>2013-06-15T11:37:55Z</time>
      </trkpt>
      <trkpt lat="45.88351" lon="5.76127">
        <ele>1347.05</ele>
        <time>2013-06-15T11:38:20Z</time>
      </trkpt>
      <trkpt lat="45.88368" lon="5.76117">
        <ele>1349.48</ele>
        <time>2013-06-15T11:38:42Z</time>
      </trkpt>
      <trkpt lat="45.88387" lon="5.76107">
        <ele>1349.39</ele>
        <time>2013-06-15T11:38:57Z</time>
      </trkpt>
      <trkpt lat="45.88404" lon="5.76097">
        <ele>1348.43</ele>
        <time>2013-06-15T11:39:14Z</time>
      </trkpt>
      <trkpt lat="45.8842" lon="5.76086">
        <ele>1352.17</ele>
        <time>2013-06-15T11:39:29Z</time>
      </trkpt>
      <trkpt lat="45.88438" lon="5.7608">
        <ele>1357.93</ele>
        <time>2013-06-15T11:39:47Z</time>
      </trkpt>
      <trkpt lat="45.88456" lon="5.76072">
        <ele>1361.65</ele>
        <time>2013-06-15T11:40:08Z</time>
      </trkpt>
      <trkpt lat="45.88473" lon="5.76063">
        <ele>1366.16</ele>
        <time>2013-06-15T11:40:23Z</time>
      </trkpt>
      <trkpt lat="45.88492" lon="5.76058">
        <ele>1365.36</ele>
        <time>2013-06-15T11:40:40Z</time>
      </trkpt>
      <trkpt lat="45.8851" lon="5.76058">
        <ele>1363.24</ele>
        <time>2013-06-15T11:41:03Z</time>
      </trkpt>
      <trkpt lat="45.88529" lon="5.76055">
        <ele>1367.57</ele>
        <time>2013-06-15T11:41:16Z</time>
      </trkpt>
      <trkpt lat="45.88547" lon="5.76056">
        <ele>1361.4</ele>
        <time>2013-06-15T11:41:40Z</time>
      </trkpt>
      <trkpt lat="45.88564" lon="5.76051">
        <ele>1369.6</ele>
        <time>2013-06-15T11:42:06Z</time>
      </trkpt>
      <trkpt lat="45.8855" lon="5.76034">
        <ele>1368.51</ele>
        <time>2013-06-15T11:42:21Z</time>
      </trkpt>
      <trkpt lat="45.88532" lon="5.76032">
        <ele>1370.73</ele>
        <time>2013-06-15T11:42:38Z</time>
      </trkpt>
      <trkpt lat="45.88513" lon="5.76028">
        <ele>1373.44</ele>
        <time>2013-06-15T11:42:52Z</time>
      </trkpt>
      <trkpt lat="45.88495" lon="5.76022">
        <ele>1372.39</ele>
        <time>2013-06-15T11:43:07Z</time>
      </trkpt>
      <trkpt lat="45.88477" lon="5.76016">
        <ele>1374.65</ele>
        <time>2013-06-15T11:43:23Z</time>
      </trkpt>
      <trkpt lat="45.88459" lon="5.76014">
        <ele>1377.37</ele>
        <time>2013-06-15T11:43:40Z</time>
      </trkpt>
      <trkpt lat="45.88441" lon="5.76019">
        <ele>1377.58</ele>
        <time>2013-06-15T11:43:53Z</time>
      </trkpt>
      <trkpt lat="45.88423" lon="5.76025">
        <ele>1377.61</ele>
        <time>2013-06-15T11:44:06Z</time>
      </trkpt>
      <trkpt lat="45.88405" lon="5.76027">
        <ele>1377.83</ele>
        <time>2013-06-15T11:44:20Z</time>
      </trkpt>
      <trkpt lat="45.88387" lon="5.7602">
        <ele>1377.89</ele>
        <time>2013-06-15T11:44:36Z</time>
      </trkpt>
      <trkpt lat="45.88371" lon="5.76009">
        <ele>1378.76</ele>
        <time>2013-06-15T11:44:52Z</time>
      </trkpt>
      <trkpt lat="45.88353" lon="5.76001">
        <ele>1380.97</ele>
        <time>2013-06-15T11:45:08Z</time>
      </trkpt>
      <trkpt lat="45.88336" lon="5.75992">
        <ele>1379.75</ele>
        <time>2013-06-15T11:45:24Z</time>
      </trkpt>
      <trkpt lat="45.88319" lon="5.75982">
        <ele>1384.99</ele>
        <time>2013-06-15T11:45:39Z</time>
      </trkpt>
      <trkpt lat="45.88337" lon="5.75986">
        <ele>1374.93</ele>
        <time>2013-06-15T11:47:16Z</time>
      </trkpt>
      <trkpt lat="45.88355" lon="5.75979">
        <ele>1377.09</ele>
        <time>2013-06-15T11:47:33Z</time>
      </trkpt>
      <trkpt lat="45.88372" lon="5.75969">
        <ele>1381.44</ele>
        <time>2013-06-15T11:47:50Z</time>
      </trkpt>
      <trkpt lat="45.88391" lon="5.7596">
        <ele>1377.84</ele>
        <time>2013-06-15T11:48:12Z</time>
      </trkpt>
      <trkpt lat="45.88409" lon="5.75949">
        <ele>1380.18</ele>
        <time>2013-06-15T11:48:36Z</time>
      </trkpt>
      <trkpt lat="45.88428" lon="5.75939">
        <ele>1388.36</ele>
        <time>2013-06-15T11:48:58Z</time>
      </trkpt>
      <trkpt lat="45.88444" lon="5.75928">
        <ele>1388.14</ele>
        <time>2013-06-15T11:49:21Z</time>
      </trkpt>
      <trkpt lat="45.8846" lon="5.75915">
        <ele>1380.57</ele>
        <time>2013-06-15T11:49:40Z</time>
      </trkpt>
      <trkpt lat="45.88479" lon="5.75911">
        <ele>1391.15</ele>
        <time>2013-06-15T11:49:50Z</time>
      </trkpt>
      <trkpt lat="45.88497" lon="5.75898">
        <ele>1394.21</ele>
        <time>2013-06-15T11:50:12Z</time>
      </trkpt>
      <trkpt lat="45.88513" lon="5.75887">
        <ele>1391.08</ele>
        <time>2013-06-15T11:50:26Z</time>
      </trkpt>
      <trkpt lat="45.8853" lon="5.75875">
        <ele>1389.91</ele>
        <time>2013-06-15T11:50:52Z</time>
      </trkpt>
      <trkpt lat="45.88548" lon="5.75871">
        <ele>1396.84</ele>
        <time>2013-06-15T11:51:11Z</time>
      </trkpt>
      <trkpt lat="45.88567" lon="5.75869">
        <ele>1394.42</ele>
        <time>2013-06-15T11:51:37Z</time>
      </trkpt>
      <trkpt lat="45.88585" lon="5.75869">
        <ele>1411.13</ele>
        <time>2013-06-15T11:52:10Z</time>
      </trkpt>
      <trkpt lat="45.88603" lon="5.75878">
        <ele>1413.18</ele>
        <time>2013-06-15T11:52:41Z</time>
      </trkpt>
      <trkpt lat="45.8862" lon="5.75889">
        <ele>1414.33</ele>
        <time>2013-06-15T11:52:57Z</time>
      </trkpt>
      <trkpt lat="45.88639" lon="5.75889">
        <ele>1411.53</ele>
        <time>2013-06-15T11:53:12Z</time>
      </trkpt>
      <trkpt lat="45.88657" lon="5.75897">
        <ele>1416.19</ele>
        <time>2013-06-15T11:53:33Z</time>
      </trkpt>
      <trkpt lat="45.88674" lon="5.75902">
        <ele>1416.01</ele>
        <time>2013-06-15T11:53:54Z</time>
      </trkpt>
      <trkpt lat="45.88692" lon="5.75908">
        <ele>1416.35</ele>
        <time>2013-06-15T11:54:15Z</time>
      </trkpt>
      <trkpt lat="45.8871" lon="5.75902">
        <ele>1425.66</ele>
        <time>2013-06-15T11:54:49Z</time>
      </trkpt>
      <trkpt lat="45.88729" lon="5.75906">
        <ele>1419.52</ele>
        <time>2013-06-15T11:55:09Z</time>
      </trkpt>
      <trkpt lat="45.88746" lon="5.75914">
        <ele>1417.64</ele>
        <time>2013-06-15T11:55:28Z</time>
      </trkpt>
      <trkpt lat="45.88759" lon="5.75934">
        <ele>1419.62</ele>
        <time>2013-06-15T11:55:58Z</time>
      </trkpt>
      <trkpt lat="45.88777" lon="5.75946">
        <ele>1419.28</ele>
        <time>2013-06-15T11:56:16Z</time>
      </trkpt>
      <trkpt lat="45.88791" lon="5.75963">
        <ele>1410.54</ele>
        <time>2013-06-15T11:56:31Z</time>
      </trkpt>
      <trkpt lat="45.88794" lon="5.75989">
        <ele>1409.93</ele>
        <time>2013-06-15T11:56:47Z</time>
      </trkpt>
      <trkpt lat="45.88808" lon="5.76006">
        <ele>1410.45</ele>
        <time>2013-06-15T11:57:18Z</time>
      </trkpt>
      <trkpt lat="45.88824" lon="5.76018">
        <ele>1402.71</ele>
        <time>2013-06-15T11:57:48Z</time>
      </trkpt>
      <trkpt lat="45.88841" lon="5.76009">
        <ele>1420.61</ele>
        <time>2013-06-15T11:58:52Z</time>
      </trkpt>
      <trkpt lat="45.88856" lon="5.75994">
        <ele>1420.74</ele>
        <time>2013-06-15T11:59:07Z</time>
      </trkpt>
      <trkpt lat="45.88872" lon="5.76008">
        <ele>1425.41</ele>
        <time>2013-06-15T12:01:01Z</time>
      </trkpt>
      <trkpt lat="45.88886" lon="5.76024">
        <ele>1415.98</ele>
        <time>2013-06-15T12:02:18Z</time>
      </trkpt>
      <trkpt lat="45.88903" lon="5.76032">
        <ele>1421.46</ele>
        <time>2013-06-15T12:03:31Z</time>
      </trkpt>
      <trkpt lat="45.88897" lon="5.76007">
        <ele>1419.98</ele>
        <time>2013-06-15T12:08:14Z</time>
      </trkpt>
      <trkpt lat="45.88883" lon="5.76024">
        <ele>1422.14</ele>
        <time>2013-06-15T12:09:11Z</time>
      </trkpt>
      <trkpt lat="45.88865" lon="5.76016">
        <ele>1428.04</ele>
        <time>2013-06-15T12:09:46Z</time>
      </trkpt>
      <trkpt lat="45.88848" lon="5.76008">
        <ele>1421.73</ele>
        <time>2013-06-15T12:10:45Z</time>
      </trkpt>
      <trkpt lat="45.88831" lon="5.76001">
        <ele>1417.27</ele>
        <time>2013-06-15T12:11:09Z</time>
      </trkpt>
      <trkpt lat="45.88813" lon="5.75993">
        <ele>1415.9</ele>
        <time>2013-06-15T12:11:38Z</time>
      </trkpt>
      <trkpt lat="45.88798" lon="5.75977">
        <ele>1423.67</ele>
        <time>2013-06-15T12:12:00Z</time>
      </trkpt>
      <trkpt lat="45.88784" lon="5.75962">
        <ele>1418.75</ele>
        <time>2013-06-15T12:12:14Z</time>
      </trkpt>
      <trkpt lat="45.8877" lon="5.75944">
        <ele>1414.87</ele>
        <time>2013-06-15T12:12:41Z</time>
      </trkpt>
      <trkpt lat="45.88752" lon="5.75937">
        <ele>1413.1</ele>
        <time>2013-06-15T12:13:03Z</time>
      </trkpt>
      <trkpt lat="45.88739" lon="5.75917">
        <ele>1418.08</ele>
        <time>2013-06-15T12:13:24Z</time>
      </trkpt>
      <trkpt lat="45.88724" lon="5.759">
        <ele>1419.39</ele>
        <time>2013-06-15T12:13:43Z</time>
      </trkpt>
      <trkpt lat="45.88706" lon="5.75899">
        <ele>1420.21</ele>
        <time>2013-06-15T12:14:00Z</time>
      </trkpt>
      <trkpt lat="45.88689" lon="5.75894">
        <ele>1422.59</ele>
        <time>2013-06-15T12:14:22Z</time>
      </trkpt>
      <trkpt lat="45.88671" lon="5.75885">
        <ele>1420.17</ele>
        <time>2013-06-15T12:14:39Z</time>
      </trkpt>
      <trkpt lat="45.88653" lon="5.75884">
        <ele>1417.62</ele>
        <time>2013-06-15T12:14:54Z</time>
      </trkpt>
      <trkpt lat="45.88634" lon="5.75883">
        <ele>1414.3</ele>
        <time>2013-06-15T12:15:09Z</time>
      </trkpt>
      <trkpt lat="45.88616" lon="5.75888">
        <ele>1412.44</ele>
        <time>2013-06-15T12:15:26Z</time>
      </trkpt>
      <trkpt lat="45.88598" lon="5.75886">
        <ele>1414.03</ele>
        <time>2013-06-15T12:15:42Z</time>
      </trkpt>
      <trkpt lat="45.88581" lon="5.75877">
        <ele>1411.45</ele>
        <time>2013-06-15T12:16:02Z</time>
      </trkpt>
      <trkpt lat="45.88563" lon="5.75872">
        <ele>1412.72</ele>
        <time>2013-06-15T12:16:25Z</time>
      </trkpt>
      <trkpt lat="45.88544" lon="5.75878">
        <ele>1405.5</ele>
        <time>2013-06-15T12:16:43Z</time>
      </trkpt>
      <trkpt lat="45.88526" lon="5.75878">
        <ele>1404.6</ele>
        <time>2013-06-15T12:17:02Z</time>
      </trkpt>
      <trkpt lat="45.8851" lon="5.75891">
        <ele>1402.58</ele>
        <time>2013-06-15T12:17:18Z</time>
      </trkpt>
      <trkpt lat="45.88493" lon="5.75899">
        <ele>1394.74</ele>
        <time>2013-06-15T12:17:32Z</time>
      </trkpt>
      <trkpt lat="45.88492" lon="5.75925">
        <ele>1383.86</ele>
        <time>2013-06-15T12:18:01Z</time>
      </trkpt>
      <trkpt lat="45.88504" lon="5.75946">
        <ele>1385.01</ele>
        <time>2013-06-15T12:18:17Z</time>
      </trkpt>
      <trkpt lat="45.88499" lon="5.75971">
        <ele>1379.9</ele>
        <time>2013-06-15T12:18:34Z</time>
      </trkpt>
      <trkpt lat="45.88482" lon="5.75981">
        <ele>1382.49</ele>
        <time>2013-06-15T12:21:34Z</time>
      </trkpt>
      <trkpt lat="45.88468" lon="5.75998">
        <ele>1375.65</ele>
        <time>2013-06-15T12:21:50Z</time>
      </trkpt>
      <trkpt lat="45.88478" lon="5.76021">
        <ele>1375.17</ele>
        <time>2013-06-15T12:22:07Z</time>
      </trkpt>
      <trkpt lat="45.88497" lon="5.76023">
        <ele>1374.94</ele>
        <time>2013-06-15T12:22:20Z</time>
      </trkpt>
      <trkpt lat="45.88516" lon="5.76027">
        <ele>1370.3</ele>
        <time>2013-06-15T12:22:35Z</time>
      </trkpt>
      <trkpt lat="45.88534" lon="5.76034">
        <ele>1371.96</ele>
        <time>2013-06-15T12:22:50Z</time>
      </trkpt>
      <trkpt lat="45.88553" lon="5.76038">
        <ele>1368.7</ele>
        <time>2013-06-15T12:23:05Z</time>
      </trkpt>
      <trkpt lat="45.8857" lon="5.76048">
        <ele>1364.98</ele>
        <time>2013-06-15T12:23:19Z</time>
      </trkpt>
      <trkpt lat="45.88588" lon="5.76056">
        <ele>1369.1</ele>
        <time>2013-06-15T12:23:34Z</time>
      </trkpt>
      <trkpt lat="45.88607" lon="5.76056">
        <ele>1366.02</ele>
        <time>2013-06-15T12:23:47Z</time>
      </trkpt>
      <trkpt lat="45.88625" lon="5.76055">
        <ele>1362.27</ele>
        <time>2013-06-15T12:24:00Z</time>
      </trkpt>
      <trkpt lat="45.88643" lon="5.76057">
        <ele>1365.71</ele>
        <time>2013-06-15T12:24:13Z</time>
      </trkpt>
      <trkpt lat="45.88662" lon="5.76059">
        <ele>1368.74</ele>
        <time>2013-06-15T12:24:27Z</time>
      </trkpt>
      <trkpt lat="45.88681" lon="5.76063">
        <ele>1363.88</ele>
        <time>2013-06-15T12:24:40Z</time>
      </trkpt>
      <trkpt lat="45.88699" lon="5.76071">
        <ele>1371.66</ele>
        <time>2013-06-15T12:24:56Z</time>
      </trkpt>
      <trkpt lat="45.88718" lon="5.76077">
        <ele>1373.8</ele>
        <time>2013-06-15T12:25:09Z</time>
      </trkpt>
      <trkpt lat="45.88736" lon="5.76081">
        <ele>1372.62</ele>
        <time>2013-06-15T12:25:22Z</time>
      </trkpt>
      <trkpt lat="45.88755" lon="5.76083">
        <ele>1373.66</ele>
        <time>2013-06-15T12:25:35Z</time>
      </trkpt>
      <trkpt lat="45.88773" lon="5.76087">
        <ele>1371.46</ele>
        <time>2013-06-15T12:25:48Z</time>
      </trkpt>
      <trkpt lat="45.88792" lon="5.76085">
        <ele>1372.85</ele>
        <time>2013-06-15T12:26:02Z</time>
      </trkpt>
      <trkpt lat="45.8881" lon="5.76088">
        <ele>1374.35</ele>
        <time>2013-06-15T12:26:15Z</time>
      </trkpt>
      <trkpt lat="45.88828" lon="5.76094">
        <ele>1373.04</ele>
        <time>2013-06-15T12:26:28Z</time>
      </trkpt>
      <trkpt lat="45.88846" lon="5.76098">
        <ele>1376.32</ele>
        <time>2013-06-15T12:26:41Z</time>
      </trkpt>
      <trkpt lat="45.88865" lon="5.76099">
        <ele>1378.46</ele>
        <time>2013-06-15T12:26:55Z</time>
      </trkpt>
      <trkpt lat="45.88884" lon="5.76098">
        <ele>1375.84</ele>
        <time>2013-06-15T12:27:09Z</time>
      </trkpt>
      <trkpt lat="45.88903" lon="5.76099">
        <ele>1378.32</ele>
        <time>2013-06-15T12:27:24Z</time>
      </trkpt>
      <trkpt lat="45.88921" lon="5.76099">
        <ele>1380.03</ele>
        <time>2013-06-15T12:27:38Z</time>
      </trkpt>
      <trkpt lat="45.88939" lon="5.76093">
        <ele>1380.46</ele>
        <time>2013-06-15T12:28:00Z</time>
      </trkpt>
      <trkpt lat="45.88957" lon="5.7609">
        <ele>1384.08</ele>
        <time>2013-06-15T12:28:17Z</time>
      </trkpt>
      <trkpt lat="45.88975" lon="5.76081">
        <ele>1386.26</ele>
        <time>2013-06-15T12:28:38Z</time>
      </trkpt>
      <trkpt lat="45.88994" lon="5.7608">
        <ele>1394.37</ele>
        <time>2013-06-15T12:28:59Z</time>
      </trkpt>
      <trkpt lat="45.89012" lon="5.76078">
        <ele>1389.71</ele>
        <time>2013-06-15T12:29:19Z</time>
      </trkpt>
      <trkpt lat="45.8903" lon="5.76075">
        <ele>1394.4</ele>
        <time>2013-06-15T12:29:38Z</time>
      </trkpt>
      <trkpt lat="45.89049" lon="5.76074">
        <ele>1397.58</ele>
        <time>2013-06-15T12:30:00Z</time>
      </trkpt>
      <trkpt lat="45.89067" lon="5.76067">
        <ele>1399.88</ele>
        <time>2013-06-15T12:30:16Z</time>
      </trkpt>
      <trkpt lat="45.89086" lon="5.76067">
        <ele>1403.2</ele>
        <time>2013-06-15T12:30:32Z</time>
      </trkpt>
      <trkpt lat="45.89103" lon="5.76072">
        <ele>1400.69</ele>
        <time>2013-06-15T12:30:50Z</time>
      </trkpt>
      <trkpt lat="45.89123" lon="5.76075">
        <ele>1400.91</ele>
        <time>2013-06-15T12:31:09Z</time>
      </trkpt>
      <trkpt lat="45.89141" lon="5.76077">
        <ele>1402.47</ele>
        <time>2013-06-15T12:31:27Z</time>
      </trkpt>
      <trkpt lat="45.8916" lon="5.76081">
        <ele>1407.61</ele>
        <time>2013-06-15T12:31:44Z</time>
      </trkpt>
      <trkpt lat="45.89178" lon="5.76083">
        <ele>1406.67</ele>
        <time>2013-06-15T12:32:01Z</time>
      </trkpt>
      <trkpt lat="45.89197" lon="5.76084">
        <ele>1406.61</ele>
        <time>2013-06-15T12:32:18Z</time>
      </trkpt>
      <trkpt lat="45.89215" lon="5.76092">
        <ele>1411.74</ele>
        <time>2013-06-15T12:32:36Z</time>
      </trkpt>
      <trkpt lat="45.89231" lon="5.76106">
        <ele>1407.36</ele>
        <time>2013-06-15T12:32:51Z</time>
      </trkpt>
      <trkpt lat="45.8925" lon="5.76105">
        <ele>1411.38</ele>
        <time>2013-06-15T12:33:09Z</time>
      </trkpt>
      <trkpt lat="45.89268" lon="5.76107">
        <ele>1409.09</ele>
        <time>2013-06-15T12:33:23Z</time>
      </trkpt>
      <trkpt lat="45.89287" lon="5.7611">
        <ele>1409.92</ele>
        <time>2013-06-15T12:33:40Z</time>
      </trkpt>
      <trkpt lat="45.89305" lon="5.76112">
        <ele>1411.64</ele>
        <time>2013-06-15T12:33:56Z</time>
      </trkpt>
      <trkpt lat="45.89323" lon="5.76108">
        <ele>1412.89</ele>
        <time>2013-06-15T12:34:13Z</time>
      </trkpt>
      <trkpt lat="45.89341" lon="5.76104">
        <ele>1416.27</ele>
        <time>2013-06-15T12:34:31Z</time>
      </trkpt>
      <trkpt lat="45.8936" lon="5.76106">
        <ele>1414.01</ele>
        <time>2013-06-15T12:34:47Z</time>
      </trkpt>
      <trkpt lat="45.89379" lon="5.7611">
        <ele>1416.23</ele>
        <time>2013-06-15T12:35:05Z</time>
      </trkpt>
      <trkpt lat="45.89398" lon="5.76115">
        <ele>1416.12</ele>
        <time>2013-06-15T12:35:20Z</time>
      </trkpt>
      <trkpt lat="45.89417" lon="5.76114">
        <ele>1416.45</ele>
        <time>2013-06-15T12:35:37Z</time>
      </trkpt>
      <trkpt lat="45.89435" lon="5.76113">
        <ele>1421.61</ele>
        <time>2013-06-15T12:35:55Z</time>
      </trkpt>
      <trkpt lat="45.89453" lon="5.76111">
        <ele>1418.34</ele>
        <time>2013-06-15T12:36:12Z</time>
      </trkpt>
      <trkpt lat="45.8947" lon="5.76103">
        <ele>1422.62</ele>
        <time>2013-06-15T12:36:37Z</time>
      </trkpt>
      <trkpt lat="45.89488" lon="5.76095">
        <ele>1425.99</ele>
        <time>2013-06-15T12:37:03Z</time>
      </trkpt>
      <trkpt lat="45.89505" lon="5.76083">
        <ele>1441.17</ele>
        <time>2013-06-15T12:38:26Z</time>
      </trkpt>
      <trkpt lat="45.89523" lon="5.76079">
        <ele>1444.51</ele>
        <time>2013-06-15T12:39:16Z</time>
      </trkpt>
      <trkpt lat="45.89541" lon="5.76082">
        <ele>1448.22</ele>
        <time>2013-06-15T12:39:59Z</time>
      </trkpt>
      <trkpt lat="45.89558" lon="5.76093">
        <ele>1447.04</ele>
        <time>2013-06-15T12:40:20Z</time>
      </trkpt>
      <trkpt lat="45.89577" lon="5.76092">
        <ele>1452.03</ele>
        <time>2013-06-15T12:41:07Z</time>
      </trkpt>
      <trkpt lat="45.89595" lon="5.76098">
        <ele>1452.83</ele>
        <time>2013-06-15T12:41:54Z</time>
      </trkpt>
      <trkpt lat="45.89614" lon="5.76099">
        <ele>1452.81</ele>
        <time>2013-06-15T12:43:09Z</time>
      </trkpt>
      <trkpt lat="45.89629" lon="5.76087">
        <ele>1467.81</ele>
        <time>2013-06-15T12:44:20Z</time>
      </trkpt>
      <trkpt lat="45.89647" lon="5.76087">
        <ele>1469.08</ele>
        <time>2013-06-15T12:44:48Z</time>
      </trkpt>
      <trkpt lat="45.89666" lon="5.76086">
        <ele>1472.12</ele>
        <time>2013-06-15T12:45:13Z</time>
      </trkpt>
      <trkpt lat="45.89683" lon="5.76095">
        <ele>1471.06</ele>
        <time>2013-06-15T12:45:34Z</time>
      </trkpt>
      <trkpt lat="45.89702" lon="5.761">
        <ele>1472.3</ele>
        <time>2013-06-15T12:45:54Z</time>
      </trkpt>
      <trkpt lat="45.8972" lon="5.76101">
        <ele>1478.49</ele>
        <time>2013-06-15T12:46:19Z</time>
      </trkpt>
      <trkpt lat="45.89739" lon="5.76096">
        <ele>1484.11</ele>
        <time>2013-06-15T12:47:03Z</time>
      </trkpt>
      <trkpt lat="45.89757" lon="5.76097">
        <ele>1488.63</ele>
        <time>2013-06-15T12:47:32Z</time>
      </trkpt>
      <trkpt lat="45.89775" lon="5.76103">
        <ele>1490.88</ele>
        <time>2013-06-15T12:48:08Z</time>
      </trkpt>
      <trkpt lat="45.8979" lon="5.76117">
        <ele>1494.21</ele>
        <time>2013-06-15T12:48:38Z</time>
      </trkpt>
      <trkpt lat="45.89807" lon="5.76129">
        <ele>1499.03</ele>
        <time>2013-06-15T12:49:06Z</time>
      </trkpt>
      <trkpt lat="45.89825" lon="5.76133">
        <ele>1508.7</ele>
        <time>2013-06-15T12:50:01Z</time>
      </trkpt>
      <trkpt lat="45.89842" lon="5.76126">
        <ele>1517.54</ele>
        <time>2013-06-15T12:54:19Z</time>
      </trkpt>
      <trkpt lat="45.89861" lon="5.76125">
        <ele>1523.12</ele>
        <time>2013-06-15T12:54:56Z</time>
      </trkpt>
      <trkpt lat="45.89879" lon="5.76124">
        <ele>1525.19</ele>
        <time>2013-06-15T12:55:19Z</time>
      </trkpt>
      <trkpt lat="45.89897" lon="5.76119">
        <ele>1523.28</ele>
        <time>2013-06-15T12:55:39Z</time>
      </trkpt>
      <trkpt lat="45.89914" lon="5.76109">
        <ele>1525.45</ele>
        <time>2013-06-15T12:56:01Z</time>
      </trkpt>
      <trkpt lat="45.8993" lon="5.76094">
        <ele>1528.47</ele>
        <time>2013-06-15T12:58:11Z</time>
      </trkpt>
      <trkpt lat="45.89946" lon="5.76106">
        <ele>1525.48</ele>
        <time>2013-06-15T12:58:27Z</time>
      </trkpt>
      <trkpt lat="45.89965" lon="5.76108">
        <ele>1523.17</ele>
        <time>2013-06-15T12:58:43Z</time>
      </trkpt>
      <trkpt lat="45.89984" lon="5.76108">
        <ele>1522.37</ele>
        <time>2013-06-15T12:58:57Z</time>
      </trkpt>
      <trkpt lat="45.90002" lon="5.76106">
        <ele>1522.98</ele>
        <time>2013-06-15T12:59:41Z</time>
      </trkpt>
      <trkpt lat="45.9002" lon="5.76101">
        <ele>1522.29</ele>
        <time>2013-06-15T12:59:56Z</time>
      </trkpt>
      <trkpt lat="45.90039" lon="5.76104">
        <ele>1525.91</ele>
        <time>2013-06-15T13:00:12Z</time>
      </trkpt>
      <trkpt lat="45.90058" lon="5.76107">
        <ele>1523.94</ele>
        <time>2013-06-15T13:00:27Z</time>
      </trkpt>
      <trkpt lat="45.90078" lon="5.76107">
        <ele>1526.23</ele>
        <time>2013-06-15T13:00:43Z</time>
      </trkpt>
      <trkpt lat="45.90096" lon="5.76112">
        <ele>1527.12</ele>
        <time>2013-06-15T13:00:58Z</time>
      </trkpt>
      <trkpt lat="45.90116" lon="5.76115">
        <ele>1527.97</ele>
        <time>2013-06-15T13:01:13Z</time>
      </trkpt>
      <trkpt lat="45.90134" lon="5.76115">
        <ele>1527.33</ele>
        <time>2013-06-15T13:01:29Z</time>
      </trkpt>
      <trkpt lat="45.90153" lon="5.7612">
        <ele>1528.13</ele>
        <time>2013-06-15T13:01:45Z</time>
      </trkpt>
      <trkpt lat="45.90169" lon="5.76109">
        <ele>1519.49</ele>
        <time>2013-06-15T13:02:08Z</time>
      </trkpt>
      <trkpt lat="45.90188" lon="5.7611">
        <ele>1515.79</ele>
        <time>2013-06-15T13:02:28Z</time>
      </trkpt>
      <trkpt lat="45.90206" lon="5.76119">
        <ele>1511.73</ele>
        <time>2013-06-15T13:02:44Z</time>
      </trkpt>
      <trkpt lat="45.90222" lon="5.76131">
        <ele>1506.55</ele>
        <time>2013-06-15T13:03:00Z</time>
      </trkpt>
      <trkpt lat="45.90239" lon="5.76141">
        <ele>1499.99</ele>
        <time>2013-06-15T13:03:14Z</time>
      </trkpt>
      <trkpt lat="45.90257" lon="5.76145">
        <ele>1501.41</ele>
        <time>2013-06-15T13:03:28Z</time>
      </trkpt>
      <trkpt lat="45.90276" lon="5.76149">
        <ele>1501.95</ele>
        <time>2013-06-15T13:03:44Z</time>
      </trkpt>
      <trkpt lat="45.90294" lon="5.76154">
        <ele>1503.09</ele>
        <time>2013-06-15T13:03:59Z</time>
      </trkpt>
      <trkpt lat="45.90309" lon="5.7617">
        <ele>1504.13</ele>
        <time>2013-06-15T13:04:14Z</time>
      </trkpt>
      <trkpt lat="45.90325" lon="5.76184">
        <ele>1500.83</ele>
        <time>2013-06-15T13:04:29Z</time>
      </trkpt>
      <trkpt lat="45.90341" lon="5.76199">
        <ele>1498.05</ele>
        <time>2013-06-15T13:04:53Z</time>
      </trkpt>
      <trkpt lat="45.90358" lon="5.76188">
        <ele>1497.82</ele>
        <time>2013-06-15T13:05:09Z</time>
      </trkpt>
      <trkpt lat="45.90377" lon="5.76184">
        <ele>1498.91</ele>
        <time>2013-06-15T13:05:29Z</time>
      </trkpt>
      <trkpt lat="45.90395" lon="5.7618">
        <ele>1499.48</ele>
        <time>2013-06-15T13:05:46Z</time>
      </trkpt>
      <trkpt lat="45.90413" lon="5.76172">
        <ele>1500.29</ele>
        <time>2013-06-15T13:06:02Z</time>
      </trkpt>
      <trkpt lat="45.90431" lon="5.76165">
        <ele>1501.86</ele>
        <time>2013-06-15T13:06:19Z</time>
      </trkpt>
      <trkpt lat="45.90449" lon="5.76161">
        <ele>1503.69</ele>
        <time>2013-06-15T13:06:34Z</time>
      </trkpt>
      <trkpt lat="45.90467" lon="5.76156">
        <ele>1506.42</ele>
        <time>2013-06-15T13:06:53Z</time>
      </trkpt>
      <trkpt lat="45.90484" lon="5.76148">
        <ele>1509.28</ele>
        <time>2013-06-15T13:07:12Z</time>
      </trkpt>
      <trkpt lat="45.90502" lon="5.76142">
        <ele>1509.56</ele>
        <time>2013-06-15T13:07:32Z</time>
      </trkpt>
      <trkpt lat="45.9052" lon="5.76137">
        <ele>1511.38</ele>
        <time>2013-06-15T13:07:52Z</time>
      </trkpt>
      <trkpt lat="45.90538" lon="5.76133">
        <ele>1512.87</ele>
        <time>2013-06-15T13:08:11Z</time>
      </trkpt>
      <trkpt lat="45.90555" lon="5.76139">
        <ele>1518.54</ele>
        <time>2013-06-15T13:08:31Z</time>
      </trkpt>
      <trkpt lat="45.90573" lon="5.7615">
        <ele>1518.12</ele>
        <time>2013-06-15T13:08:56Z</time>
      </trkpt>
      <trkpt lat="45.9059" lon="5.76155">
        <ele>1520.01</ele>
        <time>2013-06-15T13:09:22Z</time>
      </trkpt>
      <trkpt lat="45.90608" lon="5.76163">
        <ele>1521.59</ele>
        <time>2013-06-15T13:09:42Z</time>
      </trkpt>
      <trkpt lat="45.90627" lon="5.76166">
        <ele>1521.47</ele>
        <time>2013-06-15T13:10:11Z</time>
      </trkpt>
      <trkpt lat="45.90645" lon="5.76164">
        <ele>1524.18</ele>
        <time>2013-06-15T13:11:52Z</time>
      </trkpt>
      <trkpt lat="45.90664" lon="5.76164">
        <ele>1521.51</ele>
        <time>2013-06-15T13:12:09Z</time>
      </trkpt>
      <trkpt lat="45.90682" lon="5.76172">
        <ele>1523.85</ele>
        <time>2013-06-15T13:15:04Z</time>
      </trkpt>
      <trkpt lat="45.90699" lon="5.76181">
        <ele>1520.49</ele>
        <time>2013-06-15T13:16:05Z</time>
      </trkpt>
      <trkpt lat="45.90716" lon="5.76191">
        <ele>1517.03</ele>
        <time>2013-06-15T13:16:33Z</time>
      </trkpt>
      <trkpt lat="45.90732" lon="5.76204">
        <ele>1512.16</ele>
        <time>2013-06-15T13:16:50Z</time>
      </trkpt>
      <trkpt lat="45.90748" lon="5.76218">
        <ele>1506.6</ele>
        <time>2013-06-15T13:17:07Z</time>
      </trkpt>
      <trkpt lat="45.90766" lon="5.76227">
        <ele>1497.1</ele>
        <time>2013-06-15T13:17:26Z</time>
      </trkpt>
      <trkpt lat="45.90782" lon="5.7624">
        <ele>1492.19</ele>
        <time>2013-06-15T13:17:45Z</time>
      </trkpt>
      <trkpt lat="45.90799" lon="5.76249">
        <ele>1487.38</ele>
        <time>2013-06-15T13:18:08Z</time>
      </trkpt>
      <trkpt lat="45.90816" lon="5.76262">
        <ele>1482.65</ele>
        <time>2013-06-15T13:18:23Z</time>
      </trkpt>
      <trkpt lat="45.90834" lon="5.76269">
        <ele>1478.82</ele>
        <time>2013-06-15T13:18:39Z</time>
      </trkpt>
      <trkpt lat="45.90852" lon="5.7627">
        <ele>1478.18</ele>
        <time>2013-06-15T13:18:59Z</time>
      </trkpt>
      <trkpt lat="45.9087" lon="5.76272">
        <ele>1479.87</ele>
        <time>2013-06-15T13:19:18Z</time>
      </trkpt>
      <trkpt lat="45.90889" lon="5.76277">
        <ele>1482.65</ele>
        <time>2013-06-15T13:19:36Z</time>
      </trkpt>
      <trkpt lat="45.90908" lon="5.76279">
        <ele>1483.22</ele>
        <time>2013-06-15T13:19:53Z</time>
      </trkpt>
      <trkpt lat="45.90926" lon="5.76284">
        <ele>1488.92</ele>
        <time>2013-06-15T13:20:15Z</time>
      </trkpt>
      <trkpt lat="45.90944" lon="5.7629">
        <ele>1491.98</ele>
        <time>2013-06-15T13:20:37Z</time>
      </trkpt>
      <trkpt lat="45.90962" lon="5.763">
        <ele>1497.17</ele>
        <time>2013-06-15T13:21:01Z</time>
      </trkpt>
      <trkpt lat="45.90978" lon="5.76314">
        <ele>1494.24</ele>
        <time>2013-06-15T13:21:20Z</time>
      </trkpt>
      <trkpt lat="45.90991" lon="5.76334">
        <ele>1494.14</ele>
        <time>2013-06-15T13:21:40Z</time>
      </trkpt>
      <trkpt lat="45.91004" lon="5.76354">
        <ele>1492.52</ele>
        <time>2013-06-15T13:21:55Z</time>
      </trkpt>
      <trkpt lat="45.91017" lon="5.76373">
        <ele>1489.8</ele>
        <time>2013-06-15T13:22:11Z</time>
      </trkpt>
      <trkpt lat="45.91032" lon="5.7639">
        <ele>1491.01</ele>
        <time>2013-06-15T13:22:27Z</time>
      </trkpt>
      <trkpt lat="45.91048" lon="5.76403">
        <ele>1489.85</ele>
        <time>2013-06-15T13:22:58Z</time>
      </trkpt>
      <trkpt lat="45.91066" lon="5.76412">
        <ele>1494.48</ele>
        <time>2013-06-15T13:23:13Z</time>
      </trkpt>
      <trkpt lat="45.91082" lon="5.764">
        <ele>1493.31</ele>
        <time>2013-06-15T13:23:30Z</time>
      </trkpt>
      <trkpt lat="45.91093" lon="5.76379">
        <ele>1498.57</ele>
        <time>2013-06-15T13:23:45Z</time>
      </trkpt>
      <trkpt lat="45.91103" lon="5.76357">
        <ele>1495.93</ele>
        <time>2013-06-15T13:26:13Z</time>
      </trkpt>
      <trkpt lat="45.9112" lon="5.76352">
        <ele>1488.57</ele>
        <time>2013-06-15T13:26:40Z</time>
      </trkpt>
      <trkpt lat="45.91136" lon="5.76339">
        <ele>1478.14</ele>
        <time>2013-06-15T13:27:26Z</time>
      </trkpt>
      <trkpt lat="45.91153" lon="5.76349">
        <ele>1470.23</ele>
        <time>2013-06-15T13:27:46Z</time>
      </trkpt>
      <trkpt lat="45.91172" lon="5.76347">
        <ele>1460.99</ele>
        <time>2013-06-15T13:28:14Z</time>
      </trkpt>
      <trkpt lat="45.9119" lon="5.76353">
        <ele>1458.44</ele>
        <time>2013-06-15T13:28:33Z</time>
      </trkpt>
      <trkpt lat="45.91208" lon="5.76357">
        <ele>1452.52</ele>
        <time>2013-06-15T13:29:00Z</time>
      </trkpt>
      <trkpt lat="45.91226" lon="5.76359">
        <ele>1446.68</ele>
        <time>2013-06-15T13:29:22Z</time>
      </trkpt>
      <trkpt lat="45.91244" lon="5.76366">
        <ele>1440.98</ele>
        <time>2013-06-15T13:29:58Z</time>
      </trkpt>
      <trkpt lat="45.91261" lon="5.76378">
        <ele>1437.01</ele>
        <time>2013-06-15T13:30:21Z</time>
      </trkpt>
      <trkpt lat="45.91278" lon="5.76387">
        <ele>1432.5</ele>
        <time>2013-06-15T13:30:46Z</time>
      </trkpt>
      <trkpt lat="45.91295" lon="5.76398">
        <ele>1419.23</ele>
        <time>2013-06-15T13:31:47Z</time>
      </trkpt>
      <trkpt lat="45.91313" lon="5.76409">
        <ele>1410.25</ele>
        <time>2013-06-15T13:32:33Z</time>
      </trkpt>
      <trkpt lat="45.91326" lon="5.76426">
        <ele>1404.97</ele>
        <time>2013-06-15T13:33:06Z</time>
      </trkpt>
      <trkpt lat="45.9134" lon="5.76443">
        <ele>1400.71</ele>
        <time>2013-06-15T13:33:47Z</time>
      </trkpt>
      <trkpt lat="45.91357" lon="5.76455">
        <ele>1388.7</ele>
        <time>2013-06-15T13:34:11Z</time>
      </trkpt>
      <trkpt lat="45.91369" lon="5.76474">
        <ele>1394.03</ele>
        <time>2013-06-15T13:34:31Z</time>
      </trkpt>
      <trkpt lat="45.91387" lon="5.76487">
        <ele>1391.03</ele>
        <time>2013-06-15T13:34:44Z</time>
      </trkpt>
      <trkpt lat="45.91404" lon="5.76496">
        <ele>1384.49</ele>
        <time>2013-06-15T13:35:22Z</time>
      </trkpt>
      <trkpt lat="45.91417" lon="5.76515">
        <ele>1382.4</ele>
        <time>2013-06-15T13:35:37Z</time>
      </trkpt>
      <trkpt lat="45.91436" lon="5.76522">
        <ele>1382.92</ele>
        <time>2013-06-15T13:35:58Z</time>
      </trkpt>
      <trkpt lat="45.91451" lon="5.76538">
        <ele>1380.76</ele>
        <time>2013-06-15T13:36:14Z</time>
      </trkpt>
      <trkpt lat="45.91469" lon="5.76543">
        <ele>1383.69</ele>
        <time>2013-06-15T13:36:36Z</time>
      </trkpt>
      <trkpt lat="45.91487" lon="5.76551">
        <ele>1382.02</ele>
        <time>2013-06-15T13:36:49Z</time>
      </trkpt>
      <trkpt lat="45.91505" lon="5.76563">
        <ele>1376.03</ele>
        <time>2013-06-15T13:37:05Z</time>
      </trkpt>
      <trkpt lat="45.91521" lon="5.76578">
        <ele>1375.18</ele>
        <time>2013-06-15T13:37:15Z</time>
      </trkpt>
      <trkpt lat="45.91533" lon="5.766">
        <ele>1374.11</ele>
        <time>2013-06-15T13:37:30Z</time>
      </trkpt>
      <trkpt lat="45.91552" lon="5.76605">
        <ele>1369.98</ele>
        <time>2013-06-15T13:37:48Z</time>
      </trkpt>
      <trkpt lat="45.91569" lon="5.7661">
        <ele>1370.61</ele>
        <time>2013-06-15T13:38:00Z</time>
      </trkpt>
      <trkpt lat="45.91586" lon="5.76621">
        <ele>1365.4</ele>
        <time>2013-06-15T13:38:15Z</time>
      </trkpt>
      <trkpt lat="45.91604" lon="5.76621">
        <ele>1360.35</ele>
        <time>2013-06-15T13:38:34Z</time>
      </trkpt>
      <trkpt lat="45.91619" lon="5.76637">
        <ele>1360.41</ele>
        <time>2013-06-15T13:38:52Z</time>
      </trkpt>
      <trkpt lat="45.91636" lon="5.76647">
        <ele>1354.15</ele>
        <time>2013-06-15T13:39:09Z</time>
      </trkpt>
      <trkpt lat="45.91651" lon="5.7666">
        <ele>1351.24</ele>
        <time>2013-06-15T13:39:26Z</time>
      </trkpt>
      <trkpt lat="45.91669" lon="5.76667">
        <ele>1345.61</ele>
        <time>2013-06-15T13:39:40Z</time>
      </trkpt>
      <trkpt lat="45.91685" lon="5.76678">
        <ele>1345.56</ele>
        <time>2013-06-15T13:39:51Z</time>
      </trkpt>
      <trkpt lat="45.91701" lon="5.76691">
        <ele>1333.58</ele>
        <time>2013-06-15T13:40:06Z</time>
      </trkpt>
      <trkpt lat="45.91717" lon="5.76707">
        <ele>1328.9</ele>
        <time>2013-06-15T13:40:23Z</time>
      </trkpt>
      <trkpt lat="45.91737" lon="5.7671">
        <ele>1326.14</ele>
        <time>2013-06-15T13:40:36Z</time>
      </trkpt>
      <trkpt lat="45.91753" lon="5.76724">
        <ele>1317.7</ele>
        <time>2013-06-15T13:40:58Z</time>
      </trkpt>
      <trkpt lat="45.91772" lon="5.76722">
        <ele>1313.28</ele>
        <time>2013-06-15T13:41:18Z</time>
      </trkpt>
      <trkpt lat="45.9179" lon="5.76722">
        <ele>1316.03</ele>
        <time>2013-06-15T13:41:30Z</time>
      </trkpt>
      <trkpt lat="45.91809" lon="5.76714">
        <ele>1314.57</ele>
        <time>2013-06-15T13:41:43Z</time>
      </trkpt>
      <trkpt lat="45.91805" lon="5.76715">
        <ele>1318.81</ele>
        <time>2013-06-15T13:47:56Z</time>
      </trkpt>
      <trkpt lat="45.91823" lon="5.76711">
        <ele>1313.52</ele>
        <time>2013-06-15T13:55:30Z</time>
      </trkpt>
      <trkpt lat="45.91841" lon="5.76712">
        <ele>1316.77</ele>
        <time>2013-06-15T13:56:04Z</time>
      </trkpt>
      <trkpt lat="45.91859" lon="5.76704">
        <ele>1322.2</ele>
        <time>2013-06-15T13:56:28Z</time>
      </trkpt>
      <trkpt lat="45.91877" lon="5.76701">
        <ele>1319.11</ele>
        <time>2013-06-15T13:56:46Z</time>
      </trkpt>
      <trkpt lat="45.91895" lon="5.76699">
        <ele>1324.21</ele>
        <time>2013-06-15T13:57:10Z</time>
      </trkpt>
      <trkpt lat="45.91913" lon="5.76696">
        <ele>1328</ele>
        <time>2013-06-15T13:57:31Z</time>
      </trkpt>
      <trkpt lat="45.91931" lon="5.76703">
        <ele>1332.07</ele>
        <time>2013-06-15T13:58:05Z</time>
      </trkpt>
      <trkpt lat="45.91949" lon="5.76698">
        <ele>1330.94</ele>
        <time>2013-06-15T13:58:29Z</time>
      </trkpt>
      <trkpt lat="45.91967" lon="5.76705">
        <ele>1341.67</ele>
        <time>2013-06-15T13:58:58Z</time>
      </trkpt>
      <trkpt lat="45.91985" lon="5.76702">
        <ele>1347.75</ele>
        <time>2013-06-15T13:59:26Z</time>
      </trkpt>
      <trkpt lat="45.92003" lon="5.76703">
        <ele>1345.45</ele>
        <time>2013-06-15T14:00:03Z</time>
      </trkpt>
      <trkpt lat="45.92021" lon="5.76706">
        <ele>1357.77</ele>
        <time>2013-06-15T14:00:37Z</time>
      </trkpt>
      <trkpt lat="45.92039" lon="5.76715">
        <ele>1354.18</ele>
        <time>2013-06-15T14:01:29Z</time>
      </trkpt>
      <trkpt lat="45.92057" lon="5.76714">
        <ele>1358.2</ele>
        <time>2013-06-15T14:01:49Z</time>
      </trkpt>
      <trkpt lat="45.92075" lon="5.76706">
        <ele>1356.44</ele>
        <time>2013-06-15T14:03:36Z</time>
      </trkpt>
      <trkpt lat="45.92093" lon="5.76709">
        <ele>1361.88</ele>
        <time>2013-06-15T14:03:56Z</time>
      </trkpt>
      <trkpt lat="45.9211" lon="5.76714">
        <ele>1361.24</ele>
        <time>2013-06-15T14:04:24Z</time>
      </trkpt>
      <trkpt lat="45.92127" lon="5.76723">
        <ele>1361.2</ele>
        <time>2013-06-15T14:04:45Z</time>
      </trkpt>
      <trkpt lat="45.92145" lon="5.76732">
        <ele>1366.23</ele>
        <time>2013-06-15T14:05:04Z</time>
      </trkpt>
      <trkpt lat="45.92164" lon="5.76736">
        <ele>1367.68</ele>
        <time>2013-06-15T14:05:25Z</time>
      </trkpt>
      <trkpt lat="45.92181" lon="5.76741">
        <ele>1362.77</ele>
        <time>2013-06-15T14:05:53Z</time>
      </trkpt>
      <trkpt lat="45.92199" lon="5.76745">
        <ele>1369.36</ele>
        <time>2013-06-15T14:06:12Z</time>
      </trkpt>
      <trkpt lat="45.92218" lon="5.76748">
        <ele>1368.56</ele>
        <time>2013-06-15T14:06:35Z</time>
      </trkpt>
      <trkpt lat="45.92237" lon="5.76751">
        <ele>1366.05</ele>
        <time>2013-06-15T14:06:52Z</time>
      </trkpt>
      <trkpt lat="45.92255" lon="5.76755">
        <ele>1363.09</ele>
        <time>2013-06-15T14:07:07Z</time>
      </trkpt>
      <trkpt lat="45.92274" lon="5.76757">
        <ele>1361.48</ele>
        <time>2013-06-15T14:07:22Z</time>
      </trkpt>
      <trkpt lat="45.92292" lon="5.76753">
        <ele>1357.89</ele>
        <time>2013-06-15T14:08:19Z</time>
      </trkpt>
      <trkpt lat="45.9231" lon="5.76746">
        <ele>1356.63</ele>
        <time>2013-06-15T14:08:32Z</time>
      </trkpt>
      <trkpt lat="45.92328" lon="5.76749">
        <ele>1355.96</ele>
        <time>2013-06-15T14:08:46Z</time>
      </trkpt>
      <trkpt lat="45.92347" lon="5.76747">
        <ele>1355.78</ele>
        <time>2013-06-15T14:09:01Z</time>
      </trkpt>
      <trkpt lat="45.92365" lon="5.76744">
        <ele>1359.12</ele>
        <time>2013-06-15T14:09:18Z</time>
      </trkpt>
      <trkpt lat="45.92383" lon="5.76738">
        <ele>1366.39</ele>
        <time>2013-06-15T14:09:42Z</time>
      </trkpt>
      <trkpt lat="45.92396" lon="5.76756">
        <ele>1369.01</ele>
        <time>2013-06-15T14:10:07Z</time>
      </trkpt>
      <trkpt lat="45.92414" lon="5.7676">
        <ele>1372.59</ele>
        <time>2013-06-15T14:10:31Z</time>
      </trkpt>
      <trkpt lat="45.92431" lon="5.76768">
        <ele>1375.1</ele>
        <time>2013-06-15T14:10:51Z</time>
      </trkpt>
      <trkpt lat="45.9245" lon="5.76775">
        <ele>1382.13</ele>
        <time>2013-06-15T14:11:15Z</time>
      </trkpt>
      <trkpt lat="45.92465" lon="5.76791">
        <ele>1384.74</ele>
        <time>2013-06-15T14:11:38Z</time>
      </trkpt>
      <trkpt lat="45.92483" lon="5.76797">
        <ele>1389.14</ele>
        <time>2013-06-15T14:12:03Z</time>
      </trkpt>
      <trkpt lat="45.92499" lon="5.76811">
        <ele>1395.1</ele>
        <time>2013-06-15T14:12:50Z</time>
      </trkpt>
      <trkpt lat="45.92516" lon="5.76819">
        <ele>1395.74</ele>
        <time>2013-06-15T14:13:10Z</time>
      </trkpt>
      <trkpt lat="45.92533" lon="5.76828">
        <ele>1401.81</ele>
        <time>2013-06-15T14:13:41Z</time>
      </trkpt>
      <trkpt lat="45.92552" lon="5.76835">
        <ele>1403.04</ele>
        <time>2013-06-15T14:14:02Z</time>
      </trkpt>
      <trkpt lat="45.9257" lon="5.76841">
        <ele>1407.08</ele>
        <time>2013-06-15T14:14:25Z</time>
      </trkpt>
      <trkpt lat="45.92587" lon="5.76851">
        <ele>1407.08</ele>
        <time>2013-06-15T14:14:49Z</time>
      </trkpt>
      <trkpt lat="45.92604" lon="5.76858">
        <ele>1411.16</ele>
        <time>2013-06-15T14:15:17Z</time>
      </trkpt>
      <trkpt lat="45.92623" lon="5.76863">
        <ele>1414.05</ele>
        <time>2013-06-15T14:15:36Z</time>
      </trkpt>
      <trkpt lat="45.92641" lon="5.76868">
        <ele>1414.07</ele>
        <time>2013-06-15T14:15:56Z</time>
      </trkpt>
      <trkpt lat="45.92659" lon="5.76874">
        <ele>1417.19</ele>
        <time>2013-06-15T14:16:13Z</time>
      </trkpt>
      <trkpt lat="45.92677" lon="5.76873">
        <ele>1417.23</ele>
        <time>2013-06-15T14:17:11Z</time>
      </trkpt>
      <trkpt lat="45.92696" lon="5.76877">
        <ele>1419.55</ele>
        <time>2013-06-15T14:17:40Z</time>
      </trkpt>
      <trkpt lat="45.92714" lon="5.7687">
        <ele>1423.47</ele>
        <time>2013-06-15T14:17:57Z</time>
      </trkpt>
      <trkpt lat="45.92733" lon="5.76871">
        <ele>1419.92</ele>
        <time>2013-06-15T14:18:11Z</time>
      </trkpt>
      <trkpt lat="45.92751" lon="5.76866">
        <ele>1419.39</ele>
        <time>2013-06-15T14:18:35Z</time>
      </trkpt>
      <trkpt lat="45.9277" lon="5.76864">
        <ele>1422.04</ele>
        <time>2013-06-15T14:18:48Z</time>
      </trkpt>
      <trkpt lat="45.92788" lon="5.7686">
        <ele>1430.98</ele>
        <time>2013-06-15T14:19:18Z</time>
      </trkpt>
      <trkpt lat="45.92807" lon="5.76859">
        <ele>1423.29</ele>
        <time>2013-06-15T14:20:36Z</time>
      </trkpt>
      <trkpt lat="45.92825" lon="5.76858">
        <ele>1422.4</ele>
        <time>2013-06-15T14:20:53Z</time>
      </trkpt>
      <trkpt lat="45.92844" lon="5.76855">
        <ele>1422.58</ele>
        <time>2013-06-15T14:21:09Z</time>
      </trkpt>
      <trkpt lat="45.92862" lon="5.76852">
        <ele>1420.73</ele>
        <time>2013-06-15T14:21:24Z</time>
      </trkpt>
      <trkpt lat="45.9288" lon="5.76852">
        <ele>1419.77</ele>
        <time>2013-06-15T14:21:37Z</time>
      </trkpt>
      <trkpt lat="45.92898" lon="5.76857">
        <ele>1419.85</ele>
        <time>2013-06-15T14:21:52Z</time>
      </trkpt>
      <trkpt lat="45.92917" lon="5.7686">
        <ele>1414.46</ele>
        <time>2013-06-15T14:22:13Z</time>
      </trkpt>
      <trkpt lat="45.92935" lon="5.76863">
        <ele>1410.06</ele>
        <time>2013-06-15T14:22:26Z</time>
      </trkpt>
      <trkpt lat="45.92954" lon="5.76856">
        <ele>1399.05</ele>
        <time>2013-06-15T14:22:54Z</time>
      </trkpt>
      <trkpt lat="45.92972" lon="5.76855">
        <ele>1396.02</ele>
        <time>2013-06-15T14:23:06Z</time>
      </trkpt>
      <trkpt lat="45.9299" lon="5.76863">
        <ele>1394.21</ele>
        <time>2013-06-15T14:23:46Z</time>
      </trkpt>
      <trkpt lat="45.93008" lon="5.76871">
        <ele>1387.18</ele>
        <time>2013-06-15T14:23:59Z</time>
      </trkpt>
      <trkpt lat="45.93027" lon="5.76867">
        <ele>1381.43</ele>
        <time>2013-06-15T14:24:11Z</time>
      </trkpt>
      <trkpt lat="45.93045" lon="5.76861">
        <ele>1382.02</ele>
        <time>2013-06-15T14:24:23Z</time>
      </trkpt>
      <trkpt lat="45.93064" lon="5.76862">
        <ele>1382.51</ele>
        <time>2013-06-15T14:24:40Z</time>
      </trkpt>
      <trkpt lat="45.93083" lon="5.76857">
        <ele>1383.3</ele>
        <time>2013-06-15T14:24:59Z</time>
      </trkpt>
      <trkpt lat="45.93101" lon="5.76854">
        <ele>1388.95</ele>
        <time>2013-06-15T14:25:17Z</time>
      </trkpt>
      <trkpt lat="45.9312" lon="5.76853">
        <ele>1390.03</ele>
        <time>2013-06-15T14:25:35Z</time>
      </trkpt>
      <trkpt lat="45.93138" lon="5.76845">
        <ele>1391.33</ele>
        <time>2013-06-15T14:25:55Z</time>
      </trkpt>
      <trkpt lat="45.93155" lon="5.76838">
        <ele>1394.98</ele>
        <time>2013-06-15T14:26:14Z</time>
      </trkpt>
      <trkpt lat="45.93173" lon="5.76828">
        <ele>1396.98</ele>
        <time>2013-06-15T14:26:35Z</time>
      </trkpt>
      <trkpt lat="45.93191" lon="5.76831">
        <ele>1400.4</ele>
        <time>2013-06-15T14:27:00Z</time>
      </trkpt>
      <trkpt lat="45.93211" lon="5.76833">
        <ele>1403.36</ele>
        <time>2013-06-15T14:27:27Z</time>
      </trkpt>
      <trkpt lat="45.9323" lon="5.76836">
        <ele>1407.3</ele>
        <time>2013-06-15T14:27:55Z</time>
      </trkpt>
      <trkpt lat="45.93248" lon="5.7683">
        <ele>1406.6</ele>
        <time>2013-06-15T14:28:11Z</time>
      </trkpt>
      <trkpt lat="45.93263" lon="5.76814">
        <ele>1407.25</ele>
        <time>2013-06-15T14:28:29Z</time>
      </trkpt>
      <trkpt lat="45.93281" lon="5.76811">
        <ele>1413.7</ele>
        <time>2013-06-15T14:28:47Z</time>
      </trkpt>
      <trkpt lat="45.93298" lon="5.76801">
        <ele>1414.63</ele>
        <time>2013-06-15T14:29:04Z</time>
      </trkpt>
      <trkpt lat="45.93316" lon="5.76793">
        <ele>1415.5</ele>
        <time>2013-06-15T14:29:17Z</time>
      </trkpt>
      <trkpt lat="45.93335" lon="5.76786">
        <ele>1412.16</ele>
        <time>2013-06-15T14:29:38Z</time>
      </trkpt>
      <trkpt lat="45.93353" lon="5.76776">
        <ele>1409.25</ele>
        <time>2013-06-15T14:29:53Z</time>
      </trkpt>
      <trkpt lat="45.93369" lon="5.76763">
        <ele>1407.43</ele>
        <time>2013-06-15T14:30:07Z</time>
      </trkpt>
      <trkpt lat="45.93386" lon="5.76751">
        <ele>1407.98</ele>
        <time>2013-06-15T14:30:23Z</time>
      </trkpt>
      <trkpt lat="45.93404" lon="5.76748">
        <ele>1408.31</ele>
        <time>2013-06-15T14:30:36Z</time>
      </trkpt>
      <trkpt lat="45.93419" lon="5.76733">
        <ele>1410.67</ele>
        <time>2013-06-15T14:30:54Z</time>
      </trkpt>
      <trkpt lat="45.93432" lon="5.76716">
        <ele>1402.93</ele>
        <time>2013-06-15T14:31:11Z</time>
      </trkpt>
      <trkpt lat="45.93449" lon="5.76704">
        <ele>1399.89</ele>
        <time>2013-06-15T14:31:26Z</time>
      </trkpt>
      <trkpt lat="45.93467" lon="5.76695">
        <ele>1391.96</ele>
        <time>2013-06-15T14:31:45Z</time>
      </trkpt>
      <trkpt lat="45.93486" lon="5.76691">
        <ele>1389.33</ele>
        <time>2013-06-15T14:32:00Z</time>
      </trkpt>
      <trkpt lat="45.93502" lon="5.76678">
        <ele>1385.86</ele>
        <time>2013-06-15T14:32:16Z</time>
      </trkpt>
      <trkpt lat="45.93519" lon="5.76669">
        <ele>1381.53</ele>
        <time>2013-06-15T14:32:32Z</time>
      </trkpt>
      <trkpt lat="45.93534" lon="5.76654">
        <ele>1376.92</ele>
        <time>2013-06-15T14:32:47Z</time>
      </trkpt>
      <trkpt lat="45.93549" lon="5.76639">
        <ele>1375.72</ele>
        <time>2013-06-15T14:33:06Z</time>
      </trkpt>
      <trkpt lat="45.93565" lon="5.76627">
        <ele>1370.37</ele>
        <time>2013-06-15T14:33:23Z</time>
      </trkpt>
      <trkpt lat="45.93584" lon="5.76623">
        <ele>1363.14</ele>
        <time>2013-06-15T14:33:40Z</time>
      </trkpt>
      <trkpt lat="45.93602" lon="5.76625">
        <ele>1367.85</ele>
        <time>2013-06-15T14:34:04Z</time>
      </trkpt>
      <trkpt lat="45.93621" lon="5.76625">
        <ele>1366.53</ele>
        <time>2013-06-15T14:34:15Z</time>
      </trkpt>
      <trkpt lat="45.9364" lon="5.76625">
        <ele>1370.18</ele>
        <time>2013-06-15T14:34:30Z</time>
      </trkpt>
      <trkpt lat="45.93658" lon="5.76624">
        <ele>1363.53</ele>
        <time>2013-06-15T14:34:45Z</time>
      </trkpt>
      <trkpt lat="45.93675" lon="5.76617">
        <ele>1362.42</ele>
        <time>2013-06-15T14:35:01Z</time>
      </trkpt>
      <trkpt lat="45.93693" lon="5.76611">
        <ele>1366.46</ele>
        <time>2013-06-15T14:35:20Z</time>
      </trkpt>
      <trkpt lat="45.93711" lon="5.76606">
        <ele>1366.63</ele>
        <time>2013-06-15T14:35:35Z</time>
      </trkpt>
      <trkpt lat="45.93729" lon="5.76602">
        <ele>1363.93</ele>
        <time>2013-06-15T14:35:48Z</time>
      </trkpt>
      <trkpt lat="45.93749" lon="5.76598">
        <ele>1366.45</ele>
        <time>2013-06-15T14:36:01Z</time>
      </trkpt>
      <trkpt lat="45.93767" lon="5.76591">
        <ele>1369.03</ele>
        <time>2013-06-15T14:36:19Z</time>
      </trkpt>
      <trkpt lat="45.93785" lon="5.76586">
        <ele>1369.35</ele>
        <time>2013-06-15T14:36:35Z</time>
      </trkpt>
      <trkpt lat="45.93804" lon="5.76583">
        <ele>1367.67</ele>
        <time>2013-06-15T14:36:49Z</time>
      </trkpt>
      <trkpt lat="45.93822" lon="5.76575">
        <ele>1363.57</ele>
        <time>2013-06-15T14:37:03Z</time>
      </trkpt>
      <trkpt lat="45.9384" lon="5.76569">
        <ele>1364.33</ele>
        <time>2013-06-15T14:37:16Z</time>
      </trkpt>
      <trkpt lat="45.93858" lon="5.7656">
        <ele>1363.09</ele>
        <time>2013-06-15T14:37:32Z</time>
      </trkpt>
      <trkpt lat="45.93876" lon="5.76555">
        <ele>1364</ele>
        <time>2013-06-15T14:37:47Z</time>
      </trkpt>
      <trkpt lat="45.93894" lon="5.7655">
        <ele>1364.64</ele>
        <time>2013-06-15T14:38:06Z</time>
      </trkpt>
      <trkpt lat="45.93912" lon="5.76546">
        <ele>1363.89</ele>
        <time>2013-06-15T14:38:26Z</time>
      </trkpt>
      <trkpt lat="45.9393" lon="5.76538">
        <ele>1363.24</ele>
        <time>2013-06-15T14:38:39Z</time>
      </trkpt>
      <trkpt lat="45.93948" lon="5.76537">
        <ele>1359.54</ele>
        <time>2013-06-15T14:38:52Z</time>
      </trkpt>
      <trkpt lat="45.93966" lon="5.76533">
        <ele>1357.6</ele>
        <time>2013-06-15T14:39:04Z</time>
      </trkpt>
      <trkpt lat="45.93983" lon="5.76522">
        <ele>1356.8</ele>
        <time>2013-06-15T14:39:17Z</time>
      </trkpt>
      <trkpt lat="45.94001" lon="5.76515">
        <ele>1352.01</ele>
        <time>2013-06-15T14:39:30Z</time>
      </trkpt>
      <trkpt lat="45.9402" lon="5.76511">
        <ele>1353.65</ele>
        <time>2013-06-15T14:39:45Z</time>
      </trkpt>
      <trkpt lat="45.94039" lon="5.76508">
        <ele>1350.78</ele>
        <time>2013-06-15T14:39:57Z</time>
      </trkpt>
      <trkpt lat="45.94057" lon="5.76505">
        <ele>1352.34</ele>
        <time>2013-06-15T14:40:11Z</time>
      </trkpt>
      <trkpt lat="45.94075" lon="5.76496">
        <ele>1351.44</ele>
        <time>2013-06-15T14:40:26Z</time>
      </trkpt>
      <trkpt lat="45.94093" lon="5.76487">
        <ele>1342.8</ele>
        <time>2013-06-15T14:40:41Z</time>
      </trkpt>
      <trkpt lat="45.94109" lon="5.76474">
        <ele>1341.56</ele>
        <time>2013-06-15T14:40:57Z</time>
      </trkpt>
      <trkpt lat="45.94127" lon="5.76464">
        <ele>1341.57</ele>
        <time>2013-06-15T14:41:12Z</time>
      </trkpt>
      <trkpt lat="45.94144" lon="5.76454">
        <ele>1341.08</ele>
        <time>2013-06-15T14:41:26Z</time>
      </trkpt>
      <trkpt lat="45.94162" lon="5.76445">
        <ele>1344.18</ele>
        <time>2013-06-15T14:41:41Z</time>
      </trkpt>
      <trkpt lat="45.94181" lon="5.76443">
        <ele>1341.42</ele>
        <time>2013-06-15T14:42:02Z</time>
      </trkpt>
      <trkpt lat="45.94199" lon="5.76436">
        <ele>1351.33</ele>
        <time>2013-06-15T14:42:26Z</time>
      </trkpt>
      <trkpt lat="45.94218" lon="5.76432">
        <ele>1347.85</ele>
        <time>2013-06-15T14:42:41Z</time>
      </trkpt>
      <trkpt lat="45.94235" lon="5.76423">
        <ele>1348.43</ele>
        <time>2013-06-15T14:42:56Z</time>
      </trkpt>
      <trkpt lat="45.94253" lon="5.76416">
        <ele>1347.54</ele>
        <time>2013-06-15T14:43:10Z</time>
      </trkpt>
      <trkpt lat="45.94271" lon="5.76411">
        <ele>1349.22</ele>
        <time>2013-06-15T14:43:27Z</time>
      </trkpt>
      <trkpt lat="45.94288" lon="5.764">
        <ele>1348.42</ele>
        <time>2013-06-15T14:43:41Z</time>
      </trkpt>
      <trkpt lat="45.94306" lon="5.76393">
        <ele>1350.59</ele>
        <time>2013-06-15T14:43:56Z</time>
      </trkpt>
      <trkpt lat="45.9432" lon="5.76377">
        <ele>1349.74</ele>
        <time>2013-06-15T14:44:15Z</time>
      </trkpt>
      <trkpt lat="45.94338" lon="5.76369">
        <ele>1356.94</ele>
        <time>2013-06-15T14:44:39Z</time>
      </trkpt>
      <trkpt lat="45.94356" lon="5.76363">
        <ele>1353.16</ele>
        <time>2013-06-15T14:44:54Z</time>
      </trkpt>
      <trkpt lat="45.94375" lon="5.76364">
        <ele>1352.4</ele>
        <time>2013-06-15T14:45:10Z</time>
      </trkpt>
      <trkpt lat="45.94394" lon="5.76364">
        <ele>1354.86</ele>
        <time>2013-06-15T14:45:25Z</time>
      </trkpt>
      <trkpt lat="45.94412" lon="5.76359">
        <ele>1360.12</ele>
        <time>2013-06-15T14:45:41Z</time>
      </trkpt>
      <trkpt lat="45.94429" lon="5.76352">
        <ele>1357.62</ele>
        <time>2013-06-15T14:46:00Z</time>
      </trkpt>
      <trkpt lat="45.94447" lon="5.76349">
        <ele>1356.29</ele>
        <time>2013-06-15T14:46:14Z</time>
      </trkpt>
      <trkpt lat="45.94465" lon="5.76342">
        <ele>1354.59</ele>
        <time>2013-06-15T14:46:25Z</time>
      </trkpt>
      <trkpt lat="45.94484" lon="5.76339">
        <ele>1354.08</ele>
        <time>2013-06-15T14:46:36Z</time>
      </trkpt>
      <trkpt lat="45.94501" lon="5.76329">
        <ele>1348.27</ele>
        <time>2013-06-15T14:46:51Z</time>
      </trkpt>
      <trkpt lat="45.94518" lon="5.76317">
        <ele>1348.11</ele>
        <time>2013-06-15T14:47:06Z</time>
      </trkpt>
      <trkpt lat="45.94535" lon="5.76306">
        <ele>1345.41</ele>
        <time>2013-06-15T14:47:20Z</time>
      </trkpt>
      <trkpt lat="45.9455" lon="5.7629">
        <ele>1341.12</ele>
        <time>2013-06-15T14:47:35Z</time>
      </trkpt>
      <trkpt lat="45.94566" lon="5.76278">
        <ele>1345.51</ele>
        <time>2013-06-15T14:47:52Z</time>
      </trkpt>
      <trkpt lat="45.94583" lon="5.76269">
        <ele>1348.61</ele>
        <time>2013-06-15T14:48:22Z</time>
      </trkpt>
      <trkpt lat="45.94602" lon="5.76264">
        <ele>1348.72</ele>
        <time>2013-06-15T14:48:43Z</time>
      </trkpt>
      <trkpt lat="45.9462" lon="5.76259">
        <ele>1339.63</ele>
        <time>2013-06-15T14:48:57Z</time>
      </trkpt>
      <trkpt lat="45.94638" lon="5.76254">
        <ele>1335.42</ele>
        <time>2013-06-15T14:49:12Z</time>
      </trkpt>
      <trkpt lat="45.94655" lon="5.76244">
        <ele>1330.2</ele>
        <time>2013-06-15T14:49:28Z</time>
      </trkpt>
      <trkpt lat="45.94671" lon="5.76232">
        <ele>1332.78</ele>
        <time>2013-06-15T14:49:40Z</time>
      </trkpt>
      <trkpt lat="45.94689" lon="5.76222">
        <ele>1325.83</ele>
        <time>2013-06-15T14:50:02Z</time>
      </trkpt>
      <trkpt lat="45.94703" lon="5.76203">
        <ele>1324.17</ele>
        <time>2013-06-15T14:50:15Z</time>
      </trkpt>
      <trkpt lat="45.94714" lon="5.7618">
        <ele>1321.3</ele>
        <time>2013-06-15T14:50:30Z</time>
      </trkpt>
      <trkpt lat="45.94726" lon="5.76161">
        <ele>1319.95</ele>
        <time>2013-06-15T14:50:45Z</time>
      </trkpt>
      <trkpt lat="45.94743" lon="5.76149">
        <ele>1326.32</ele>
        <time>2013-06-15T14:51:00Z</time>
      </trkpt>
      <trkpt lat="45.94749" lon="5.76123">
        <ele>1327.71</ele>
        <time>2013-06-15T14:51:27Z</time>
      </trkpt>
      <trkpt lat="45.94758" lon="5.76099">
        <ele>1319.87</ele>
        <time>2013-06-15T14:51:51Z</time>
      </trkpt>
      <trkpt lat="45.94776" lon="5.76092">
        <ele>1322.7</ele>
        <time>2013-06-15T14:52:05Z</time>
      </trkpt>
      <trkpt lat="45.94791" lon="5.76077">
        <ele>1319.03</ele>
        <time>2013-06-15T14:52:21Z</time>
      </trkpt>
      <trkpt lat="45.94781" lon="5.76054">
        <ele>1315.04</ele>
        <time>2013-06-15T14:52:35Z</time>
      </trkpt>
      <trkpt lat="45.94795" lon="5.76037">
        <ele>1312.06</ele>
        <time>2013-06-15T14:53:29Z</time>
      </trkpt>
      <trkpt lat="45.94811" lon="5.76023">
        <ele>1311.15</ele>
        <time>2013-06-15T14:53:49Z</time>
      </trkpt>
      <trkpt lat="45.94829" lon="5.76014">
        <ele>1309.01</ele>
        <time>2013-06-15T14:54:08Z</time>
      </trkpt>
      <trkpt lat="45.94846" lon="5.76005">
        <ele>1300</ele>
        <time>2013-06-15T14:54:23Z</time>
      </trkpt>
      <trkpt lat="45.94862" lon="5.75992">
        <ele>1296.82</ele>
        <time>2013-06-15T14:54:37Z</time>
      </trkpt>
      <trkpt lat="45.94876" lon="5.75976">
        <ele>1292.63</ele>
        <time>2013-06-15T14:54:54Z</time>
      </trkpt>
      <trkpt lat="45.94892" lon="5.7596">
        <ele>1277.51</ele>
        <time>2013-06-15T14:55:10Z</time>
      </trkpt>
      <trkpt lat="45.94909" lon="5.75952">
        <ele>1271.77</ele>
        <time>2013-06-15T14:55:22Z</time>
      </trkpt>
      <trkpt lat="45.94925" lon="5.75936">
        <ele>1274.41</ele>
        <time>2013-06-15T14:55:35Z</time>
      </trkpt>
      <trkpt lat="45.94936" lon="5.75916">
        <ele>1268.96</ele>
        <time>2013-06-15T14:55:50Z</time>
      </trkpt>
      <trkpt lat="45.94945" lon="5.75893">
        <ele>1263.15</ele>
        <time>2013-06-15T14:56:07Z</time>
      </trkpt>
      <trkpt lat="45.94959" lon="5.75873">
        <ele>1287.94</ele>
        <time>2013-06-15T14:56:15Z</time>
      </trkpt>
      <trkpt lat="45.94974" lon="5.75857">
        <ele>1282.4</ele>
        <time>2013-06-15T14:56:34Z</time>
      </trkpt>
      <trkpt lat="45.94988" lon="5.75841">
        <ele>1271.73</ele>
        <time>2013-06-15T14:56:50Z</time>
      </trkpt>
      <trkpt lat="45.95005" lon="5.75833">
        <ele>1255.94</ele>
        <time>2013-06-15T14:57:13Z</time>
      </trkpt>
      <trkpt lat="45.95024" lon="5.75829">
        <ele>1255.17</ele>
        <time>2013-06-15T14:57:26Z</time>
      </trkpt>
      <trkpt lat="45.95042" lon="5.75822">
        <ele>1255.05</ele>
        <time>2013-06-15T14:57:40Z</time>
      </trkpt>
      <trkpt lat="45.95059" lon="5.75817">
        <ele>1247.18</ele>
        <time>2013-06-15T14:57:52Z</time>
      </trkpt>
      <trkpt lat="45.95076" lon="5.75804">
        <ele>1243.43</ele>
        <time>2013-06-15T14:58:07Z</time>
      </trkpt>
      <trkpt lat="45.95093" lon="5.75793">
        <ele>1243.74</ele>
        <time>2013-06-15T14:58:20Z</time>
      </trkpt>
      <trkpt lat="45.95111" lon="5.75784">
        <ele>1246.64</ele>
        <time>2013-06-15T14:58:33Z</time>
      </trkpt>
      <trkpt lat="45.95124" lon="5.75763">
        <ele>1241.18</ele>
        <time>2013-06-15T14:58:50Z</time>
      </trkpt>
      <trkpt lat="45.9513" lon="5.75737">
        <ele>1239.79</ele>
        <time>2013-06-15T14:59:05Z</time>
      </trkpt>
      <trkpt lat="45.95132" lon="5.75712">
        <ele>1237.75</ele>
        <time>2013-06-15T14:59:20Z</time>
      </trkpt>
      <trkpt lat="45.9512" lon="5.75692">
        <ele>1235.74</ele>
        <time>2013-06-15T14:59:49Z</time>
      </trkpt>
      <trkpt lat="45.95108" lon="5.75671">
        <ele>1235.01</ele>
        <time>2013-06-15T15:00:06Z</time>
      </trkpt>
      <trkpt lat="45.95107" lon="5.75645">
        <ele>1236.55</ele>
        <time>2013-06-15T15:00:22Z</time>
      </trkpt>
      <trkpt lat="45.95089" lon="5.75638">
        <ele>1234.98</ele>
        <time>2013-06-15T15:00:39Z</time>
      </trkpt>
      <trkpt lat="45.95071" lon="5.75633">
        <ele>1236.17</ele>
        <time>2013-06-15T15:00:54Z</time>
      </trkpt>
      <trkpt lat="45.95054" lon="5.75624">
        <ele>1236.96</ele>
        <time>2013-06-15T15:01:11Z</time>
      </trkpt>
      <trkpt lat="45.95036" lon="5.75613">
        <ele>1239.77</ele>
        <time>2013-06-15T15:01:27Z</time>
      </trkpt>
      <trkpt lat="45.9502" lon="5.75602">
        <ele>1239.3</ele>
        <time>2013-06-15T15:02:01Z</time>
      </trkpt>
      <trkpt lat="45.95002" lon="5.75593">
        <ele>1239.78</ele>
        <time>2013-06-15T15:02:17Z</time>
      </trkpt>
      <trkpt lat="45.94986" lon="5.7558">
        <ele>1239</ele>
        <time>2013-06-15T15:02:33Z</time>
      </trkpt>
      <trkpt lat="45.94969" lon="5.75567">
        <ele>1239.25</ele>
        <time>2013-06-15T15:02:47Z</time>
      </trkpt>
      <trkpt lat="45.94952" lon="5.75554">
        <ele>1242.51</ele>
        <time>2013-06-15T15:03:02Z</time>
      </trkpt>
      <trkpt lat="45.94935" lon="5.75543">
        <ele>1240.15</ele>
        <time>2013-06-15T15:03:18Z</time>
      </trkpt>
      <trkpt lat="45.94917" lon="5.75538">
        <ele>1243.77</ele>
        <time>2013-06-15T15:03:36Z</time>
      </trkpt>
      <trkpt lat="45.94899" lon="5.75535">
        <ele>1245.19</ele>
        <time>2013-06-15T15:03:49Z</time>
      </trkpt>
      <trkpt lat="45.94882" lon="5.75544">
        <ele>1243.17</ele>
        <time>2013-06-15T15:04:04Z</time>
      </trkpt>
      <trkpt lat="45.94865" lon="5.75554">
        <ele>1243.23</ele>
        <time>2013-06-15T15:04:17Z</time>
      </trkpt>
      <trkpt lat="45.94847" lon="5.7556">
        <ele>1239.55</ele>
        <time>2013-06-15T15:04:32Z</time>
      </trkpt>
      <trkpt lat="45.94829" lon="5.75567">
        <ele>1240.13</ele>
        <time>2013-06-15T15:04:46Z</time>
      </trkpt>
      <trkpt lat="45.9481" lon="5.7557">
        <ele>1241.37</ele>
        <time>2013-06-15T15:05:01Z</time>
      </trkpt>
      <trkpt lat="45.94791" lon="5.75566">
        <ele>1242.97</ele>
        <time>2013-06-15T15:05:16Z</time>
      </trkpt>
      <trkpt lat="45.94773" lon="5.75571">
        <ele>1250.62</ele>
        <time>2013-06-15T15:05:30Z</time>
      </trkpt>
      <trkpt lat="45.94755" lon="5.75571">
        <ele>1245.44</ele>
        <time>2013-06-15T15:05:46Z</time>
      </trkpt>
      <trkpt lat="45.94736" lon="5.7557">
        <ele>1242.22</ele>
        <time>2013-06-15T15:06:02Z</time>
      </trkpt>
      <trkpt lat="45.94726" lon="5.75593">
        <ele>1253.17</ele>
        <time>2013-06-15T15:07:08Z</time>
      </trkpt>
      <trkpt lat="45.94724" lon="5.7562">
        <ele>1247.65</ele>
        <time>2013-06-15T15:07:28Z</time>
      </trkpt>
      <trkpt lat="45.94727" lon="5.75647">
        <ele>1241.34</ele>
        <time>2013-06-15T15:07:43Z</time>
      </trkpt>
      <trkpt lat="45.94735" lon="5.75671">
        <ele>1240.46</ele>
        <time>2013-06-15T15:07:56Z</time>
      </trkpt>
      <trkpt lat="45.94741" lon="5.75697">
        <ele>1237.05</ele>
        <time>2013-06-15T15:08:09Z</time>
      </trkpt>
      <trkpt lat="45.94746" lon="5.75722">
        <ele>1230.24</ele>
        <time>2013-06-15T15:08:23Z</time>
      </trkpt>
      <trkpt lat="45.9475" lon="5.75748">
        <ele>1220.91</ele>
        <time>2013-06-15T15:08:42Z</time>
      </trkpt>
      <trkpt lat="45.94734" lon="5.75762">
        <ele>1218.74</ele>
        <time>2013-06-15T15:09:02Z</time>
      </trkpt>
      <trkpt lat="45.94716" lon="5.75771">
        <ele>1220.8</ele>
        <time>2013-06-15T15:09:17Z</time>
      </trkpt>
      <trkpt lat="45.94699" lon="5.7578">
        <ele>1219.63</ele>
        <time>2013-06-15T15:09:33Z</time>
      </trkpt>
      <trkpt lat="45.94681" lon="5.7579">
        <ele>1216.36</ele>
        <time>2013-06-15T15:09:53Z</time>
      </trkpt>
      <trkpt lat="45.94663" lon="5.75801">
        <ele>1217.36</ele>
        <time>2013-06-15T15:10:09Z</time>
      </trkpt>
      <trkpt lat="45.94644" lon="5.75808">
        <ele>1215.48</ele>
        <time>2013-06-15T15:10:20Z</time>
      </trkpt>
      <trkpt lat="45.94625" lon="5.75814">
        <ele>1215.26</ele>
        <time>2013-06-15T15:10:35Z</time>
      </trkpt>
      <trkpt lat="45.94606" lon="5.75823">
        <ele>1219.96</ele>
        <time>2013-06-15T15:10:48Z</time>
      </trkpt>
      <trkpt lat="45.94589" lon="5.75831">
        <ele>1217.56</ele>
        <time>2013-06-15T15:11:03Z</time>
      </trkpt>
      <trkpt lat="45.9457" lon="5.75838">
        <ele>1213.85</ele>
        <time>2013-06-15T15:11:18Z</time>
      </trkpt>
      <trkpt lat="45.94552" lon="5.75846">
        <ele>1208.71</ele>
        <time>2013-06-15T15:11:32Z</time>
      </trkpt>
      <trkpt lat="45.94535" lon="5.75857">
        <ele>1212.16</ele>
        <time>2013-06-15T15:11:46Z</time>
      </trkpt>
      <trkpt lat="45.94517" lon="5.75865">
        <ele>1209.63</ele>
        <time>2013-06-15T15:12:00Z</time>
      </trkpt>
      <trkpt lat="45.945" lon="5.75873">
        <ele>1210.16</ele>
        <time>2013-06-15T15:12:15Z</time>
      </trkpt>
      <trkpt lat="45.94481" lon="5.75879">
        <ele>1212.66</ele>
        <time>2013-06-15T15:13:10Z</time>
      </trkpt>
      <trkpt lat="45.94465" lon="5.7589">
        <ele>1217.88</ele>
        <time>2013-06-15T15:13:29Z</time>
      </trkpt>
      <trkpt lat="45.94447" lon="5.75899">
        <ele>1224.35</ele>
        <time>2013-06-15T15:13:42Z</time>
      </trkpt>
      <trkpt lat="45.94428" lon="5.75908">
        <ele>1216.33</ele>
        <time>2013-06-15T15:14:00Z</time>
      </trkpt>
      <trkpt lat="45.94407" lon="5.75909">
        <ele>1229.62</ele>
        <time>2013-06-15T15:14:21Z</time>
      </trkpt>
      <trkpt lat="45.94388" lon="5.75909">
        <ele>1224.37</ele>
        <time>2013-06-15T15:14:32Z</time>
      </trkpt>
      <trkpt lat="45.94369" lon="5.75907">
        <ele>1232.18</ele>
        <time>2013-06-15T15:14:49Z</time>
      </trkpt>
      <trkpt lat="45.94351" lon="5.75913">
        <ele>1227.92</ele>
        <time>2013-06-15T15:15:05Z</time>
      </trkpt>
      <trkpt lat="45.94334" lon="5.75901">
        <ele>1221.96</ele>
        <time>2013-06-15T15:15:22Z</time>
      </trkpt>
      <trkpt lat="45.94316" lon="5.75899">
        <ele>1217.64</ele>
        <time>2013-06-15T15:15:37Z</time>
      </trkpt>
      <trkpt lat="45.94297" lon="5.75899">
        <ele>1214.77</ele>
        <time>2013-06-15T15:15:51Z</time>
      </trkpt>
      <trkpt lat="45.94279" lon="5.75906">
        <ele>1213.4</ele>
        <time>2013-06-15T15:16:09Z</time>
      </trkpt>
      <trkpt lat="45.94261" lon="5.75918">
        <ele>1209.76</ele>
        <time>2013-06-15T15:16:26Z</time>
      </trkpt>
      <trkpt lat="45.94243" lon="5.75914">
        <ele>1209.27</ele>
        <time>2013-06-15T15:16:50Z</time>
      </trkpt>
      <trkpt lat="45.94225" lon="5.75922">
        <ele>1209.81</ele>
        <time>2013-06-15T15:17:03Z</time>
      </trkpt>
      <trkpt lat="45.94206" lon="5.75929">
        <ele>1206.51</ele>
        <time>2013-06-15T15:17:18Z</time>
      </trkpt>
      <trkpt lat="45.94189" lon="5.75942">
        <ele>1211.84</ele>
        <time>2013-06-15T15:17:41Z</time>
      </trkpt>
      <trkpt lat="45.94173" lon="5.75956">
        <ele>1223.02</ele>
        <time>2013-06-15T15:18:05Z</time>
      </trkpt>
      <trkpt lat="45.94155" lon="5.75966">
        <ele>1215.32</ele>
        <time>2013-06-15T15:18:28Z</time>
      </trkpt>
      <trkpt lat="45.94138" lon="5.75974">
        <ele>1213.71</ele>
        <time>2013-06-15T15:18:43Z</time>
      </trkpt>
      <trkpt lat="45.94119" lon="5.75982">
        <ele>1223.3</ele>
        <time>2013-06-15T15:18:56Z</time>
      </trkpt>
      <trkpt lat="45.94101" lon="5.75988">
        <ele>1220.38</ele>
        <time>2013-06-15T15:19:13Z</time>
      </trkpt>
      <trkpt lat="45.94082" lon="5.75993">
        <ele>1221.26</ele>
        <time>2013-06-15T15:19:28Z</time>
      </trkpt>
      <trkpt lat="45.94064" lon="5.76002">
        <ele>1215.55</ele>
        <time>2013-06-15T15:19:44Z</time>
      </trkpt>
      <trkpt lat="45.94049" lon="5.76016">
        <ele>1209.8</ele>
        <time>2013-06-15T15:20:13Z</time>
      </trkpt>
      <trkpt lat="45.94029" lon="5.76019">
        <ele>1216.14</ele>
        <time>2013-06-15T15:20:42Z</time>
      </trkpt>
      <trkpt lat="45.9401" lon="5.76019">
        <ele>1217.62</ele>
        <time>2013-06-15T15:20:56Z</time>
      </trkpt>
      <trkpt lat="45.93992" lon="5.76015">
        <ele>1221.39</ele>
        <time>2013-06-15T15:21:12Z</time>
      </trkpt>
      <trkpt lat="45.93974" lon="5.76013">
        <ele>1217.91</ele>
        <time>2013-06-15T15:21:36Z</time>
      </trkpt>
      <trkpt lat="45.93958" lon="5.76026">
        <ele>1219.77</ele>
        <time>2013-06-15T15:21:49Z</time>
      </trkpt>
      <trkpt lat="45.9394" lon="5.76027">
        <ele>1222.67</ele>
        <time>2013-06-15T15:22:02Z</time>
      </trkpt>
      <trkpt lat="45.93924" lon="5.76039">
        <ele>1223.49</ele>
        <time>2013-06-15T15:22:11Z</time>
      </trkpt>
      <trkpt lat="45.93906" lon="5.7605">
        <ele>1221.99</ele>
        <time>2013-06-15T15:22:28Z</time>
      </trkpt>
      <trkpt lat="45.93887" lon="5.76055">
        <ele>1216.87</ele>
        <time>2013-06-15T15:22:38Z</time>
      </trkpt>
      <trkpt lat="45.9387" lon="5.76059">
        <ele>1227.28</ele>
        <time>2013-06-15T15:22:52Z</time>
      </trkpt>
      <trkpt lat="45.93852" lon="5.7607">
        <ele>1228.82</ele>
        <time>2013-06-15T15:23:05Z</time>
      </trkpt>
      <trkpt lat="45.93834" lon="5.76074">
        <ele>1237.55</ele>
        <time>2013-06-15T15:23:27Z</time>
      </trkpt>
      <trkpt lat="45.93814" lon="5.76081">
        <ele>1245.6</ele>
        <time>2013-06-15T15:23:43Z</time>
      </trkpt>
      <trkpt lat="45.93796" lon="5.76088">
        <ele>1244.07</ele>
        <time>2013-06-15T15:23:54Z</time>
      </trkpt>
      <trkpt lat="45.93778" lon="5.76089">
        <ele>1247.74</ele>
        <time>2013-06-15T15:24:09Z</time>
      </trkpt>
      <trkpt lat="45.93759" lon="5.76093">
        <ele>1243.28</ele>
        <time>2013-06-15T15:24:22Z</time>
      </trkpt>
      <trkpt lat="45.93741" lon="5.76101">
        <ele>1230.05</ele>
        <time>2013-06-15T15:24:33Z</time>
      </trkpt>
      <trkpt lat="45.93723" lon="5.76105">
        <ele>1216.92</ele>
        <time>2013-06-15T15:24:46Z</time>
      </trkpt>
      <trkpt lat="45.93705" lon="5.76117">
        <ele>1218.03</ele>
        <time>2013-06-15T15:24:59Z</time>
      </trkpt>
      <trkpt lat="45.93687" lon="5.76118">
        <ele>1227.64</ele>
        <time>2013-06-15T15:25:36Z</time>
      </trkpt>
      <trkpt lat="45.93669" lon="5.7611">
        <ele>1214.9</ele>
        <time>2013-06-15T15:25:51Z</time>
      </trkpt>
      <trkpt lat="45.93652" lon="5.76118">
        <ele>1183.2</ele>
        <time>2013-06-15T15:26:05Z</time>
      </trkpt>
      <trkpt lat="45.93632" lon="5.76117">
        <ele>1183.18</ele>
        <time>2013-06-15T15:26:15Z</time>
      </trkpt>
      <trkpt lat="45.93615" lon="5.76111">
        <ele>1177.9</ele>
        <time>2013-06-15T15:26:27Z</time>
      </trkpt>
      <trkpt lat="45.93597" lon="5.76104">
        <ele>1168.3</ele>
        <time>2013-06-15T15:26:39Z</time>
      </trkpt>
      <trkpt lat="45.93579" lon="5.76104">
        <ele>1171.11</ele>
        <time>2013-06-15T15:26:55Z</time>
      </trkpt>
      <trkpt lat="45.93559" lon="5.761">
        <ele>1178.61</ele>
        <time>2013-06-15T15:27:09Z</time>
      </trkpt>
      <trkpt lat="45.9354" lon="5.76099">
        <ele>1167.28</ele>
        <time>2013-06-15T15:27:22Z</time>
      </trkpt>
      <trkpt lat="45.93524" lon="5.76114">
        <ele>1159.26</ele>
        <time>2013-06-15T15:27:50Z</time>
      </trkpt>
      <trkpt lat="45.93505" lon="5.76115">
        <ele>1172.92</ele>
        <time>2013-06-15T15:28:06Z</time>
      </trkpt>
      <trkpt lat="45.93487" lon="5.76115">
        <ele>1178.69</ele>
        <time>2013-06-15T15:28:26Z</time>
      </trkpt>
      <trkpt lat="45.93468" lon="5.7612">
        <ele>1182.43</ele>
        <time>2013-06-15T15:28:44Z</time>
      </trkpt>
      <trkpt lat="45.9345" lon="5.76122">
        <ele>1194.74</ele>
        <time>2013-06-15T15:29:07Z</time>
      </trkpt>
      <trkpt lat="45.93431" lon="5.76122">
        <ele>1193.12</ele>
        <time>2013-06-15T15:29:22Z</time>
      </trkpt>
      <trkpt lat="45.93413" lon="5.76129">
        <ele>1194.14</ele>
        <time>2013-06-15T15:29:37Z</time>
      </trkpt>
      <trkpt lat="45.93393" lon="5.76132">
        <ele>1183.76</ele>
        <time>2013-06-15T15:29:55Z</time>
      </trkpt>
      <trkpt lat="45.93375" lon="5.76132">
        <ele>1183.47</ele>
        <time>2013-06-15T15:30:07Z</time>
      </trkpt>
      <trkpt lat="45.93355" lon="5.7613">
        <ele>1189.79</ele>
        <time>2013-06-15T15:30:26Z</time>
      </trkpt>
      <trkpt lat="45.93337" lon="5.76129">
        <ele>1187.66</ele>
        <time>2013-06-15T15:30:40Z</time>
      </trkpt>
      <trkpt lat="45.93319" lon="5.76131">
        <ele>1181.27</ele>
        <time>2013-06-15T15:30:59Z</time>
      </trkpt>
      <trkpt lat="45.93301" lon="5.76135">
        <ele>1181.46</ele>
        <time>2013-06-15T15:31:24Z</time>
      </trkpt>
      <trkpt lat="45.93281" lon="5.76135">
        <ele>1192.29</ele>
        <time>2013-06-15T15:31:42Z</time>
      </trkpt>
      <trkpt lat="45.93263" lon="5.76141">
        <ele>1193.59</ele>
        <time>2013-06-15T15:31:57Z</time>
      </trkpt>
      <trkpt lat="45.93245" lon="5.76135">
        <ele>1186.46</ele>
        <time>2013-06-15T15:32:19Z</time>
      </trkpt>
      <trkpt lat="45.93245" lon="5.76108">
        <ele>1180.64</ele>
        <time>2013-06-15T15:32:43Z</time>
      </trkpt>
      <trkpt lat="45.93252" lon="5.76082">
        <ele>1183.55</ele>
        <time>2013-06-15T15:32:58Z</time>
      </trkpt>
      <trkpt lat="45.93251" lon="5.76055">
        <ele>1183.45</ele>
        <time>2013-06-15T15:33:13Z</time>
      </trkpt>
      <trkpt lat="45.93241" lon="5.76033">
        <ele>1175.63</ele>
        <time>2013-06-15T15:33:24Z</time>
      </trkpt>
      <trkpt lat="45.93236" lon="5.76007">
        <ele>1175.08</ele>
        <time>2013-06-15T15:33:38Z</time>
      </trkpt>
      <trkpt lat="45.93231" lon="5.75981">
        <ele>1176.83</ele>
        <time>2013-06-15T15:34:08Z</time>
      </trkpt>
      <trkpt lat="45.93216" lon="5.75964">
        <ele>1167.8</ele>
        <time>2013-06-15T15:34:37Z</time>
      </trkpt>
      <trkpt lat="45.93199" lon="5.75953">
        <ele>1173.83</ele>
        <time>2013-06-15T15:34:49Z</time>
      </trkpt>
      <trkpt lat="45.93182" lon="5.75945">
        <ele>1160.71</ele>
        <time>2013-06-15T15:35:09Z</time>
      </trkpt>
      <trkpt lat="45.93164" lon="5.75943">
        <ele>1160.34</ele>
        <time>2013-06-15T15:35:24Z</time>
      </trkpt>
      <trkpt lat="45.93145" lon="5.75942">
        <ele>1193.2</ele>
        <time>2013-06-15T15:37:17Z</time>
      </trkpt>
      <trkpt lat="45.93139" lon="5.75924">
        <ele>1171.11</ele>
        <time>2013-06-16T07:07:01Z</time>
      </trkpt>
      <trkpt lat="45.93145" lon="5.7595">
        <ele>1156.67</ele>
        <time>2013-06-16T07:07:09Z</time>
      </trkpt>
      <trkpt lat="45.93135" lon="5.75972">
        <ele>1161.68</ele>
        <time>2013-06-16T07:07:33Z</time>
      </trkpt>
      <trkpt lat="45.93149" lon="5.75955">
        <ele>1166.23</ele>
        <time>2013-06-16T07:08:41Z</time>
      </trkpt>
      <trkpt lat="45.93166" lon="5.75946">
        <ele>1169.57</ele>
        <time>2013-06-16T07:09:22Z</time>
      </trkpt>
      <trkpt lat="45.93184" lon="5.75951">
        <ele>1167.36</ele>
        <time>2013-06-16T07:10:05Z</time>
      </trkpt>
      <trkpt lat="45.93201" lon="5.75961">
        <ele>1170.77</ele>
        <time>2013-06-16T07:10:25Z</time>
      </trkpt>
      <trkpt lat="45.93218" lon="5.75973">
        <ele>1172.67</ele>
        <time>2013-06-16T07:10:43Z</time>
      </trkpt>
      <trkpt lat="45.93231" lon="5.75994">
        <ele>1169.29</ele>
        <time>2013-06-16T07:10:59Z</time>
      </trkpt>
      <trkpt lat="45.93235" lon="5.7602">
        <ele>1172.58</ele>
        <time>2013-06-16T07:11:31Z</time>
      </trkpt>
      <trkpt lat="45.93242" lon="5.76044">
        <ele>1173.46</ele>
        <time>2013-06-16T07:11:47Z</time>
      </trkpt>
      <trkpt lat="45.93246" lon="5.76071">
        <ele>1181.37</ele>
        <time>2013-06-16T07:12:02Z</time>
      </trkpt>
      <trkpt lat="45.93244" lon="5.76097">
        <ele>1184.95</ele>
        <time>2013-06-16T07:12:21Z</time>
      </trkpt>
      <trkpt lat="45.9324" lon="5.76123">
        <ele>1181.89</ele>
        <time>2013-06-16T07:12:38Z</time>
      </trkpt>
      <trkpt lat="45.93251" lon="5.76143">
        <ele>1184.6</ele>
        <time>2013-06-16T07:12:50Z</time>
      </trkpt>
      <trkpt lat="45.93269" lon="5.76154">
        <ele>1190.66</ele>
        <time>2013-06-16T07:13:06Z</time>
      </trkpt>
      <trkpt lat="45.93288" lon="5.76155">
        <ele>1194.42</ele>
        <time>2013-06-16T07:13:21Z</time>
      </trkpt>
      <trkpt lat="45.93306" lon="5.76153">
        <ele>1191.69</ele>
        <time>2013-06-16T07:13:35Z</time>
      </trkpt>
      <trkpt lat="45.93324" lon="5.76155">
        <ele>1193.2</ele>
        <time>2013-06-16T07:13:50Z</time>
      </trkpt>
      <trkpt lat="45.93342" lon="5.76156">
        <ele>1196.5</ele>
        <time>2013-06-16T07:14:06Z</time>
      </trkpt>
      <trkpt lat="45.93361" lon="5.76157">
        <ele>1196.36</ele>
        <time>2013-06-16T07:14:21Z</time>
      </trkpt>
      <trkpt lat="45.93379" lon="5.76154">
        <ele>1188.49</ele>
        <time>2013-06-16T07:14:36Z</time>
      </trkpt>
      <trkpt lat="45.93398" lon="5.7615">
        <ele>1184.97</ele>
        <time>2013-06-16T07:14:50Z</time>
      </trkpt>
      <trkpt lat="45.93417" lon="5.76145">
        <ele>1181.79</ele>
        <time>2013-06-16T07:15:04Z</time>
      </trkpt>
      <trkpt lat="45.93436" lon="5.76145">
        <ele>1197.71</ele>
        <time>2013-06-16T07:15:22Z</time>
      </trkpt>
      <trkpt lat="45.93455" lon="5.76148">
        <ele>1199.96</ele>
        <time>2013-06-16T07:15:35Z</time>
      </trkpt>
      <trkpt lat="45.93473" lon="5.76148">
        <ele>1194.95</ele>
        <time>2013-06-16T07:15:50Z</time>
      </trkpt>
      <trkpt lat="45.93491" lon="5.76142">
        <ele>1195.55</ele>
        <time>2013-06-16T07:16:05Z</time>
      </trkpt>
      <trkpt lat="45.93509" lon="5.76136">
        <ele>1187.74</ele>
        <time>2013-06-16T07:16:18Z</time>
      </trkpt>
      <trkpt lat="45.93527" lon="5.76132">
        <ele>1189.27</ele>
        <time>2013-06-16T07:16:34Z</time>
      </trkpt>
      <trkpt lat="45.93545" lon="5.76135">
        <ele>1190.61</ele>
        <time>2013-06-16T07:16:50Z</time>
      </trkpt>
      <trkpt lat="45.93563" lon="5.76135">
        <ele>1194.72</ele>
        <time>2013-06-16T07:17:04Z</time>
      </trkpt>
      <trkpt lat="45.93581" lon="5.7613">
        <ele>1187.3</ele>
        <time>2013-06-16T07:17:23Z</time>
      </trkpt>
      <trkpt lat="45.93599" lon="5.76134">
        <ele>1180.72</ele>
        <time>2013-06-16T07:17:40Z</time>
      </trkpt>
      <trkpt lat="45.93618" lon="5.76131">
        <ele>1179.83</ele>
        <time>2013-06-16T07:17:59Z</time>
      </trkpt>
      <trkpt lat="45.93638" lon="5.76132">
        <ele>1172.11</ele>
        <time>2013-06-16T07:18:18Z</time>
      </trkpt>
      <trkpt lat="45.93655" lon="5.7614">
        <ele>1168.82</ele>
        <time>2013-06-16T07:18:25Z</time>
      </trkpt>
      <trkpt lat="45.93644" lon="5.7616">
        <ele>1149.78</ele>
        <time>2013-06-16T07:19:02Z</time>
      </trkpt>
      <trkpt lat="45.93625" lon="5.76164">
        <ele>1147.17</ele>
        <time>2013-06-16T07:19:17Z</time>
      </trkpt>
      <trkpt lat="45.93607" lon="5.76165">
        <ele>1146.59</ele>
        <time>2013-06-16T07:19:31Z</time>
      </trkpt>
      <trkpt lat="45.93588" lon="5.76169">
        <ele>1149.79</ele>
        <time>2013-06-16T07:19:45Z</time>
      </trkpt>
      <trkpt lat="45.93571" lon="5.76175">
        <ele>1165.79</ele>
        <time>2013-06-16T07:20:32Z</time>
      </trkpt>
      <trkpt lat="45.93555" lon="5.76187">
        <ele>1147.21</ele>
        <time>2013-06-16T07:20:49Z</time>
      </trkpt>
      <trkpt lat="45.93539" lon="5.762">
        <ele>1146.65</ele>
        <time>2013-06-16T07:21:05Z</time>
      </trkpt>
      <trkpt lat="45.93521" lon="5.76205">
        <ele>1147.57</ele>
        <time>2013-06-16T07:21:21Z</time>
      </trkpt>
      <trkpt lat="45.93504" lon="5.76212">
        <ele>1148.55</ele>
        <time>2013-06-16T07:21:43Z</time>
      </trkpt>
      <trkpt lat="45.93484" lon="5.76216">
        <ele>1134.11</ele>
        <time>2013-06-16T07:23:20Z</time>
      </trkpt>
      <trkpt lat="45.93467" lon="5.76222">
        <ele>1137.24</ele>
        <time>2013-06-16T07:23:33Z</time>
      </trkpt>
      <trkpt lat="45.93449" lon="5.76228">
        <ele>1138.8</ele>
        <time>2013-06-16T07:23:46Z</time>
      </trkpt>
      <trkpt lat="45.93431" lon="5.76234">
        <ele>1138.88</ele>
        <time>2013-06-16T07:24:01Z</time>
      </trkpt>
      <trkpt lat="45.93413" lon="5.76239">
        <ele>1135.68</ele>
        <time>2013-06-16T07:24:15Z</time>
      </trkpt>
      <trkpt lat="45.93395" lon="5.76249">
        <ele>1136.78</ele>
        <time>2013-06-16T07:24:30Z</time>
      </trkpt>
      <trkpt lat="45.93377" lon="5.76252">
        <ele>1133.66</ele>
        <time>2013-06-16T07:24:43Z</time>
      </trkpt>
      <trkpt lat="45.93361" lon="5.76264">
        <ele>1131.39</ele>
        <time>2013-06-16T07:24:59Z</time>
      </trkpt>
      <trkpt lat="45.93343" lon="5.76274">
        <ele>1126.64</ele>
        <time>2013-06-16T07:25:14Z</time>
      </trkpt>
      <trkpt lat="45.9333" lon="5.76293">
        <ele>1122.11</ele>
        <time>2013-06-16T07:25:28Z</time>
      </trkpt>
      <trkpt lat="45.93313" lon="5.76304">
        <ele>1120.01</ele>
        <time>2013-06-16T07:25:42Z</time>
      </trkpt>
      <trkpt lat="45.93295" lon="5.76294">
        <ele>1125.05</ele>
        <time>2013-06-16T07:25:54Z</time>
      </trkpt>
      <trkpt lat="45.93277" lon="5.76289">
        <ele>1126.49</ele>
        <time>2013-06-16T07:26:07Z</time>
      </trkpt>
      <trkpt lat="45.93258" lon="5.76296">
        <ele>1116.23</ele>
        <time>2013-06-16T07:26:20Z</time>
      </trkpt>
      <trkpt lat="45.93241" lon="5.76306">
        <ele>1114.82</ele>
        <time>2013-06-16T07:26:33Z</time>
      </trkpt>
      <trkpt lat="45.93223" lon="5.76314">
        <ele>1112.24</ele>
        <time>2013-06-16T07:26:50Z</time>
      </trkpt>
      <trkpt lat="45.93205" lon="5.76318">
        <ele>1114.26</ele>
        <time>2013-06-16T07:27:03Z</time>
      </trkpt>
      <trkpt lat="45.93186" lon="5.76314">
        <ele>1120.79</ele>
        <time>2013-06-16T07:27:33Z</time>
      </trkpt>
      <trkpt lat="45.93171" lon="5.76299">
        <ele>1117.36</ele>
        <time>2013-06-16T07:27:49Z</time>
      </trkpt>
      <trkpt lat="45.93152" lon="5.76294">
        <ele>1112.92</ele>
        <time>2013-06-16T07:28:01Z</time>
      </trkpt>
      <trkpt lat="45.93133" lon="5.76298">
        <ele>1102.96</ele>
        <time>2013-06-16T07:28:13Z</time>
      </trkpt>
      <trkpt lat="45.93115" lon="5.76304">
        <ele>1104.59</ele>
        <time>2013-06-16T07:28:30Z</time>
      </trkpt>
      <trkpt lat="45.93096" lon="5.76303">
        <ele>1101.96</ele>
        <time>2013-06-16T07:28:42Z</time>
      </trkpt>
      <trkpt lat="45.93078" lon="5.76306">
        <ele>1097.49</ele>
        <time>2013-06-16T07:28:56Z</time>
      </trkpt>
      <trkpt lat="45.9306" lon="5.76313">
        <ele>1097.49</ele>
        <time>2013-06-16T07:29:10Z</time>
      </trkpt>
      <trkpt lat="45.93041" lon="5.76313">
        <ele>1099.88</ele>
        <time>2013-06-16T07:29:25Z</time>
      </trkpt>
      <trkpt lat="45.93026" lon="5.76299">
        <ele>1104.45</ele>
        <time>2013-06-16T07:29:42Z</time>
      </trkpt>
      <trkpt lat="45.93014" lon="5.76278">
        <ele>1097.82</ele>
        <time>2013-06-16T07:29:56Z</time>
      </trkpt>
      <trkpt lat="45.92999" lon="5.76262">
        <ele>1106.2</ele>
        <time>2013-06-16T07:30:10Z</time>
      </trkpt>
      <trkpt lat="45.92987" lon="5.76242">
        <ele>1118.64</ele>
        <time>2013-06-16T07:30:28Z</time>
      </trkpt>
      <trkpt lat="45.92974" lon="5.76224">
        <ele>1142.68</ele>
        <time>2013-06-16T07:30:47Z</time>
      </trkpt>
      <trkpt lat="45.92959" lon="5.7621">
        <ele>1119.64</ele>
        <time>2013-06-16T07:31:09Z</time>
      </trkpt>
      <trkpt lat="45.92948" lon="5.76188">
        <ele>1090.68</ele>
        <time>2013-06-16T07:31:23Z</time>
      </trkpt>
      <trkpt lat="45.92943" lon="5.76163">
        <ele>1084.71</ele>
        <time>2013-06-16T07:31:38Z</time>
      </trkpt>
      <trkpt lat="45.92931" lon="5.76143">
        <ele>1099.05</ele>
        <time>2013-06-16T07:31:52Z</time>
      </trkpt>
      <trkpt lat="45.92918" lon="5.76122">
        <ele>1106.35</ele>
        <time>2013-06-16T07:32:03Z</time>
      </trkpt>
      <trkpt lat="45.92913" lon="5.76096">
        <ele>1096.21</ele>
        <time>2013-06-16T07:32:36Z</time>
      </trkpt>
      <trkpt lat="45.92915" lon="5.7607">
        <ele>1091.44</ele>
        <time>2013-06-16T07:32:49Z</time>
      </trkpt>
      <trkpt lat="45.9291" lon="5.76044">
        <ele>1089.66</ele>
        <time>2013-06-16T07:33:03Z</time>
      </trkpt>
      <trkpt lat="45.92898" lon="5.76024">
        <ele>1090.05</ele>
        <time>2013-06-16T07:33:17Z</time>
      </trkpt>
      <trkpt lat="45.92881" lon="5.76013">
        <ele>1079.73</ele>
        <time>2013-06-16T07:33:25Z</time>
      </trkpt>
      <trkpt lat="45.92861" lon="5.76013">
        <ele>1069.28</ele>
        <time>2013-06-16T07:33:37Z</time>
      </trkpt>
      <trkpt lat="45.92844" lon="5.7602">
        <ele>1059.7</ele>
        <time>2013-06-16T07:33:52Z</time>
      </trkpt>
      <trkpt lat="45.92827" lon="5.76033">
        <ele>1049.04</ele>
        <time>2013-06-16T07:34:06Z</time>
      </trkpt>
      <trkpt lat="45.92812" lon="5.76049">
        <ele>1059.12</ele>
        <time>2013-06-16T07:34:19Z</time>
      </trkpt>
      <trkpt lat="45.92794" lon="5.76046">
        <ele>1065.1</ele>
        <time>2013-06-16T07:34:40Z</time>
      </trkpt>
      <trkpt lat="45.92788" lon="5.76071">
        <ele>1080.16</ele>
        <time>2013-06-16T07:35:25Z</time>
      </trkpt>
      <trkpt lat="45.92805" lon="5.76078">
        <ele>1087.07</ele>
        <time>2013-06-16T07:36:22Z</time>
      </trkpt>
      <trkpt lat="45.92803" lon="5.76051">
        <ele>1046.69</ele>
        <time>2013-06-16T07:37:01Z</time>
      </trkpt>
      <trkpt lat="45.9281" lon="5.76026">
        <ele>1058.24</ele>
        <time>2013-06-16T07:37:12Z</time>
      </trkpt>
      <trkpt lat="45.92818" lon="5.76003">
        <ele>1072.71</ele>
        <time>2013-06-16T07:37:24Z</time>
      </trkpt>
      <trkpt lat="45.92826" lon="5.7598">
        <ele>1069.02</ele>
        <time>2013-06-16T07:37:40Z</time>
      </trkpt>
      <trkpt lat="45.92827" lon="5.75953">
        <ele>1070.38</ele>
        <time>2013-06-16T07:37:53Z</time>
      </trkpt>
      <trkpt lat="45.92833" lon="5.75929">
        <ele>1062.37</ele>
        <time>2013-06-16T07:38:08Z</time>
      </trkpt>
      <trkpt lat="45.92832" lon="5.75901">
        <ele>1058.86</ele>
        <time>2013-06-16T07:38:26Z</time>
      </trkpt>
      <trkpt lat="45.92837" lon="5.75876">
        <ele>1048.85</ele>
        <time>2013-06-16T07:38:53Z</time>
      </trkpt>
      <trkpt lat="45.92845" lon="5.75852">
        <ele>1058.63</ele>
        <time>2013-06-16T07:39:11Z</time>
      </trkpt>
      <trkpt lat="45.92851" lon="5.75824">
        <ele>1036.75</ele>
        <time>2013-06-16T07:39:26Z</time>
      </trkpt>
      <trkpt lat="45.92862" lon="5.75803">
        <ele>1038.82</ele>
        <time>2013-06-16T07:39:41Z</time>
      </trkpt>
      <trkpt lat="45.92879" lon="5.75794">
        <ele>1033.66</ele>
        <time>2013-06-16T07:40:01Z</time>
      </trkpt>
      <trkpt lat="45.9289" lon="5.75772">
        <ele>1037</ele>
        <time>2013-06-16T07:40:16Z</time>
      </trkpt>
      <trkpt lat="45.92876" lon="5.75755">
        <ele>1044.67</ele>
        <time>2013-06-16T07:40:31Z</time>
      </trkpt>
      <trkpt lat="45.92859" lon="5.75745">
        <ele>1056.22</ele>
        <time>2013-06-16T07:40:47Z</time>
      </trkpt>
      <trkpt lat="45.92843" lon="5.75728">
        <ele>1045.06</ele>
        <time>2013-06-16T07:41:04Z</time>
      </trkpt>
      <trkpt lat="45.92834" lon="5.75705">
        <ele>1025.65</ele>
        <time>2013-06-16T07:41:20Z</time>
      </trkpt>
      <trkpt lat="45.92825" lon="5.75683">
        <ele>1018.75</ele>
        <time>2013-06-16T07:41:33Z</time>
      </trkpt>
      <trkpt lat="45.92814" lon="5.75662">
        <ele>1026.38</ele>
        <time>2013-06-16T07:42:48Z</time>
      </trkpt>
      <trkpt lat="45.92798" lon="5.75648">
        <ele>1029.6</ele>
        <time>2013-06-16T07:43:19Z</time>
      </trkpt>
      <trkpt lat="45.92786" lon="5.75629">
        <ele>1025.64</ele>
        <time>2013-06-16T07:43:39Z</time>
      </trkpt>
      <trkpt lat="45.92776" lon="5.75605">
        <ele>1023.16</ele>
        <time>2013-06-16T07:43:56Z</time>
      </trkpt>
      <trkpt lat="45.92766" lon="5.75582">
        <ele>1018.62</ele>
        <time>2013-06-16T07:44:12Z</time>
      </trkpt>
      <trkpt lat="45.92757" lon="5.75557">
        <ele>1015.47</ele>
        <time>2013-06-16T07:44:39Z</time>
      </trkpt>
      <trkpt lat="45.92742" lon="5.75542">
        <ele>1013.69</ele>
        <time>2013-06-16T07:44:52Z</time>
      </trkpt>
      <trkpt lat="45.92728" lon="5.75525">
        <ele>1030.81</ele>
        <time>2013-06-16T07:45:05Z</time>
      </trkpt>
      <trkpt lat="45.92715" lon="5.75507">
        <ele>1022.38</ele>
        <time>2013-06-16T07:45:20Z</time>
      </trkpt>
      <trkpt lat="45.92698" lon="5.75496">
        <ele>1020.99</ele>
        <time>2013-06-16T07:45:40Z</time>
      </trkpt>
      <trkpt lat="45.92704" lon="5.75521">
        <ele>996.85</ele>
        <time>2013-06-16T07:46:25Z</time>
      </trkpt>
      <trkpt lat="45.92716" lon="5.7554">
        <ele>1008.66</ele>
        <time>2013-06-16T07:46:54Z</time>
      </trkpt>
      <trkpt lat="45.92722" lon="5.75565">
        <ele>1020.95</ele>
        <time>2013-06-16T07:47:29Z</time>
      </trkpt>
      <trkpt lat="45.9273" lon="5.75589">
        <ele>1020.08</ele>
        <time>2013-06-16T07:47:59Z</time>
      </trkpt>
      <trkpt lat="45.92739" lon="5.75612">
        <ele>1028.72</ele>
        <time>2013-06-16T07:48:27Z</time>
      </trkpt>
      <trkpt lat="45.92752" lon="5.7563">
        <ele>1023.38</ele>
        <time>2013-06-16T07:48:55Z</time>
      </trkpt>
      <trkpt lat="45.9276" lon="5.75653">
        <ele>1038.96</ele>
        <time>2013-06-16T07:49:21Z</time>
      </trkpt>
      <trkpt lat="45.9277" lon="5.75676">
        <ele>1035.38</ele>
        <time>2013-06-16T07:49:47Z</time>
      </trkpt>
      <trkpt lat="45.92778" lon="5.757">
        <ele>1034.81</ele>
        <time>2013-06-16T07:50:18Z</time>
      </trkpt>
      <trkpt lat="45.92787" lon="5.75723">
        <ele>1041.04</ele>
        <time>2013-06-16T07:50:42Z</time>
      </trkpt>
      <trkpt lat="45.928" lon="5.75742">
        <ele>1036.19</ele>
        <time>2013-06-16T07:51:06Z</time>
      </trkpt>
      <trkpt lat="45.92797" lon="5.75768">
        <ele>1057.5</ele>
        <time>2013-06-16T07:51:37Z</time>
      </trkpt>
      <trkpt lat="45.92785" lon="5.75789">
        <ele>1059.83</ele>
        <time>2013-06-16T07:52:13Z</time>
      </trkpt>
      <trkpt lat="45.92773" lon="5.75809">
        <ele>1054.36</ele>
        <time>2013-06-16T07:52:42Z</time>
      </trkpt>
      <trkpt lat="45.92771" lon="5.75835">
        <ele>1067.5</ele>
        <time>2013-06-16T07:53:09Z</time>
      </trkpt>
      <trkpt lat="45.92778" lon="5.7586">
        <ele>1078.09</ele>
        <time>2013-06-16T07:53:33Z</time>
      </trkpt>
      <trkpt lat="45.92772" lon="5.75885">
        <ele>1066.07</ele>
        <time>2013-06-16T07:53:59Z</time>
      </trkpt>
      <trkpt lat="45.92765" lon="5.75909">
        <ele>1071.44</ele>
        <time>2013-06-16T07:54:28Z</time>
      </trkpt>
      <trkpt lat="45.9276" lon="5.75934">
        <ele>1073.18</ele>
        <time>2013-06-16T07:54:54Z</time>
      </trkpt>
      <trkpt lat="45.92758" lon="5.75961">
        <ele>1076.77</ele>
        <time>2013-06-16T07:55:13Z</time>
      </trkpt>
      <trkpt lat="45.92755" lon="5.75987">
        <ele>1080.22</ele>
        <time>2013-06-16T07:55:39Z</time>
      </trkpt>
      <trkpt lat="45.92743" lon="5.76008">
        <ele>1079.73</ele>
        <time>2013-06-16T07:56:10Z</time>
      </trkpt>
      <trkpt lat="45.9274" lon="5.76034">
        <ele>1086.86</ele>
        <time>2013-06-16T07:56:40Z</time>
      </trkpt>
      <trkpt lat="45.92731" lon="5.76057">
        <ele>1088.93</ele>
        <time>2013-06-16T07:57:17Z</time>
      </trkpt>
      <trkpt lat="45.92729" lon="5.76083">
        <ele>1091.95</ele>
        <time>2013-06-16T07:57:45Z</time>
      </trkpt>
      <trkpt lat="45.92728" lon="5.76109">
        <ele>1096.58</ele>
        <time>2013-06-16T07:58:12Z</time>
      </trkpt>
      <trkpt lat="45.92731" lon="5.76136">
        <ele>1095.9</ele>
        <time>2013-06-16T07:58:44Z</time>
      </trkpt>
      <trkpt lat="45.9274" lon="5.76157">
        <ele>1102.63</ele>
        <time>2013-06-16T07:59:08Z</time>
      </trkpt>
      <trkpt lat="45.92726" lon="5.76173">
        <ele>1108.39</ele>
        <time>2013-06-16T07:59:46Z</time>
      </trkpt>
      <trkpt lat="45.92712" lon="5.76191">
        <ele>1123.07</ele>
        <time>2013-06-16T08:00:26Z</time>
      </trkpt>
      <trkpt lat="45.92695" lon="5.76203">
        <ele>1107.72</ele>
        <time>2013-06-16T08:01:00Z</time>
      </trkpt>
      <trkpt lat="45.92679" lon="5.76217">
        <ele>1111.7</ele>
        <time>2013-06-16T08:01:20Z</time>
      </trkpt>
      <trkpt lat="45.92673" lon="5.76242">
        <ele>1123.54</ele>
        <time>2013-06-16T08:01:47Z</time>
      </trkpt>
      <trkpt lat="45.92675" lon="5.76269">
        <ele>1127.4</ele>
        <time>2013-06-16T08:02:21Z</time>
      </trkpt>
      <trkpt lat="45.92672" lon="5.76296">
        <ele>1124.58</ele>
        <time>2013-06-16T08:02:50Z</time>
      </trkpt>
      <trkpt lat="45.92658" lon="5.76313">
        <ele>1128.88</ele>
        <time>2013-06-16T08:03:27Z</time>
      </trkpt>
      <trkpt lat="45.9264" lon="5.76317">
        <ele>1142.29</ele>
        <time>2013-06-16T08:03:57Z</time>
      </trkpt>
      <trkpt lat="45.92621" lon="5.76318">
        <ele>1129.8</ele>
        <time>2013-06-16T08:04:26Z</time>
      </trkpt>
      <trkpt lat="45.92603" lon="5.76321">
        <ele>1126.02</ele>
        <time>2013-06-16T08:05:03Z</time>
      </trkpt>
      <trkpt lat="45.92585" lon="5.76321">
        <ele>1143.51</ele>
        <time>2013-06-16T08:05:33Z</time>
      </trkpt>
      <trkpt lat="45.92567" lon="5.76317">
        <ele>1152.18</ele>
        <time>2013-06-16T08:06:02Z</time>
      </trkpt>
      <trkpt lat="45.92548" lon="5.76315">
        <ele>1142.63</ele>
        <time>2013-06-16T08:06:31Z</time>
      </trkpt>
      <trkpt lat="45.9253" lon="5.76313">
        <ele>1148.32</ele>
        <time>2013-06-16T08:06:51Z</time>
      </trkpt>
      <trkpt lat="45.92512" lon="5.76313">
        <ele>1138.44</ele>
        <time>2013-06-16T08:07:21Z</time>
      </trkpt>
      <trkpt lat="45.92494" lon="5.76313">
        <ele>1131.51</ele>
        <time>2013-06-16T08:07:53Z</time>
      </trkpt>
      <trkpt lat="45.92477" lon="5.76321">
        <ele>1126.7</ele>
        <time>2013-06-16T08:08:29Z</time>
      </trkpt>
      <trkpt lat="45.92459" lon="5.76314">
        <ele>1128.05</ele>
        <time>2013-06-16T08:10:30Z</time>
      </trkpt>
      <trkpt lat="45.92441" lon="5.76325">
        <ele>1141.88</ele>
        <time>2013-06-16T08:11:15Z</time>
      </trkpt>
      <trkpt lat="45.92422" lon="5.76334">
        <ele>1139.13</ele>
        <time>2013-06-16T08:11:38Z</time>
      </trkpt>
      <trkpt lat="45.92403" lon="5.76338">
        <ele>1170.71</ele>
        <time>2013-06-16T08:12:22Z</time>
      </trkpt>
      <trkpt lat="45.92384" lon="5.76331">
        <ele>1153.56</ele>
        <time>2013-06-16T08:13:54Z</time>
      </trkpt>
      <trkpt lat="45.9237" lon="5.76316">
        <ele>1162.99</ele>
        <time>2013-06-16T08:14:12Z</time>
      </trkpt>
      <trkpt lat="45.92351" lon="5.76315">
        <ele>1170.87</ele>
        <time>2013-06-16T08:14:42Z</time>
      </trkpt>
      <trkpt lat="45.92333" lon="5.76321">
        <ele>1159.14</ele>
        <time>2013-06-16T08:15:19Z</time>
      </trkpt>
      <trkpt lat="45.92316" lon="5.76332">
        <ele>1156.2</ele>
        <time>2013-06-16T08:15:52Z</time>
      </trkpt>
      <trkpt lat="45.92298" lon="5.76331">
        <ele>1148.44</ele>
        <time>2013-06-16T08:16:42Z</time>
      </trkpt>
      <trkpt lat="45.92282" lon="5.7632">
        <ele>1148.88</ele>
        <time>2013-06-16T08:17:15Z</time>
      </trkpt>
      <trkpt lat="45.92264" lon="5.76312">
        <ele>1155.93</ele>
        <time>2013-06-16T08:17:44Z</time>
      </trkpt>
      <trkpt lat="45.92246" lon="5.76309">
        <ele>1156.45</ele>
        <time>2013-06-16T08:18:28Z</time>
      </trkpt>
      <trkpt lat="45.92227" lon="5.76306">
        <ele>1178.71</ele>
        <time>2013-06-16T08:18:56Z</time>
      </trkpt>
      <trkpt lat="45.9221" lon="5.76304">
        <ele>1183.19</ele>
        <time>2013-06-16T08:19:08Z</time>
      </trkpt>
      <trkpt lat="45.92191" lon="5.76306">
        <ele>1190.43</ele>
        <time>2013-06-16T08:19:27Z</time>
      </trkpt>
      <trkpt lat="45.92173" lon="5.76306">
        <ele>1202.52</ele>
        <time>2013-06-16T08:19:49Z</time>
      </trkpt>
      <trkpt lat="45.92156" lon="5.76311">
        <ele>1218.2</ele>
        <time>2013-06-16T08:20:08Z</time>
      </trkpt>
      <trkpt lat="45.92137" lon="5.76315">
        <ele>1240.11</ele>
        <time>2013-06-16T08:20:29Z</time>
      </trkpt>
      <trkpt lat="45.92118" lon="5.7632">
        <ele>1244.71</ele>
        <time>2013-06-16T08:20:45Z</time>
      </trkpt>
      <trkpt lat="45.92099" lon="5.76316">
        <ele>1250.15</ele>
        <time>2013-06-16T08:21:06Z</time>
      </trkpt>
      <trkpt lat="45.92081" lon="5.76317">
        <ele>1254.85</ele>
        <time>2013-06-16T08:21:27Z</time>
      </trkpt>
      <trkpt lat="45.92062" lon="5.76312">
        <ele>1251.89</ele>
        <time>2013-06-16T08:21:46Z</time>
      </trkpt>
      <trkpt lat="45.92043" lon="5.76311">
        <ele>1243.92</ele>
        <time>2013-06-16T08:22:13Z</time>
      </trkpt>
      <trkpt lat="45.92025" lon="5.76314">
        <ele>1252.64</ele>
        <time>2013-06-16T08:22:34Z</time>
      </trkpt>
      <trkpt lat="45.92007" lon="5.76307">
        <ele>1231.58</ele>
        <time>2013-06-16T08:23:00Z</time>
      </trkpt>
      <trkpt lat="45.91988" lon="5.76308">
        <ele>1234.43</ele>
        <time>2013-06-16T08:23:17Z</time>
      </trkpt>
      <trkpt lat="45.91969" lon="5.76308">
        <ele>1240.05</ele>
        <time>2013-06-16T08:23:39Z</time>
      </trkpt>
      <trkpt lat="45.91951" lon="5.76311">
        <ele>1235.57</ele>
        <time>2013-06-16T08:24:09Z</time>
      </trkpt>
      <trkpt lat="45.91932" lon="5.76309">
        <ele>1241.96</ele>
        <time>2013-06-16T08:24:43Z</time>
      </trkpt>
      <trkpt lat="45.91912" lon="5.76303">
        <ele>1244.93</ele>
        <time>2013-06-16T08:25:30Z</time>
      </trkpt>
      <trkpt lat="45.91889" lon="5.76297">
        <ele>1239.92</ele>
        <time>2013-06-16T08:25:56Z</time>
      </trkpt>
      <trkpt lat="45.9187" lon="5.76298">
        <ele>1256.95</ele>
        <time>2013-06-16T08:26:20Z</time>
      </trkpt>
      <trkpt lat="45.91851" lon="5.76293">
        <ele>1244.88</ele>
        <time>2013-06-16T08:26:51Z</time>
      </trkpt>
      <trkpt lat="45.91834" lon="5.76285">
        <ele>1269.86</ele>
        <time>2013-06-16T08:27:27Z</time>
      </trkpt>
      <trkpt lat="45.91818" lon="5.76272">
        <ele>1296.43</ele>
        <time>2013-06-16T08:29:02Z</time>
      </trkpt>
      <trkpt lat="45.918" lon="5.76267">
        <ele>1256.1</ele>
        <time>2013-06-16T08:29:48Z</time>
      </trkpt>
      <trkpt lat="45.91779" lon="5.76266">
        <ele>1258.95</ele>
        <time>2013-06-16T08:30:36Z</time>
      </trkpt>
      <trkpt lat="45.9176" lon="5.7627">
        <ele>1274.46</ele>
        <time>2013-06-16T08:31:26Z</time>
      </trkpt>
      <trkpt lat="45.91743" lon="5.76261">
        <ele>1268.46</ele>
        <time>2013-06-16T08:31:50Z</time>
      </trkpt>
      <trkpt lat="45.9173" lon="5.76241">
        <ele>1251.97</ele>
        <time>2013-06-16T08:32:16Z</time>
      </trkpt>
      <trkpt lat="45.91716" lon="5.76224">
        <ele>1258.54</ele>
        <time>2013-06-16T08:32:53Z</time>
      </trkpt>
      <trkpt lat="45.91698" lon="5.76221">
        <ele>1254.09</ele>
        <time>2013-06-16T08:33:12Z</time>
      </trkpt>
      <trkpt lat="45.91684" lon="5.76204">
        <ele>1267.18</ele>
        <time>2013-06-16T08:33:46Z</time>
      </trkpt>
      <trkpt lat="45.91667" lon="5.76195">
        <ele>1265.59</ele>
        <time>2013-06-16T08:34:10Z</time>
      </trkpt>
      <trkpt lat="45.91649" lon="5.76185">
        <ele>1275.97</ele>
        <time>2013-06-16T08:34:34Z</time>
      </trkpt>
      <trkpt lat="45.91637" lon="5.76165">
        <ele>1267.76</ele>
        <time>2013-06-16T08:34:54Z</time>
      </trkpt>
      <trkpt lat="45.91619" lon="5.76166">
        <ele>1284.65</ele>
        <time>2013-06-16T08:35:28Z</time>
      </trkpt>
      <trkpt lat="45.91601" lon="5.76164">
        <ele>1284.08</ele>
        <time>2013-06-16T08:35:51Z</time>
      </trkpt>
      <trkpt lat="45.91583" lon="5.76155">
        <ele>1267.51</ele>
        <time>2013-06-16T08:36:23Z</time>
      </trkpt>
      <trkpt lat="45.91567" lon="5.76144">
        <ele>1274.04</ele>
        <time>2013-06-16T08:36:42Z</time>
      </trkpt>
      <trkpt lat="45.91548" lon="5.76139">
        <ele>1292.75</ele>
        <time>2013-06-16T08:37:05Z</time>
      </trkpt>
      <trkpt lat="45.91529" lon="5.76135">
        <ele>1299.78</ele>
        <time>2013-06-16T08:37:28Z</time>
      </trkpt>
      <trkpt lat="45.91511" lon="5.76133">
        <ele>1307.27</ele>
        <time>2013-06-16T08:37:53Z</time>
      </trkpt>
      <trkpt lat="45.91493" lon="5.76127">
        <ele>1306.21</ele>
        <time>2013-06-16T08:38:15Z</time>
      </trkpt>
      <trkpt lat="45.91476" lon="5.76115">
        <ele>1302</ele>
        <time>2013-06-16T08:38:50Z</time>
      </trkpt>
      <trkpt lat="45.91459" lon="5.76106">
        <ele>1312.57</ele>
        <time>2013-06-16T08:39:16Z</time>
      </trkpt>
      <trkpt lat="45.91441" lon="5.76099">
        <ele>1316.77</ele>
        <time>2013-06-16T08:39:44Z</time>
      </trkpt>
      <trkpt lat="45.91425" lon="5.76088">
        <ele>1313.77</ele>
        <time>2013-06-16T08:40:19Z</time>
      </trkpt>
      <trkpt lat="45.91408" lon="5.76078">
        <ele>1301.05</ele>
        <time>2013-06-16T08:40:52Z</time>
      </trkpt>
      <trkpt lat="45.91394" lon="5.76062">
        <ele>1312.19</ele>
        <time>2013-06-16T08:41:21Z</time>
      </trkpt>
      <trkpt lat="45.91376" lon="5.76054">
        <ele>1320.85</ele>
        <time>2013-06-16T08:41:42Z</time>
      </trkpt>
      <trkpt lat="45.91357" lon="5.76053">
        <ele>1318.65</ele>
        <time>2013-06-16T08:42:07Z</time>
      </trkpt>
      <trkpt lat="45.91341" lon="5.76042">
        <ele>1324.03</ele>
        <time>2013-06-16T08:42:39Z</time>
      </trkpt>
      <trkpt lat="45.91326" lon="5.76026">
        <ele>1345.5</ele>
        <time>2013-06-16T08:43:31Z</time>
      </trkpt>
      <trkpt lat="45.91313" lon="5.76009">
        <ele>1331.94</ele>
        <time>2013-06-16T08:44:02Z</time>
      </trkpt>
      <trkpt lat="45.91294" lon="5.76004">
        <ele>1339.06</ele>
        <time>2013-06-16T08:44:25Z</time>
      </trkpt>
      <trkpt lat="45.91276" lon="5.75997">
        <ele>1344.4</ele>
        <time>2013-06-16T08:45:37Z</time>
      </trkpt>
      <trkpt lat="45.91258" lon="5.75991">
        <ele>1355.63</ele>
        <time>2013-06-16T08:46:13Z</time>
      </trkpt>
      <trkpt lat="45.91241" lon="5.75981">
        <ele>1347.68</ele>
        <time>2013-06-16T08:46:35Z</time>
      </trkpt>
      <trkpt lat="45.91224" lon="5.75972">
        <ele>1348.42</ele>
        <time>2013-06-16T08:47:02Z</time>
      </trkpt>
      <trkpt lat="45.91206" lon="5.75963">
        <ele>1350.51</ele>
        <time>2013-06-16T08:47:34Z</time>
      </trkpt>
      <trkpt lat="45.91188" lon="5.75955">
        <ele>1354.79</ele>
        <time>2013-06-16T08:47:59Z</time>
      </trkpt>
      <trkpt lat="45.91171" lon="5.75946">
        <ele>1358.52</ele>
        <time>2013-06-16T08:48:22Z</time>
      </trkpt>
      <trkpt lat="45.91155" lon="5.75934">
        <ele>1359.63</ele>
        <time>2013-06-16T08:48:47Z</time>
      </trkpt>
      <trkpt lat="45.91138" lon="5.75925">
        <ele>1360</ele>
        <time>2013-06-16T08:49:07Z</time>
      </trkpt>
      <trkpt lat="45.91121" lon="5.75911">
        <ele>1364.37</ele>
        <time>2013-06-16T08:49:31Z</time>
      </trkpt>
      <trkpt lat="45.91104" lon="5.75901">
        <ele>1364.54</ele>
        <time>2013-06-16T08:49:57Z</time>
      </trkpt>
      <trkpt lat="45.91088" lon="5.75889">
        <ele>1369.68</ele>
        <time>2013-06-16T08:50:21Z</time>
      </trkpt>
      <trkpt lat="45.9107" lon="5.75884">
        <ele>1370</ele>
        <time>2013-06-16T08:50:58Z</time>
      </trkpt>
      <trkpt lat="45.91051" lon="5.75883">
        <ele>1373.1</ele>
        <time>2013-06-16T08:51:23Z</time>
      </trkpt>
      <trkpt lat="45.91036" lon="5.7587">
        <ele>1372.9</ele>
        <time>2013-06-16T08:51:51Z</time>
      </trkpt>
      <trkpt lat="45.9102" lon="5.75856">
        <ele>1381.24</ele>
        <time>2013-06-16T08:52:28Z</time>
      </trkpt>
      <trkpt lat="45.91002" lon="5.75853">
        <ele>1375.34</ele>
        <time>2013-06-16T08:52:49Z</time>
      </trkpt>
      <trkpt lat="45.90984" lon="5.75844">
        <ele>1379.1</ele>
        <time>2013-06-16T08:53:09Z</time>
      </trkpt>
      <trkpt lat="45.90967" lon="5.75834">
        <ele>1374.36</ele>
        <time>2013-06-16T08:53:29Z</time>
      </trkpt>
      <trkpt lat="45.90949" lon="5.75822">
        <ele>1380.67</ele>
        <time>2013-06-16T08:53:50Z</time>
      </trkpt>
      <trkpt lat="45.90933" lon="5.75809">
        <ele>1381.67</ele>
        <time>2013-06-16T08:54:11Z</time>
      </trkpt>
      <trkpt lat="45.90917" lon="5.75795">
        <ele>1384.7</ele>
        <time>2013-06-16T08:55:33Z</time>
      </trkpt>
      <trkpt lat="45.909" lon="5.75785">
        <ele>1381.8</ele>
        <time>2013-06-16T08:55:47Z</time>
      </trkpt>
      <trkpt lat="45.90882" lon="5.75776">
        <ele>1379.56</ele>
        <time>2013-06-16T08:56:05Z</time>
      </trkpt>
      <trkpt lat="45.90864" lon="5.75769">
        <ele>1384.25</ele>
        <time>2013-06-16T08:56:20Z</time>
      </trkpt>
      <trkpt lat="45.90846" lon="5.75763">
        <ele>1379.26</ele>
        <time>2013-06-16T08:56:36Z</time>
      </trkpt>
      <trkpt lat="45.90828" lon="5.75755">
        <ele>1374.54</ele>
        <time>2013-06-16T08:56:52Z</time>
      </trkpt>
      <trkpt lat="45.90811" lon="5.75749">
        <ele>1376.45</ele>
        <time>2013-06-16T08:57:08Z</time>
      </trkpt>
      <trkpt lat="45.90792" lon="5.75744">
        <ele>1377.35</ele>
        <time>2013-06-16T08:57:23Z</time>
      </trkpt>
      <trkpt lat="45.90775" lon="5.75736">
        <ele>1376.13</ele>
        <time>2013-06-16T08:57:46Z</time>
      </trkpt>
      <trkpt lat="45.90757" lon="5.75727">
        <ele>1375.53</ele>
        <time>2013-06-16T08:58:01Z</time>
      </trkpt>
      <trkpt lat="45.90738" lon="5.75719">
        <ele>1374.25</ele>
        <time>2013-06-16T08:58:16Z</time>
      </trkpt>
      <trkpt lat="45.9072" lon="5.75712">
        <ele>1375.28</ele>
        <time>2013-06-16T08:58:34Z</time>
      </trkpt>
      <trkpt lat="45.90702" lon="5.75707">
        <ele>1369.44</ele>
        <time>2013-06-16T08:58:52Z</time>
      </trkpt>
      <trkpt lat="45.90684" lon="5.757">
        <ele>1368.53</ele>
        <time>2013-06-16T08:59:06Z</time>
      </trkpt>
      <trkpt lat="45.90666" lon="5.75693">
        <ele>1366.63</ele>
        <time>2013-06-16T08:59:20Z</time>
      </trkpt>
      <trkpt lat="45.90648" lon="5.75687">
        <ele>1366.19</ele>
        <time>2013-06-16T08:59:35Z</time>
      </trkpt>
      <trkpt lat="45.9063" lon="5.75677">
        <ele>1367.05</ele>
        <time>2013-06-16T08:59:49Z</time>
      </trkpt>
      <trkpt lat="45.90611" lon="5.75673">
        <ele>1362.62</ele>
        <time>2013-06-16T09:00:05Z</time>
      </trkpt>
      <trkpt lat="45.90593" lon="5.75667">
        <ele>1358.69</ele>
        <time>2013-06-16T09:00:21Z</time>
      </trkpt>
      <trkpt lat="45.90574" lon="5.75661">
        <ele>1359.75</ele>
        <time>2013-06-16T09:00:34Z</time>
      </trkpt>
      <trkpt lat="45.90558" lon="5.75652">
        <ele>1357.48</ele>
        <time>2013-06-16T09:00:47Z</time>
      </trkpt>
      <trkpt lat="45.90539" lon="5.75646">
        <ele>1356.6</ele>
        <time>2013-06-16T09:01:03Z</time>
      </trkpt>
      <trkpt lat="45.90521" lon="5.75639">
        <ele>1357.42</ele>
        <time>2013-06-16T09:01:33Z</time>
      </trkpt>
      <trkpt lat="45.90503" lon="5.75633">
        <ele>1352.42</ele>
        <time>2013-06-16T09:01:50Z</time>
      </trkpt>
      <trkpt lat="45.90484" lon="5.75626">
        <ele>1350.17</ele>
        <time>2013-06-16T09:02:07Z</time>
      </trkpt>
      <trkpt lat="45.90466" lon="5.75622">
        <ele>1347.63</ele>
        <time>2013-06-16T09:02:22Z</time>
      </trkpt>
      <trkpt lat="45.90448" lon="5.75617">
        <ele>1344.22</ele>
        <time>2013-06-16T09:02:37Z</time>
      </trkpt>
      <trkpt lat="45.9043" lon="5.75613">
        <ele>1338.68</ele>
        <time>2013-06-16T09:02:53Z</time>
      </trkpt>
      <trkpt lat="45.90411" lon="5.75606">
        <ele>1337.27</ele>
        <time>2013-06-16T09:03:09Z</time>
      </trkpt>
      <trkpt lat="45.90392" lon="5.75602">
        <ele>1337.01</ele>
        <time>2013-06-16T09:03:24Z</time>
      </trkpt>
      <trkpt lat="45.90374" lon="5.75605">
        <ele>1336.19</ele>
        <time>2013-06-16T09:03:43Z</time>
      </trkpt>
      <trkpt lat="45.90355" lon="5.75601">
        <ele>1334.82</ele>
        <time>2013-06-16T09:03:58Z</time>
      </trkpt>
      <trkpt lat="45.90336" lon="5.75599">
        <ele>1335.8</ele>
        <time>2013-06-16T09:04:13Z</time>
      </trkpt>
      <trkpt lat="45.90318" lon="5.75599">
        <ele>1334.36</ele>
        <time>2013-06-16T09:04:26Z</time>
      </trkpt>
      <trkpt lat="45.903" lon="5.75603">
        <ele>1329.61</ele>
        <time>2013-06-16T09:04:41Z</time>
      </trkpt>
      <trkpt lat="45.90282" lon="5.75606">
        <ele>1323.03</ele>
        <time>2013-06-16T09:04:56Z</time>
      </trkpt>
      <trkpt lat="45.90264" lon="5.75612">
        <ele>1323.84</ele>
        <time>2013-06-16T09:05:10Z</time>
      </trkpt>
      <trkpt lat="45.90247" lon="5.75621">
        <ele>1302.61</ele>
        <time>2013-06-16T09:05:43Z</time>
      </trkpt>
      <trkpt lat="45.90228" lon="5.75624">
        <ele>1320.88</ele>
        <time>2013-06-16T09:06:00Z</time>
      </trkpt>
      <trkpt lat="45.90211" lon="5.7563">
        <ele>1320.98</ele>
        <time>2013-06-16T09:06:16Z</time>
      </trkpt>
      <trkpt lat="45.90192" lon="5.75639">
        <ele>1318.29</ele>
        <time>2013-06-16T09:06:31Z</time>
      </trkpt>
      <trkpt lat="45.90173" lon="5.75641">
        <ele>1320.85</ele>
        <time>2013-06-16T09:06:44Z</time>
      </trkpt>
      <trkpt lat="45.90155" lon="5.75642">
        <ele>1317.41</ele>
        <time>2013-06-16T09:06:59Z</time>
      </trkpt>
      <trkpt lat="45.90136" lon="5.75644">
        <ele>1318.97</ele>
        <time>2013-06-16T09:07:13Z</time>
      </trkpt>
      <trkpt lat="45.90118" lon="5.75645">
        <ele>1321.27</ele>
        <time>2013-06-16T09:07:26Z</time>
      </trkpt>
      <trkpt lat="45.90099" lon="5.75646">
        <ele>1321.51</ele>
        <time>2013-06-16T09:07:41Z</time>
      </trkpt>
      <trkpt lat="45.9008" lon="5.75648">
        <ele>1322.69</ele>
        <time>2013-06-16T09:07:56Z</time>
      </trkpt>
      <trkpt lat="45.90062" lon="5.75647">
        <ele>1325.88</ele>
        <time>2013-06-16T09:08:12Z</time>
      </trkpt>
      <trkpt lat="45.90044" lon="5.75655">
        <ele>1319.13</ele>
        <time>2013-06-16T09:08:26Z</time>
      </trkpt>
      <trkpt lat="45.90026" lon="5.75658">
        <ele>1311.99</ele>
        <time>2013-06-16T09:08:43Z</time>
      </trkpt>
      <trkpt lat="45.90008" lon="5.75659">
        <ele>1308.59</ele>
        <time>2013-06-16T09:08:57Z</time>
      </trkpt>
      <trkpt lat="45.8999" lon="5.75655">
        <ele>1318.57</ele>
        <time>2013-06-16T09:09:15Z</time>
      </trkpt>
      <trkpt lat="45.89971" lon="5.75653">
        <ele>1317.12</ele>
        <time>2013-06-16T09:09:29Z</time>
      </trkpt>
      <trkpt lat="45.89963" lon="5.75677">
        <ele>1287.7</ele>
        <time>2013-06-16T09:10:51Z</time>
      </trkpt>
      <trkpt lat="45.89945" lon="5.75674">
        <ele>1288.39</ele>
        <time>2013-06-16T09:11:04Z</time>
      </trkpt>
      <trkpt lat="45.89925" lon="5.75673">
        <ele>1297.5</ele>
        <time>2013-06-16T09:11:19Z</time>
      </trkpt>
      <trkpt lat="45.89906" lon="5.75672">
        <ele>1305.58</ele>
        <time>2013-06-16T09:11:33Z</time>
      </trkpt>
      <trkpt lat="45.89888" lon="5.75673">
        <ele>1308.03</ele>
        <time>2013-06-16T09:12:01Z</time>
      </trkpt>
      <trkpt lat="45.8987" lon="5.75668">
        <ele>1312.63</ele>
        <time>2013-06-16T09:12:15Z</time>
      </trkpt>
      <trkpt lat="45.89851" lon="5.75671">
        <ele>1297.13</ele>
        <time>2013-06-16T09:13:17Z</time>
      </trkpt>
      <trkpt lat="45.89833" lon="5.75673">
        <ele>1299.34</ele>
        <time>2013-06-16T09:13:35Z</time>
      </trkpt>
      <trkpt lat="45.89816" lon="5.75683">
        <ele>1292.93</ele>
        <time>2013-06-16T09:13:53Z</time>
      </trkpt>
      <trkpt lat="45.89798" lon="5.7569">
        <ele>1301.19</ele>
        <time>2013-06-16T09:14:08Z</time>
      </trkpt>
      <trkpt lat="45.8978" lon="5.75697">
        <ele>1304.2</ele>
        <time>2013-06-16T09:15:03Z</time>
      </trkpt>
      <trkpt lat="45.89763" lon="5.75706">
        <ele>1292.69</ele>
        <time>2013-06-16T09:15:42Z</time>
      </trkpt>
      <trkpt lat="45.89745" lon="5.75709">
        <ele>1292.49</ele>
        <time>2013-06-16T09:16:04Z</time>
      </trkpt>
      <trkpt lat="45.89728" lon="5.75717">
        <ele>1289.2</ele>
        <time>2013-06-16T09:16:18Z</time>
      </trkpt>
      <trkpt lat="45.8971" lon="5.75727">
        <ele>1297.69</ele>
        <time>2013-06-16T09:16:33Z</time>
      </trkpt>
      <trkpt lat="45.89691" lon="5.7573">
        <ele>1297.77</ele>
        <time>2013-06-16T09:16:53Z</time>
      </trkpt>
      <trkpt lat="45.89673" lon="5.7573">
        <ele>1299.98</ele>
        <time>2013-06-16T09:17:08Z</time>
      </trkpt>
      <trkpt lat="45.89654" lon="5.75731">
        <ele>1306.67</ele>
        <time>2013-06-16T09:17:21Z</time>
      </trkpt>
      <trkpt lat="45.89636" lon="5.7574">
        <ele>1300.39</ele>
        <time>2013-06-16T09:17:35Z</time>
      </trkpt>
      <trkpt lat="45.89618" lon="5.75741">
        <ele>1304.15</ele>
        <time>2013-06-16T09:17:52Z</time>
      </trkpt>
      <trkpt lat="45.89599" lon="5.75746">
        <ele>1298.76</ele>
        <time>2013-06-16T09:18:06Z</time>
      </trkpt>
      <trkpt lat="45.8958" lon="5.75746">
        <ele>1301.24</ele>
        <time>2013-06-16T09:18:23Z</time>
      </trkpt>
      <trkpt lat="45.89562" lon="5.75745">
        <ele>1295.3</ele>
        <time>2013-06-16T09:18:38Z</time>
      </trkpt>
      <trkpt lat="45.89543" lon="5.75749">
        <ele>1283.74</ele>
        <time>2013-06-16T09:19:04Z</time>
      </trkpt>
      <trkpt lat="45.89525" lon="5.75751">
        <ele>1284.2</ele>
        <time>2013-06-16T09:20:30Z</time>
      </trkpt>
      <trkpt lat="45.89506" lon="5.75748">
        <ele>1296.57</ele>
        <time>2013-06-16T09:20:54Z</time>
      </trkpt>
      <trkpt lat="45.89487" lon="5.75749">
        <ele>1286</ele>
        <time>2013-06-16T09:21:12Z</time>
      </trkpt>
      <trkpt lat="45.89468" lon="5.75749">
        <ele>1284.28</ele>
        <time>2013-06-16T09:21:29Z</time>
      </trkpt>
      <trkpt lat="45.8945" lon="5.75753">
        <ele>1283.61</ele>
        <time>2013-06-16T09:21:41Z</time>
      </trkpt>
      <trkpt lat="45.89433" lon="5.75758">
        <ele>1276.32</ele>
        <time>2013-06-16T09:21:57Z</time>
      </trkpt>
      <trkpt lat="45.89414" lon="5.75757">
        <ele>1268.38</ele>
        <time>2013-06-16T09:22:19Z</time>
      </trkpt>
      <trkpt lat="45.89395" lon="5.75754">
        <ele>1266.73</ele>
        <time>2013-06-16T09:22:35Z</time>
      </trkpt>
      <trkpt lat="45.89377" lon="5.75754">
        <ele>1265.87</ele>
        <time>2013-06-16T09:22:49Z</time>
      </trkpt>
      <trkpt lat="45.89359" lon="5.75753">
        <ele>1259.47</ele>
        <time>2013-06-16T09:23:07Z</time>
      </trkpt>
      <trkpt lat="45.8934" lon="5.75752">
        <ele>1257.73</ele>
        <time>2013-06-16T09:23:22Z</time>
      </trkpt>
      <trkpt lat="45.89322" lon="5.75748">
        <ele>1251.89</ele>
        <time>2013-06-16T09:23:41Z</time>
      </trkpt>
      <trkpt lat="45.89303" lon="5.75746">
        <ele>1237.48</ele>
        <time>2013-06-16T09:24:01Z</time>
      </trkpt>
      <trkpt lat="45.89285" lon="5.75743">
        <ele>1238.02</ele>
        <time>2013-06-16T09:24:19Z</time>
      </trkpt>
      <trkpt lat="45.89268" lon="5.75732">
        <ele>1233.14</ele>
        <time>2013-06-16T09:24:39Z</time>
      </trkpt>
      <trkpt lat="45.8925" lon="5.75732">
        <ele>1223.75</ele>
        <time>2013-06-16T09:24:57Z</time>
      </trkpt>
      <trkpt lat="45.89231" lon="5.75729">
        <ele>1220.78</ele>
        <time>2013-06-16T09:25:14Z</time>
      </trkpt>
      <trkpt lat="45.89212" lon="5.75724">
        <ele>1217.51</ele>
        <time>2013-06-16T09:25:35Z</time>
      </trkpt>
      <trkpt lat="45.89194" lon="5.75715">
        <ele>1210</ele>
        <time>2013-06-16T09:25:53Z</time>
      </trkpt>
      <trkpt lat="45.89176" lon="5.75711">
        <ele>1211.77</ele>
        <time>2013-06-16T09:26:11Z</time>
      </trkpt>
      <trkpt lat="45.89159" lon="5.75703">
        <ele>1209.61</ele>
        <time>2013-06-16T09:26:29Z</time>
      </trkpt>
      <trkpt lat="45.89144" lon="5.75689">
        <ele>1208.2</ele>
        <time>2013-06-16T09:26:47Z</time>
      </trkpt>
      <trkpt lat="45.89126" lon="5.7568">
        <ele>1206.51</ele>
        <time>2013-06-16T09:27:06Z</time>
      </trkpt>
      <trkpt lat="45.89109" lon="5.75667">
        <ele>1205.51</ele>
        <time>2013-06-16T09:27:22Z</time>
      </trkpt>
      <trkpt lat="45.89092" lon="5.75656">
        <ele>1195.99</ele>
        <time>2013-06-16T09:27:39Z</time>
      </trkpt>
      <trkpt lat="45.89076" lon="5.75646">
        <ele>1191.12</ele>
        <time>2013-06-16T09:27:54Z</time>
      </trkpt>
      <trkpt lat="45.89058" lon="5.75637">
        <ele>1190.29</ele>
        <time>2013-06-16T09:28:15Z</time>
      </trkpt>
      <trkpt lat="45.89042" lon="5.75623">
        <ele>1185.16</ele>
        <time>2013-06-16T09:28:37Z</time>
      </trkpt>
      <trkpt lat="45.89026" lon="5.7561">
        <ele>1185.89</ele>
        <time>2013-06-16T09:28:55Z</time>
      </trkpt>
      <trkpt lat="45.89009" lon="5.75598">
        <ele>1183.25</ele>
        <time>2013-06-16T09:29:12Z</time>
      </trkpt>
      <trkpt lat="45.88993" lon="5.75586">
        <ele>1168.42</ele>
        <time>2013-06-16T09:30:00Z</time>
      </trkpt>
      <trkpt lat="45.88977" lon="5.75572">
        <ele>1165.61</ele>
        <time>2013-06-16T09:30:34Z</time>
      </trkpt>
      <trkpt lat="45.88966" lon="5.75551">
        <ele>1164.89</ele>
        <time>2013-06-16T09:30:56Z</time>
      </trkpt>
      <trkpt lat="45.88956" lon="5.75528">
        <ele>1167.65</ele>
        <time>2013-06-16T09:31:15Z</time>
      </trkpt>
      <trkpt lat="45.88946" lon="5.75505">
        <ele>1161.35</ele>
        <time>2013-06-16T09:31:30Z</time>
      </trkpt>
      <trkpt lat="45.88944" lon="5.75479">
        <ele>1151.53</ele>
        <time>2013-06-16T09:31:57Z</time>
      </trkpt>
      <trkpt lat="45.88929" lon="5.75464">
        <ele>1154.77</ele>
        <time>2013-06-16T09:32:47Z</time>
      </trkpt>
      <trkpt lat="45.8891" lon="5.75458">
        <ele>1165.87</ele>
        <time>2013-06-16T09:33:22Z</time>
      </trkpt>
      <trkpt lat="45.8889" lon="5.75452">
        <ele>1164.42</ele>
        <time>2013-06-16T09:33:36Z</time>
      </trkpt>
      <trkpt lat="45.88873" lon="5.75446">
        <ele>1168.99</ele>
        <time>2013-06-16T09:34:10Z</time>
      </trkpt>
      <trkpt lat="45.88855" lon="5.75438">
        <ele>1165.17</ele>
        <time>2013-06-16T09:34:29Z</time>
      </trkpt>
      <trkpt lat="45.88835" lon="5.75433">
        <ele>1174.02</ele>
        <time>2013-06-16T09:34:55Z</time>
      </trkpt>
      <trkpt lat="45.88817" lon="5.75435">
        <ele>1179.49</ele>
        <time>2013-06-16T09:35:17Z</time>
      </trkpt>
      <trkpt lat="45.88798" lon="5.75434">
        <ele>1182.76</ele>
        <time>2013-06-16T09:35:47Z</time>
      </trkpt>
      <trkpt lat="45.8878" lon="5.75433">
        <ele>1183.91</ele>
        <time>2013-06-16T09:36:30Z</time>
      </trkpt>
      <trkpt lat="45.88762" lon="5.7544">
        <ele>1200.83</ele>
        <time>2013-06-16T09:37:05Z</time>
      </trkpt>
      <trkpt lat="45.88744" lon="5.75441">
        <ele>1200.65</ele>
        <time>2013-06-16T09:37:34Z</time>
      </trkpt>
      <trkpt lat="45.88728" lon="5.75427">
        <ele>1212.12</ele>
        <time>2013-06-16T09:38:24Z</time>
      </trkpt>
      <trkpt lat="45.8871" lon="5.7542">
        <ele>1217.38</ele>
        <time>2013-06-16T09:38:54Z</time>
      </trkpt>
      <trkpt lat="45.88692" lon="5.75424">
        <ele>1215.88</ele>
        <time>2013-06-16T09:39:30Z</time>
      </trkpt>
      <trkpt lat="45.88674" lon="5.75427">
        <ele>1222.37</ele>
        <time>2013-06-16T09:39:57Z</time>
      </trkpt>
      <trkpt lat="45.88656" lon="5.75429">
        <ele>1245.81</ele>
        <time>2013-06-16T09:40:38Z</time>
      </trkpt>
      <trkpt lat="45.88637" lon="5.75422">
        <ele>1246.54</ele>
        <time>2013-06-16T09:41:39Z</time>
      </trkpt>
      <trkpt lat="45.88618" lon="5.75417">
        <ele>1248</ele>
        <time>2013-06-16T09:41:59Z</time>
      </trkpt>
      <trkpt lat="45.88598" lon="5.75409">
        <ele>1253.45</ele>
        <time>2013-06-16T09:42:43Z</time>
      </trkpt>
      <trkpt lat="45.88578" lon="5.75411">
        <ele>1266.09</ele>
        <time>2013-06-16T09:43:17Z</time>
      </trkpt>
      <trkpt lat="45.88559" lon="5.75413">
        <ele>1262.93</ele>
        <time>2013-06-16T09:43:47Z</time>
      </trkpt>
      <trkpt lat="45.88536" lon="5.75402">
        <ele>1276.05</ele>
        <time>2013-06-16T09:44:28Z</time>
      </trkpt>
      <trkpt lat="45.88518" lon="5.75396">
        <ele>1272.25</ele>
        <time>2013-06-16T09:46:34Z</time>
      </trkpt>
      <trkpt lat="45.885" lon="5.7539">
        <ele>1269.63</ele>
        <time>2013-06-16T09:46:56Z</time>
      </trkpt>
      <trkpt lat="45.88482" lon="5.75395">
        <ele>1279.79</ele>
        <time>2013-06-16T09:47:35Z</time>
      </trkpt>
      <trkpt lat="45.88464" lon="5.75394">
        <ele>1290.91</ele>
        <time>2013-06-16T09:48:23Z</time>
      </trkpt>
      <trkpt lat="45.8845" lon="5.75377">
        <ele>1292.65</ele>
        <time>2013-06-16T09:49:03Z</time>
      </trkpt>
      <trkpt lat="45.88438" lon="5.75358">
        <ele>1299.81</ele>
        <time>2013-06-16T09:49:41Z</time>
      </trkpt>
      <trkpt lat="45.88422" lon="5.75345">
        <ele>1296.17</ele>
        <time>2013-06-16T09:50:25Z</time>
      </trkpt>
      <trkpt lat="45.88404" lon="5.75347">
        <ele>1299.46</ele>
        <time>2013-06-16T09:51:14Z</time>
      </trkpt>
      <trkpt lat="45.88388" lon="5.7536">
        <ele>1304.69</ele>
        <time>2013-06-16T09:51:45Z</time>
      </trkpt>
      <trkpt lat="45.8837" lon="5.75355">
        <ele>1310.33</ele>
        <time>2013-06-16T09:52:09Z</time>
      </trkpt>
      <trkpt lat="45.88351" lon="5.75358">
        <ele>1312.34</ele>
        <time>2013-06-16T09:52:42Z</time>
      </trkpt>
      <trkpt lat="45.88333" lon="5.75363">
        <ele>1316.25</ele>
        <time>2013-06-16T09:53:53Z</time>
      </trkpt>
      <trkpt lat="45.88315" lon="5.75358">
        <ele>1320.42</ele>
        <time>2013-06-16T09:54:20Z</time>
      </trkpt>
      <trkpt lat="45.88297" lon="5.75367">
        <ele>1320.82</ele>
        <time>2013-06-16T09:55:13Z</time>
      </trkpt>
      <trkpt lat="45.88281" lon="5.75381">
        <ele>1325.43</ele>
        <time>2013-06-16T09:55:38Z</time>
      </trkpt>
      <trkpt lat="45.88264" lon="5.75387">
        <ele>1330.8</ele>
        <time>2013-06-16T09:56:00Z</time>
      </trkpt>
      <trkpt lat="45.88247" lon="5.75397">
        <ele>1328.38</ele>
        <time>2013-06-16T09:56:24Z</time>
      </trkpt>
      <trkpt lat="45.88229" lon="5.754">
        <ele>1323.74</ele>
        <time>2013-06-16T09:56:59Z</time>
      </trkpt>
      <trkpt lat="45.88211" lon="5.75406">
        <ele>1328.27</ele>
        <time>2013-06-16T09:57:34Z</time>
      </trkpt>
      <trkpt lat="45.88225" lon="5.75389">
        <ele>1322.23</ele>
        <time>2013-06-16T09:58:25Z</time>
      </trkpt>
      <trkpt lat="45.88224" lon="5.75362">
        <ele>1319.88</ele>
        <time>2013-06-16T09:58:57Z</time>
      </trkpt>
      <trkpt lat="45.88213" lon="5.7534">
        <ele>1317.2</ele>
        <time>2013-06-16T09:59:30Z</time>
      </trkpt>
      <trkpt lat="45.88204" lon="5.75315">
        <ele>1309.34</ele>
        <time>2013-06-16T09:59:46Z</time>
      </trkpt>
      <trkpt lat="45.88201" lon="5.75288">
        <ele>1306.96</ele>
        <time>2013-06-16T10:00:03Z</time>
      </trkpt>
      <trkpt lat="45.88197" lon="5.75262">
        <ele>1305.7</ele>
        <time>2013-06-16T10:00:19Z</time>
      </trkpt>
      <trkpt lat="45.88186" lon="5.75241">
        <ele>1310.2</ele>
        <time>2013-06-16T10:06:36Z</time>
      </trkpt>
      <trkpt lat="45.88169" lon="5.75227">
        <ele>1308.63</ele>
        <time>2013-06-16T10:06:52Z</time>
      </trkpt>
      <trkpt lat="45.88153" lon="5.75212">
        <ele>1310.03</ele>
        <time>2013-06-16T10:07:10Z</time>
      </trkpt>
      <trkpt lat="45.88137" lon="5.75198">
        <ele>1309.02</ele>
        <time>2013-06-16T10:07:26Z</time>
      </trkpt>
      <trkpt lat="45.88122" lon="5.75184">
        <ele>1305.78</ele>
        <time>2013-06-16T10:07:41Z</time>
      </trkpt>
      <trkpt lat="45.88114" lon="5.7516">
        <ele>1311.79</ele>
        <time>2013-06-16T10:08:01Z</time>
      </trkpt>
      <trkpt lat="45.88098" lon="5.75149">
        <ele>1310.29</ele>
        <time>2013-06-16T10:08:46Z</time>
      </trkpt>
      <trkpt lat="45.88084" lon="5.75131">
        <ele>1309.79</ele>
        <time>2013-06-16T10:09:19Z</time>
      </trkpt>
      <trkpt lat="45.88075" lon="5.75107">
        <ele>1312.79</ele>
        <time>2013-06-16T10:09:40Z</time>
      </trkpt>
      <trkpt lat="45.88066" lon="5.75084">
        <ele>1309.77</ele>
        <time>2013-06-16T10:09:54Z</time>
      </trkpt>
      <trkpt lat="45.88051" lon="5.75067">
        <ele>1312.47</ele>
        <time>2013-06-16T10:10:08Z</time>
      </trkpt>
      <trkpt lat="45.88034" lon="5.75055">
        <ele>1307.48</ele>
        <time>2013-06-16T10:10:26Z</time>
      </trkpt>
      <trkpt lat="45.88016" lon="5.75049">
        <ele>1310.63</ele>
        <time>2013-06-16T10:10:38Z</time>
      </trkpt>
      <trkpt lat="45.87998" lon="5.75044">
        <ele>1307.53</ele>
        <time>2013-06-16T10:10:50Z</time>
      </trkpt>
      <trkpt lat="45.8798" lon="5.75037">
        <ele>1308.31</ele>
        <time>2013-06-16T10:11:03Z</time>
      </trkpt>
      <trkpt lat="45.87961" lon="5.75032">
        <ele>1306.42</ele>
        <time>2013-06-16T10:11:17Z</time>
      </trkpt>
      <trkpt lat="45.87942" lon="5.75028">
        <ele>1304.41</ele>
        <time>2013-06-16T10:11:32Z</time>
      </trkpt>
      <trkpt lat="45.87923" lon="5.75022">
        <ele>1303.21</ele>
        <time>2013-06-16T10:11:47Z</time>
      </trkpt>
      <trkpt lat="45.87905" lon="5.75018">
        <ele>1299.39</ele>
        <time>2013-06-16T10:12:06Z</time>
      </trkpt>
      <trkpt lat="45.87887" lon="5.75014">
        <ele>1297.5</ele>
        <time>2013-06-16T10:13:15Z</time>
      </trkpt>
      <trkpt lat="45.87868" lon="5.75008">
        <ele>1296.2</ele>
        <time>2013-06-16T10:13:37Z</time>
      </trkpt>
      <trkpt lat="45.8747" lon="5.74974">
        <ele>1252.92</ele>
        <time>2013-06-16T10:37:49Z</time>
      </trkpt>
      <trkpt lat="45.87486" lon="5.74958">
        <ele>1257.56</ele>
        <time>2013-06-16T10:50:54Z</time>
      </trkpt>
      <trkpt lat="45.87471" lon="5.74972">
        <ele>1254.45</ele>
        <time>2013-06-16T10:58:58Z</time>
      </trkpt>
      <trkpt lat="45.87481" lon="5.74992">
        <ele>1265.29</ele>
        <time>2013-06-16T11:08:06Z</time>
      </trkpt>
      <trkpt lat="45.87499" lon="5.74982">
        <ele>1263.1</ele>
        <time>2013-06-16T11:08:26Z</time>
      </trkpt>
      <trkpt lat="45.87517" lon="5.74979">
        <ele>1266.01</ele>
        <time>2013-06-16T11:08:52Z</time>
      </trkpt>
      <trkpt lat="45.87535" lon="5.74982">
        <ele>1266.23</ele>
        <time>2013-06-16T11:09:15Z</time>
      </trkpt>
      <trkpt lat="45.87553" lon="5.74986">
        <ele>1270.43</ele>
        <time>2013-06-16T11:09:34Z</time>
      </trkpt>
      <trkpt lat="45.87571" lon="5.74983">
        <ele>1270.21</ele>
        <time>2013-06-16T11:09:54Z</time>
      </trkpt>
      <trkpt lat="45.87589" lon="5.74984">
        <ele>1272.33</ele>
        <time>2013-06-16T11:10:12Z</time>
      </trkpt>
      <trkpt lat="45.87608" lon="5.74978">
        <ele>1271.9</ele>
        <time>2013-06-16T11:10:30Z</time>
      </trkpt>
      <trkpt lat="45.87626" lon="5.74978">
        <ele>1275.72</ele>
        <time>2013-06-16T11:10:52Z</time>
      </trkpt>
      <trkpt lat="45.87645" lon="5.74976">
        <ele>1279.18</ele>
        <time>2013-06-16T11:11:15Z</time>
      </trkpt>
      <trkpt lat="45.87662" lon="5.74983">
        <ele>1278.41</ele>
        <time>2013-06-16T11:11:36Z</time>
      </trkpt>
      <trkpt lat="45.87681" lon="5.74987">
        <ele>1283.6</ele>
        <time>2013-06-16T11:11:56Z</time>
      </trkpt>
      <trkpt lat="45.87699" lon="5.7498">
        <ele>1283.97</ele>
        <time>2013-06-16T11:12:13Z</time>
      </trkpt>
      <trkpt lat="45.87713" lon="5.74963">
        <ele>1285.55</ele>
        <time>2013-06-16T11:12:37Z</time>
      </trkpt>
      <trkpt lat="45.87703" lon="5.74941">
        <ele>1283.51</ele>
        <time>2013-06-16T11:12:53Z</time>
      </trkpt>
      <trkpt lat="45.87684" lon="5.74942">
        <ele>1278.78</ele>
        <time>2013-06-16T11:13:21Z</time>
      </trkpt>
      <trkpt lat="45.87665" lon="5.74935">
        <ele>1272.9</ele>
        <time>2013-06-16T11:13:37Z</time>
      </trkpt>
      <trkpt lat="45.87672" lon="5.74911">
        <ele>1269.43</ele>
        <time>2013-06-16T11:14:05Z</time>
      </trkpt>
      <trkpt lat="45.87688" lon="5.74898">
        <ele>1266.87</ele>
        <time>2013-06-16T11:14:24Z</time>
      </trkpt>
      <trkpt lat="45.87706" lon="5.7489">
        <ele>1267.37</ele>
        <time>2013-06-16T11:14:43Z</time>
      </trkpt>
      <trkpt lat="45.87723" lon="5.7488">
        <ele>1265.7</ele>
        <time>2013-06-16T11:14:56Z</time>
      </trkpt>
      <trkpt lat="45.8774" lon="5.74868">
        <ele>1259.88</ele>
        <time>2013-06-16T11:15:15Z</time>
      </trkpt>
      <trkpt lat="45.87755" lon="5.74853">
        <ele>1258.88</ele>
        <time>2013-06-16T11:15:34Z</time>
      </trkpt>
      <trkpt lat="45.87772" lon="5.74844">
        <ele>1249.44</ele>
        <time>2013-06-16T11:15:55Z</time>
      </trkpt>
      <trkpt lat="45.87789" lon="5.74832">
        <ele>1245.89</ele>
        <time>2013-06-16T11:16:15Z</time>
      </trkpt>
      <trkpt lat="45.87806" lon="5.74822">
        <ele>1249.78</ele>
        <time>2013-06-16T11:16:35Z</time>
      </trkpt>
      <trkpt lat="45.87823" lon="5.74812">
        <ele>1244.71</ele>
        <time>2013-06-16T11:16:51Z</time>
      </trkpt>
      <trkpt lat="45.87838" lon="5.74799">
        <ele>1246.5</ele>
        <time>2013-06-16T11:17:07Z</time>
      </trkpt>
      <trkpt lat="45.87854" lon="5.74787">
        <ele>1239.91</ele>
        <time>2013-06-16T11:17:22Z</time>
      </trkpt>
      <trkpt lat="45.87871" lon="5.74775">
        <ele>1238.22</ele>
        <time>2013-06-16T11:17:42Z</time>
      </trkpt>
      <trkpt lat="45.87888" lon="5.74763">
        <ele>1230.99</ele>
        <time>2013-06-16T11:17:57Z</time>
      </trkpt>
      <trkpt lat="45.87905" lon="5.74752">
        <ele>1226.62</ele>
        <time>2013-06-16T11:18:16Z</time>
      </trkpt>
      <trkpt lat="45.87921" lon="5.74739">
        <ele>1214.81</ele>
        <time>2013-06-16T11:18:33Z</time>
      </trkpt>
      <trkpt lat="45.87938" lon="5.74729">
        <ele>1211.72</ele>
        <time>2013-06-16T11:18:50Z</time>
      </trkpt>
      <trkpt lat="45.87952" lon="5.74712">
        <ele>1206.48</ele>
        <time>2013-06-16T11:19:08Z</time>
      </trkpt>
      <trkpt lat="45.87968" lon="5.747">
        <ele>1203.97</ele>
        <time>2013-06-16T11:19:25Z</time>
      </trkpt>
      <trkpt lat="45.87984" lon="5.74685">
        <ele>1200.43</ele>
        <time>2013-06-16T11:19:42Z</time>
      </trkpt>
      <trkpt lat="45.88001" lon="5.74675">
        <ele>1205.17</ele>
        <time>2013-06-16T11:19:58Z</time>
      </trkpt>
      <trkpt lat="45.88017" lon="5.7466">
        <ele>1193.92</ele>
        <time>2013-06-16T11:20:17Z</time>
      </trkpt>
      <trkpt lat="45.88033" lon="5.74646">
        <ele>1197.01</ele>
        <time>2013-06-16T11:20:33Z</time>
      </trkpt>
      <trkpt lat="45.8805" lon="5.74635">
        <ele>1194.48</ele>
        <time>2013-06-16T11:20:49Z</time>
      </trkpt>
      <trkpt lat="45.88067" lon="5.74622">
        <ele>1192.29</ele>
        <time>2013-06-16T11:21:07Z</time>
      </trkpt>
      <trkpt lat="45.88085" lon="5.74611">
        <ele>1176.84</ele>
        <time>2013-06-16T11:21:24Z</time>
      </trkpt>
      <trkpt lat="45.88102" lon="5.746">
        <ele>1176.89</ele>
        <time>2013-06-16T11:21:44Z</time>
      </trkpt>
      <trkpt lat="45.88119" lon="5.74589">
        <ele>1179.41</ele>
        <time>2013-06-16T11:22:00Z</time>
      </trkpt>
      <trkpt lat="45.88136" lon="5.74581">
        <ele>1180.55</ele>
        <time>2013-06-16T11:22:18Z</time>
      </trkpt>
      <trkpt lat="45.88152" lon="5.74567">
        <ele>1178.01</ele>
        <time>2013-06-16T11:22:33Z</time>
      </trkpt>
      <trkpt lat="45.8817" lon="5.74559">
        <ele>1176.43</ele>
        <time>2013-06-16T11:22:50Z</time>
      </trkpt>
      <trkpt lat="45.88186" lon="5.74548">
        <ele>1174.59</ele>
        <time>2013-06-16T11:23:06Z</time>
      </trkpt>
      <trkpt lat="45.88204" lon="5.74544">
        <ele>1174.11</ele>
        <time>2013-06-16T11:23:22Z</time>
      </trkpt>
      <trkpt lat="45.88222" lon="5.74538">
        <ele>1169.72</ele>
        <time>2013-06-16T11:23:40Z</time>
      </trkpt>
      <trkpt lat="45.8824" lon="5.74543">
        <ele>1164.91</ele>
        <time>2013-06-16T11:23:55Z</time>
      </trkpt>
      <trkpt lat="45.88255" lon="5.74559">
        <ele>1162.65</ele>
        <time>2013-06-16T11:24:12Z</time>
      </trkpt>
      <trkpt lat="45.88271" lon="5.74572">
        <ele>1151.04</ele>
        <time>2013-06-16T11:24:27Z</time>
      </trkpt>
      <trkpt lat="45.88278" lon="5.74548">
        <ele>1145.69</ele>
        <time>2013-06-16T11:24:54Z</time>
      </trkpt>
      <trkpt lat="45.88266" lon="5.7453">
        <ele>1142.42</ele>
        <time>2013-06-16T11:25:13Z</time>
      </trkpt>
      <trkpt lat="45.88253" lon="5.74509">
        <ele>1143.87</ele>
        <time>2013-06-16T11:25:33Z</time>
      </trkpt>
      <trkpt lat="45.88244" lon="5.74487">
        <ele>1140.25</ele>
        <time>2013-06-16T11:25:48Z</time>
      </trkpt>
      <trkpt lat="45.88237" lon="5.74461">
        <ele>1133.72</ele>
        <time>2013-06-16T11:26:08Z</time>
      </trkpt>
      <trkpt lat="45.88233" lon="5.74435">
        <ele>1132.98</ele>
        <time>2013-06-16T11:26:22Z</time>
      </trkpt>
      <trkpt lat="45.88229" lon="5.74409">
        <ele>1131.34</ele>
        <time>2013-06-16T11:26:41Z</time>
      </trkpt>
      <trkpt lat="45.88224" lon="5.74384">
        <ele>1125.98</ele>
        <time>2013-06-16T11:26:59Z</time>
      </trkpt>
      <trkpt lat="45.88219" lon="5.74359">
        <ele>1127.48</ele>
        <time>2013-06-16T11:27:15Z</time>
      </trkpt>
      <trkpt lat="45.88214" lon="5.74333">
        <ele>1119.09</ele>
        <time>2013-06-16T11:27:33Z</time>
      </trkpt>
      <trkpt lat="45.8821" lon="5.74307">
        <ele>1129.83</ele>
        <time>2013-06-16T11:28:14Z</time>
      </trkpt>
      <trkpt lat="45.882" lon="5.74286">
        <ele>1116.83</ele>
        <time>2013-06-16T11:28:54Z</time>
      </trkpt>
      <trkpt lat="45.88192" lon="5.74263">
        <ele>1113.13</ele>
        <time>2013-06-16T11:29:18Z</time>
      </trkpt>
      <trkpt lat="45.88181" lon="5.7424">
        <ele>1111.41</ele>
        <time>2013-06-16T11:29:33Z</time>
      </trkpt>
      <trkpt lat="45.88167" lon="5.74223">
        <ele>1114.25</ele>
        <time>2013-06-16T11:29:47Z</time>
      </trkpt>
      <trkpt lat="45.88154" lon="5.74204">
        <ele>1117.52</ele>
        <time>2013-06-16T11:30:01Z</time>
      </trkpt>
      <trkpt lat="45.8814" lon="5.74187">
        <ele>1114.71</ele>
        <time>2013-06-16T11:30:21Z</time>
      </trkpt>
      <trkpt lat="45.88128" lon="5.74167">
        <ele>1113.3</ele>
        <time>2013-06-16T11:30:36Z</time>
      </trkpt>
      <trkpt lat="45.88114" lon="5.7415">
        <ele>1123.36</ele>
        <time>2013-06-16T11:30:50Z</time>
      </trkpt>
      <trkpt lat="45.88104" lon="5.74128">
        <ele>1115.43</ele>
        <time>2013-06-16T11:31:03Z</time>
      </trkpt>
      <trkpt lat="45.88086" lon="5.7412">
        <ele>1116.22</ele>
        <time>2013-06-16T11:31:21Z</time>
      </trkpt>
      <trkpt lat="45.88068" lon="5.74126">
        <ele>1111.74</ele>
        <time>2013-06-16T11:31:48Z</time>
      </trkpt>
      <trkpt lat="45.8805" lon="5.74125">
        <ele>1118.63</ele>
        <time>2013-06-16T11:32:02Z</time>
      </trkpt>
      <trkpt lat="45.88032" lon="5.74117">
        <ele>1125.39</ele>
        <time>2013-06-16T11:32:17Z</time>
      </trkpt>
      <trkpt lat="45.88013" lon="5.74114">
        <ele>1120.07</ele>
        <time>2013-06-16T11:32:33Z</time>
      </trkpt>
      <trkpt lat="45.87994" lon="5.74108">
        <ele>1120.08</ele>
        <time>2013-06-16T11:32:47Z</time>
      </trkpt>
      <trkpt lat="45.87976" lon="5.74104">
        <ele>1120.72</ele>
        <time>2013-06-16T11:33:02Z</time>
      </trkpt>
      <trkpt lat="45.87957" lon="5.74106">
        <ele>1125.36</ele>
        <time>2013-06-16T11:33:18Z</time>
      </trkpt>
      <trkpt lat="45.8794" lon="5.74118">
        <ele>1117.74</ele>
        <time>2013-06-16T11:33:32Z</time>
      </trkpt>
      <trkpt lat="45.87924" lon="5.74132">
        <ele>1121.41</ele>
        <time>2013-06-16T11:35:32Z</time>
      </trkpt>
      <trkpt lat="45.87905" lon="5.74137">
        <ele>1106.76</ele>
        <time>2013-06-16T11:35:46Z</time>
      </trkpt>
      <trkpt lat="45.87895" lon="5.7416">
        <ele>1107.49</ele>
        <time>2013-06-16T11:36:01Z</time>
      </trkpt>
      <trkpt lat="45.87899" lon="5.74186">
        <ele>1099.21</ele>
        <time>2013-06-16T11:36:15Z</time>
      </trkpt>
      <trkpt lat="45.87911" lon="5.74205">
        <ele>1093.64</ele>
        <time>2013-06-16T11:36:28Z</time>
      </trkpt>
      <trkpt lat="45.87916" lon="5.74231">
        <ele>1092.25</ele>
        <time>2013-06-16T11:36:47Z</time>
      </trkpt>
      <trkpt lat="45.8792" lon="5.74257">
        <ele>1092.83</ele>
        <time>2013-06-16T11:37:01Z</time>
      </trkpt>
      <trkpt lat="45.8792" lon="5.74284">
        <ele>1088.71</ele>
        <time>2013-06-16T11:37:17Z</time>
      </trkpt>
      <trkpt lat="45.87919" lon="5.7431">
        <ele>1093.33</ele>
        <time>2013-06-16T11:37:35Z</time>
      </trkpt>
      <trkpt lat="45.87912" lon="5.74334">
        <ele>1090.89</ele>
        <time>2013-06-16T11:37:50Z</time>
      </trkpt>
      <trkpt lat="45.8791" lon="5.74307">
        <ele>1093.09</ele>
        <time>2013-06-16T11:38:28Z</time>
      </trkpt>
      <trkpt lat="45.87895" lon="5.74294">
        <ele>1077.62</ele>
        <time>2013-06-16T11:38:50Z</time>
      </trkpt>
      <trkpt lat="45.87882" lon="5.74276">
        <ele>1073.53</ele>
        <time>2013-06-16T11:39:08Z</time>
      </trkpt>
      <trkpt lat="45.8787" lon="5.74255">
        <ele>1061.26</ele>
        <time>2013-06-16T11:39:45Z</time>
      </trkpt>
      <trkpt lat="45.87852" lon="5.74248">
        <ele>1070.36</ele>
        <time>2013-06-16T11:40:25Z</time>
      </trkpt>
      <trkpt lat="45.87833" lon="5.74247">
        <ele>1057.25</ele>
        <time>2013-06-16T11:41:01Z</time>
      </trkpt>
      <trkpt lat="45.87817" lon="5.74257">
        <ele>1069.6</ele>
        <time>2013-06-16T11:41:26Z</time>
      </trkpt>
      <trkpt lat="45.87805" lon="5.74236">
        <ele>1044.22</ele>
        <time>2013-06-16T11:42:12Z</time>
      </trkpt>
      <trkpt lat="45.87786" lon="5.74233">
        <ele>1032.16</ele>
        <time>2013-06-16T11:43:17Z</time>
      </trkpt>
      <trkpt lat="45.87768" lon="5.74238">
        <ele>1019.59</ele>
        <time>2013-06-16T11:43:50Z</time>
      </trkpt>
      <trkpt lat="45.87751" lon="5.74242">
        <ele>1001.57</ele>
        <time>2013-06-16T11:44:21Z</time>
      </trkpt>
      <trkpt lat="45.87733" lon="5.74249">
        <ele>1003.2</ele>
        <time>2013-06-16T11:44:50Z</time>
      </trkpt>
      <trkpt lat="45.87714" lon="5.74254">
        <ele>997.89</ele>
        <time>2013-06-16T11:45:19Z</time>
      </trkpt>
      <trkpt lat="45.87698" lon="5.74266">
        <ele>994.3</ele>
        <time>2013-06-16T11:45:53Z</time>
      </trkpt>
      <trkpt lat="45.8768" lon="5.74274">
        <ele>988.46</ele>
        <time>2013-06-16T11:46:13Z</time>
      </trkpt>
      <trkpt lat="45.87661" lon="5.74274">
        <ele>971.77</ele>
        <time>2013-06-16T11:46:34Z</time>
      </trkpt>
      <trkpt lat="45.87646" lon="5.74289">
        <ele>968.12</ele>
        <time>2013-06-16T11:47:00Z</time>
      </trkpt>
      <trkpt lat="45.87628" lon="5.74291">
        <ele>967.74</ele>
        <time>2013-06-16T11:47:21Z</time>
      </trkpt>
      <trkpt lat="45.87607" lon="5.7429">
        <ele>973.45</ele>
        <time>2013-06-16T11:47:40Z</time>
      </trkpt>
      <trkpt lat="45.87591" lon="5.74303">
        <ele>969.61</ele>
        <time>2013-06-16T11:48:05Z</time>
      </trkpt>
      <trkpt lat="45.87578" lon="5.7432">
        <ele>944.51</ele>
        <time>2013-06-16T11:48:39Z</time>
      </trkpt>
      <trkpt lat="45.8756" lon="5.7433">
        <ele>952.42</ele>
        <time>2013-06-16T11:49:05Z</time>
      </trkpt>
      <trkpt lat="45.87543" lon="5.74342">
        <ele>1001.41</ele>
        <time>2013-06-16T11:49:13Z</time>
      </trkpt>
      <trkpt lat="45.87524" lon="5.74345">
        <ele>1019.76</ele>
        <time>2013-06-16T11:49:22Z</time>
      </trkpt>
      <trkpt lat="45.87504" lon="5.74341">
        <ele>999.62</ele>
        <time>2013-06-16T11:49:42Z</time>
      </trkpt>
      <trkpt lat="45.87488" lon="5.74353">
        <ele>976.22</ele>
        <time>2013-06-16T11:50:12Z</time>
      </trkpt>
      <trkpt lat="45.8747" lon="5.7436">
        <ele>975.21</ele>
        <time>2013-06-16T11:50:38Z</time>
      </trkpt>
      <trkpt lat="45.87452" lon="5.74363">
        <ele>974.05</ele>
        <time>2013-06-16T11:50:56Z</time>
      </trkpt>
      <trkpt lat="45.87435" lon="5.74373">
        <ele>974.75</ele>
        <time>2013-06-16T11:51:18Z</time>
      </trkpt>
      <trkpt lat="45.87417" lon="5.74365">
        <ele>960.7</ele>
        <time>2013-06-16T11:51:43Z</time>
      </trkpt>
      <trkpt lat="45.87399" lon="5.74367">
        <ele>969.42</ele>
        <time>2013-06-16T11:52:02Z</time>
      </trkpt>
      <trkpt lat="45.87384" lon="5.74385">
        <ele>967.69</ele>
        <time>2013-06-16T11:52:17Z</time>
      </trkpt>
      <trkpt lat="45.87366" lon="5.74392">
        <ele>971.52</ele>
        <time>2013-06-16T11:52:32Z</time>
      </trkpt>
      <trkpt lat="45.87347" lon="5.74396">
        <ele>970.89</ele>
        <time>2013-06-16T11:52:57Z</time>
      </trkpt>
      <trkpt lat="45.87329" lon="5.74391">
        <ele>966.32</ele>
        <time>2013-06-16T11:53:17Z</time>
      </trkpt>
      <trkpt lat="45.87311" lon="5.74395">
        <ele>971.54</ele>
        <time>2013-06-16T11:53:31Z</time>
      </trkpt>
      <trkpt lat="45.87293" lon="5.7439">
        <ele>966.03</ele>
        <time>2013-06-16T11:53:46Z</time>
      </trkpt>
      <trkpt lat="45.87279" lon="5.74408">
        <ele>962.53</ele>
        <time>2013-06-16T11:54:02Z</time>
      </trkpt>
      <trkpt lat="45.87269" lon="5.7443">
        <ele>963.93</ele>
        <time>2013-06-16T11:54:54Z</time>
      </trkpt>
      <trkpt lat="45.87253" lon="5.74443">
        <ele>960.65</ele>
        <time>2013-06-16T11:55:14Z</time>
      </trkpt>
      <trkpt lat="45.87237" lon="5.74452">
        <ele>965.61</ele>
        <time>2013-06-16T11:55:36Z</time>
      </trkpt>
      <trkpt lat="45.87219" lon="5.74453">
        <ele>970.9</ele>
        <time>2013-06-16T11:56:13Z</time>
      </trkpt>
      <trkpt lat="45.87201" lon="5.74462">
        <ele>968.23</ele>
        <time>2013-06-16T11:56:41Z</time>
      </trkpt>
      <trkpt lat="45.87184" lon="5.74472">
        <ele>956.11</ele>
        <time>2013-06-16T11:57:06Z</time>
      </trkpt>
      <trkpt lat="45.87166" lon="5.7447">
        <ele>961.96</ele>
        <time>2013-06-16T11:57:29Z</time>
      </trkpt>
      <trkpt lat="45.87148" lon="5.7448">
        <ele>966.51</ele>
        <time>2013-06-16T11:57:51Z</time>
      </trkpt>
      <trkpt lat="45.87127" lon="5.74465">
        <ele>967.62</ele>
        <time>2013-06-16T11:58:31Z</time>
      </trkpt>
      <trkpt lat="45.87109" lon="5.74475">
        <ele>967.23</ele>
        <time>2013-06-16T11:58:47Z</time>
      </trkpt>
      <trkpt lat="45.87091" lon="5.74484">
        <ele>950.74</ele>
        <time>2013-06-16T11:59:11Z</time>
      </trkpt>
      <trkpt lat="45.87075" lon="5.74496">
        <ele>957.7</ele>
        <time>2013-06-16T11:59:51Z</time>
      </trkpt>
      <trkpt lat="45.87096" lon="5.74494">
        <ele>762.62</ele>
        <time>2013-06-16T12:01:41Z</time>
      </trkpt>
      <trkpt lat="45.87077" lon="5.74497">
        <ele>744.62</ele>
        <time>2013-06-16T12:02:41Z</time>
      </trkpt>
      <trkpt lat="45.87059" lon="5.74506">
        <ele>744.44</ele>
        <time>2013-06-16T12:02:56Z</time>
      </trkpt>
      <trkpt lat="45.87045" lon="5.74522">
        <ele>737.78</ele>
        <time>2013-06-16T12:03:24Z</time>
      </trkpt>
      <trkpt lat="45.87026" lon="5.74525">
        <ele>739.18</ele>
        <time>2013-06-16T12:05:29Z</time>
      </trkpt>
      <trkpt lat="45.87006" lon="5.74533">
        <ele>741.49</ele>
        <time>2013-06-16T12:05:35Z</time>
      </trkpt>
      <trkpt lat="45.86987" lon="5.74534">
        <ele>741.9</ele>
        <time>2013-06-16T12:05:42Z</time>
      </trkpt>
      <trkpt lat="45.86968" lon="5.74542">
        <ele>739.21</ele>
        <time>2013-06-16T12:05:52Z</time>
      </trkpt>
      <trkpt lat="45.8695" lon="5.7455">
        <ele>738.22</ele>
        <time>2013-06-16T12:06:03Z</time>
      </trkpt>
      <trkpt lat="45.86931" lon="5.74556">
        <ele>736.55</ele>
        <time>2013-06-16T12:06:13Z</time>
      </trkpt>
      <trkpt lat="45.86914" lon="5.7456">
        <ele>732.01</ele>
        <time>2013-06-16T12:06:25Z</time>
      </trkpt>
      <trkpt lat="45.86895" lon="5.74565">
        <ele>728.43</ele>
        <time>2013-06-16T12:06:41Z</time>
      </trkpt>
      <trkpt lat="45.86882" lon="5.74583">
        <ele>721.09</ele>
        <time>2013-06-16T12:06:57Z</time>
      </trkpt>
      <trkpt lat="45.86863" lon="5.74583">
        <ele>717.59</ele>
        <time>2013-06-16T12:07:12Z</time>
      </trkpt>
      <trkpt lat="45.86845" lon="5.7459">
        <ele>715.35</ele>
        <time>2013-06-16T12:07:29Z</time>
      </trkpt>
      <trkpt lat="45.86829" lon="5.74606">
        <ele>709.69</ele>
        <time>2013-06-16T12:11:51Z</time>
      </trkpt>
      <trkpt lat="45.86809" lon="5.74611">
        <ele>709.24</ele>
        <time>2013-06-16T12:11:52Z</time>
      </trkpt>
      <trkpt lat="45.8679" lon="5.74615">
        <ele>707.39</ele>
        <time>2013-06-16T12:12:01Z</time>
      </trkpt>
      <trkpt lat="45.86771" lon="5.74617">
        <ele>707.3</ele>
        <time>2013-06-16T12:12:11Z</time>
      </trkpt>
      <trkpt lat="45.86753" lon="5.74623">
        <ele>705.86</ele>
        <time>2013-06-16T12:12:18Z</time>
      </trkpt>
      <trkpt lat="45.86735" lon="5.74632">
        <ele>703.87</ele>
        <time>2013-06-16T12:12:34Z</time>
      </trkpt>
      <trkpt lat="45.86718" lon="5.74643">
        <ele>700.6</ele>
        <time>2013-06-16T12:12:51Z</time>
      </trkpt>
      <trkpt lat="45.86699" lon="5.74646">
        <ele>696.36</ele>
        <time>2013-06-16T12:14:07Z</time>
      </trkpt>
      <trkpt lat="45.8668" lon="5.74651">
        <ele>690.62</ele>
        <time>2013-06-16T12:14:16Z</time>
      </trkpt>
      <trkpt lat="45.86662" lon="5.74652">
        <ele>683.3</ele>
        <time>2013-06-16T12:14:38Z</time>
      </trkpt>
      <trkpt lat="45.86645" lon="5.74661">
        <ele>669.42</ele>
        <time>2013-06-16T12:15:47Z</time>
      </trkpt>
      <trkpt lat="45.86625" lon="5.7466">
        <ele>666.45</ele>
        <time>2013-06-16T12:15:57Z</time>
      </trkpt>
      <trkpt lat="45.86608" lon="5.74666">
        <ele>665.6</ele>
        <time>2013-06-16T12:16:16Z</time>
      </trkpt>
      <trkpt lat="45.8659" lon="5.74659">
        <ele>661.84</ele>
        <time>2013-06-16T12:17:13Z</time>
      </trkpt>
      <trkpt lat="45.86571" lon="5.74662">
        <ele>662.37</ele>
        <time>2013-06-16T12:17:23Z</time>
      </trkpt>
      <trkpt lat="45.86554" lon="5.74654">
        <ele>654.73</ele>
        <time>2013-06-16T12:17:57Z</time>
      </trkpt>
      <trkpt lat="45.86549" lon="5.74629">
        <ele>612.4</ele>
        <time>2013-06-16T12:19:29Z</time>
      </trkpt>
      <trkpt lat="45.86535" lon="5.74611">
        <ele>611.23</ele>
        <time>2013-06-16T12:26:18Z</time>
      </trkpt>
      <trkpt lat="45.8652" lon="5.74596">
        <ele>616.47</ele>
        <time>2013-06-16T12:26:38Z</time>
      </trkpt>
      <trkpt lat="45.86502" lon="5.74586">
        <ele>619.57</ele>
        <time>2013-06-16T12:28:20Z</time>
      </trkpt>
      <trkpt lat="45.86474" lon="5.74575">
        <ele>616.98</ele>
        <time>2013-06-16T12:28:21Z</time>
      </trkpt>
      <trkpt lat="45.86459" lon="5.7459">
        <ele>606.22</ele>
        <time>2013-06-16T12:28:35Z</time>
      </trkpt>
      <trkpt lat="45.86426" lon="5.74632">
        <ele>608.88</ele>
        <time>2013-06-16T12:29:46Z</time>
      </trkpt>
      <trkpt lat="45.86423" lon="5.74538">
        <ele>605.83</ele>
        <time>2013-06-16T12:30:25Z</time>
      </trkpt>
      <trkpt lat="45.86402" lon="5.7454">
        <ele>594.19</ele>
        <time>2013-06-16T12:33:43Z</time>
      </trkpt>
      <trkpt lat="45.86381" lon="5.74545">
        <ele>592.44</ele>
        <time>2013-06-16T12:33:49Z</time>
      </trkpt>
      <trkpt lat="45.86363" lon="5.74544">
        <ele>589.98</ele>
        <time>2013-06-16T12:33:58Z</time>
      </trkpt>
      <trkpt lat="45.86347" lon="5.74556">
        <ele>583.28</ele>
        <time>2013-06-16T12:34:09Z</time>
      </trkpt>
      <trkpt lat="45.86329" lon="5.74554">
        <ele>577.63</ele>
        <time>2013-06-16T12:34:23Z</time>
      </trkpt>
      <trkpt lat="45.86311" lon="5.74565">
        <ele>572.16</ele>
        <time>2013-06-16T12:34:40Z</time>
      </trkpt>
      <trkpt lat="45.86296" lon="5.7458">
        <ele>561.26</ele>
        <time>2013-06-16T12:35:13Z</time>
      </trkpt>
      <trkpt lat="45.86278" lon="5.74581">
        <ele>555.91</ele>
        <time>2013-06-16T12:35:43Z</time>
      </trkpt>
      <trkpt lat="45.8626" lon="5.74585">
        <ele>548.67</ele>
        <time>2013-06-16T12:36:02Z</time>
      </trkpt>
      <trkpt lat="45.86242" lon="5.74592">
        <ele>539.53</ele>
        <time>2013-06-16T12:37:47Z</time>
      </trkpt>
      <trkpt lat="45.86223" lon="5.74589">
        <ele>537.17</ele>
        <time>2013-06-16T12:37:52Z</time>
      </trkpt>
      <trkpt lat="45.86205" lon="5.74586">
        <ele>530.19</ele>
        <time>2013-06-16T12:38:01Z</time>
      </trkpt>
      <trkpt lat="45.86195" lon="5.74609">
        <ele>490.89</ele>
        <time>2013-06-16T12:38:21Z</time>
      </trkpt>
      <trkpt lat="45.86182" lon="5.74589">
        <ele>471.34</ele>
        <time>2013-06-16T12:41:18Z</time>
      </trkpt>
      <trkpt lat="45.86166" lon="5.74577">
        <ele>469.07</ele>
        <time>2013-06-16T12:41:24Z</time>
      </trkpt>
      <trkpt lat="45.86155" lon="5.74555">
        <ele>464.17</ele>
        <time>2013-06-16T12:41:33Z</time>
      </trkpt>
      <trkpt lat="45.86139" lon="5.7454">
        <ele>461.77</ele>
        <time>2013-06-16T12:41:46Z</time>
      </trkpt>
      <trkpt lat="45.86122" lon="5.74528">
        <ele>459.93</ele>
        <time>2013-06-16T12:41:57Z</time>
      </trkpt>
      <trkpt lat="45.86103" lon="5.74525">
        <ele>458.27</ele>
        <time>2013-06-16T12:43:32Z</time>
      </trkpt>
      <trkpt lat="45.86083" lon="5.7452">
        <ele>457.57</ele>
        <time>2013-06-16T12:43:39Z</time>
      </trkpt>
      <trkpt lat="45.8608" lon="5.74545">
        <ele>409.26</ele>
        <time>2013-06-16T12:44:07Z</time>
      </trkpt>
      <trkpt lat="45.86076" lon="5.74571">
        <ele>375.97</ele>
        <time>2013-06-16T12:44:30Z</time>
      </trkpt>
      <trkpt lat="45.86061" lon="5.74586">
        <ele>366.39</ele>
        <time>2013-06-16T12:45:19Z</time>
      </trkpt>
      <trkpt lat="45.86046" lon="5.74602">
        <ele>360.39</ele>
        <time>2013-06-16T12:45:37Z</time>
      </trkpt>
      <trkpt lat="45.8603" lon="5.74615">
        <ele>356.3</ele>
        <time>2013-06-16T12:45:56Z</time>
      </trkpt>
      <trkpt lat="45.86013" lon="5.74626">
        <ele>355.34</ele>
        <time>2013-06-16T12:46:20Z</time>
      </trkpt>
      <trkpt lat="45.85997" lon="5.74639">
        <ele>352.72</ele>
        <time>2013-06-16T12:46:37Z</time>
      </trkpt>
      <trkpt lat="45.85982" lon="5.74655">
        <ele>354.29</ele>
        <time>2013-06-16T12:47:02Z</time>
      </trkpt>
      <trkpt lat="45.85976" lon="5.74679">
        <ele>340.13</ele>
        <time>2013-06-16T12:47:24Z</time>
      </trkpt>
      <trkpt lat="45.85965" lon="5.74702">
        <ele>334.89</ele>
        <time>2013-06-16T12:47:51Z</time>
      </trkpt>
      <trkpt lat="45.8595" lon="5.74717">
        <ele>335.6</ele>
        <time>2013-06-16T12:48:12Z</time>
      </trkpt>
      <trkpt lat="45.8594" lon="5.74738">
        <ele>327.5</ele>
        <time>2013-06-16T12:48:27Z</time>
      </trkpt>
      <trkpt lat="45.85933" lon="5.74763">
        <ele>324.67</ele>
        <time>2013-06-16T12:48:44Z</time>
      </trkpt>
      <trkpt lat="45.85922" lon="5.74784">
        <ele>324.3</ele>
        <time>2013-06-16T12:49:04Z</time>
      </trkpt>
      <trkpt lat="45.85913" lon="5.74807">
        <ele>322.74</ele>
        <time>2013-06-16T12:49:23Z</time>
      </trkpt>
      <trkpt lat="45.85895" lon="5.74812">
        <ele>326.24</ele>
        <time>2013-06-16T12:49:34Z</time>
      </trkpt>
      <trkpt lat="45.85877" lon="5.74817">
        <ele>329.92</ele>
        <time>2013-06-16T12:49:47Z</time>
      </trkpt>
      <trkpt lat="45.85867" lon="5.7484">
        <ele>320.09</ele>
        <time>2013-06-16T12:50:05Z</time>
      </trkpt>
      <trkpt lat="45.85865" lon="5.74867">
        <ele>312.86</ele>
        <time>2013-06-16T12:50:22Z</time>
      </trkpt>
      <trkpt lat="45.85857" lon="5.7489">
        <ele>310.19</ele>
        <time>2013-06-16T12:50:39Z</time>
      </trkpt>
      <trkpt lat="45.85854" lon="5.74917">
        <ele>305.66</ele>
        <time>2013-06-16T12:50:54Z</time>
      </trkpt>
      <trkpt lat="45.85845" lon="5.74941">
        <ele>302.68</ele>
        <time>2013-06-16T12:51:12Z</time>
      </trkpt>
      <trkpt lat="45.85832" lon="5.74959">
        <ele>303.59</ele>
        <time>2013-06-16T12:51:31Z</time>
      </trkpt>
      <trkpt lat="45.85816" lon="5.74974">
        <ele>303.87</ele>
        <time>2013-06-16T12:51:47Z</time>
      </trkpt>
      <trkpt lat="45.85799" lon="5.74984">
        <ele>307.84</ele>
        <time>2013-06-16T12:52:02Z</time>
      </trkpt>
      <trkpt lat="45.8578" lon="5.74997">
        <ele>309.31</ele>
        <time>2013-06-16T12:52:14Z</time>
      </trkpt>
      <trkpt lat="45.85766" lon="5.75013">
        <ele>307.33</ele>
        <time>2013-06-16T12:52:28Z</time>
      </trkpt>
      <trkpt lat="45.8575" lon="5.75027">
        <ele>306.12</ele>
        <time>2013-06-16T12:52:44Z</time>
      </trkpt>
      <trkpt lat="45.85733" lon="5.75039">
        <ele>300.26</ele>
        <time>2013-06-16T12:53:02Z</time>
      </trkpt>
      <trkpt lat="45.85717" lon="5.75054">
        <ele>296.19</ele>
        <time>2013-06-16T12:53:16Z</time>
      </trkpt>
      <trkpt lat="45.857" lon="5.75061">
        <ele>298.8</ele>
        <time>2013-06-16T12:53:27Z</time>
      </trkpt>
      <trkpt lat="45.85687" lon="5.75079">
        <ele>295.64</ele>
        <time>2013-06-16T12:53:41Z</time>
      </trkpt>
      <trkpt lat="45.85682" lon="5.75104">
        <ele>286.61</ele>
        <time>2013-06-16T12:53:55Z</time>
      </trkpt>
      <trkpt lat="45.85679" lon="5.75131">
        <ele>283.51</ele>
        <time>2013-06-16T12:56:03Z</time>
      </trkpt>
      <trkpt lat="45.85679" lon="5.75158">
        <ele>282.85</ele>
        <time>2013-06-16T12:56:17Z</time>
      </trkpt>
      <trkpt lat="45.85681" lon="5.75184">
        <ele>284.17</ele>
        <time>2013-06-16T12:56:31Z</time>
      </trkpt>
      <trkpt lat="45.85683" lon="5.7521">
        <ele>283.28</ele>
        <time>2013-06-16T12:56:48Z</time>
      </trkpt>
      <trkpt lat="45.85679" lon="5.75237">
        <ele>277.26</ele>
        <time>2013-06-16T12:57:01Z</time>
      </trkpt>
      <trkpt lat="45.85676" lon="5.75264">
        <ele>282.78</ele>
        <time>2013-06-16T12:57:16Z</time>
      </trkpt>
      <trkpt lat="45.85672" lon="5.7529">
        <ele>286.23</ele>
        <time>2013-06-16T12:57:32Z</time>
      </trkpt>
      <trkpt lat="45.8567" lon="5.75317">
        <ele>287.57</ele>
        <time>2013-06-16T12:57:46Z</time>
      </trkpt>
      <trkpt lat="45.85662" lon="5.75341">
        <ele>292.57</ele>
        <time>2013-06-16T12:58:04Z</time>
      </trkpt>
      <trkpt lat="45.85655" lon="5.75365">
        <ele>295.08</ele>
        <time>2013-06-16T12:58:21Z</time>
      </trkpt>
      <trkpt lat="45.8565" lon="5.75391">
        <ele>295.76</ele>
        <time>2013-06-16T12:59:56Z</time>
      </trkpt>
      <trkpt lat="45.85642" lon="5.75415">
        <ele>295.06</ele>
        <time>2013-06-16T13:00:10Z</time>
      </trkpt>
      <trkpt lat="45.85634" lon="5.75439">
        <ele>293.17</ele>
        <time>2013-06-16T13:00:33Z</time>
      </trkpt>
      <trkpt lat="45.85627" lon="5.75463">
        <ele>291.76</ele>
        <time>2013-06-16T13:00:52Z</time>
      </trkpt>
      <trkpt lat="45.8562" lon="5.75489">
        <ele>289.35</ele>
        <time>2013-06-16T13:01:09Z</time>
      </trkpt>
      <trkpt lat="45.85618" lon="5.75515">
        <ele>288.15</ele>
        <time>2013-06-16T13:01:27Z</time>
      </trkpt>
      <trkpt lat="45.85608" lon="5.75537">
        <ele>294.95</ele>
        <time>2013-06-16T13:01:47Z</time>
      </trkpt>
      <trkpt lat="45.85595" lon="5.75556">
        <ele>302.92</ele>
        <time>2013-06-16T13:02:03Z</time>
      </trkpt>
      <trkpt lat="45.85583" lon="5.75576">
        <ele>305.47</ele>
        <time>2013-06-16T13:02:21Z</time>
      </trkpt>
      <trkpt lat="45.85569" lon="5.75594">
        <ele>310.9</ele>
        <time>2013-06-16T13:02:38Z</time>
      </trkpt>
      <trkpt lat="45.85557" lon="5.75615">
        <ele>313.4</ele>
        <time>2013-06-16T13:03:00Z</time>
      </trkpt>
      <trkpt lat="45.85549" lon="5.7564">
        <ele>309.97</ele>
        <time>2013-06-16T13:03:17Z</time>
      </trkpt>
      <trkpt lat="45.85541" lon="5.75663">
        <ele>315.07</ele>
        <time>2013-06-16T13:03:34Z</time>
      </trkpt>
      <trkpt lat="45.85542" lon="5.75691">
        <ele>311.56</ele>
        <time>2013-06-16T13:04:00Z</time>
      </trkpt>
      <trkpt lat="45.85531" lon="5.75714">
        <ele>317.03</ele>
        <time>2013-06-16T13:04:15Z</time>
      </trkpt>
      <trkpt lat="45.85523" lon="5.75739">
        <ele>323.73</ele>
        <time>2013-06-16T13:04:33Z</time>
      </trkpt>
      <trkpt lat="45.85516" lon="5.75763">
        <ele>329.81</ele>
        <time>2013-06-16T13:04:53Z</time>
      </trkpt>
      <trkpt lat="45.85513" lon="5.7579">
        <ele>329.07</ele>
        <time>2013-06-16T13:05:12Z</time>
      </trkpt>
      <trkpt lat="45.85505" lon="5.75814">
        <ele>334.29</ele>
        <time>2013-06-16T13:05:41Z</time>
      </trkpt>
      <trkpt lat="45.85501" lon="5.75841">
        <ele>336.5</ele>
        <time>2013-06-16T13:05:55Z</time>
      </trkpt>
      <trkpt lat="45.85497" lon="5.75867">
        <ele>335.83</ele>
        <time>2013-06-16T13:06:13Z</time>
      </trkpt>
      <trkpt lat="45.85487" lon="5.75889">
        <ele>332.09</ele>
        <time>2013-06-16T13:06:31Z</time>
      </trkpt>
      <trkpt lat="45.85474" lon="5.75909">
        <ele>336.42</ele>
        <time>2013-06-16T13:07:15Z</time>
      </trkpt>
      <trkpt lat="45.85464" lon="5.75931">
        <ele>332.45</ele>
        <time>2013-06-16T13:07:26Z</time>
      </trkpt>
      <trkpt lat="45.85453" lon="5.75954">
        <ele>332.06</ele>
        <time>2013-06-16T13:07:42Z</time>
      </trkpt>
      <trkpt lat="45.85444" lon="5.75978">
        <ele>332.2</ele>
        <time>2013-06-16T13:07:55Z</time>
      </trkpt>
      <trkpt lat="45.85434" lon="5.76">
        <ele>331.32</ele>
        <time>2013-06-16T13:08:08Z</time>
      </trkpt>
      <trkpt lat="45.85423" lon="5.76022">
        <ele>335.23</ele>
        <time>2013-06-16T13:08:23Z</time>
      </trkpt>
      <trkpt lat="45.85409" lon="5.7604">
        <ele>339.5</ele>
        <time>2013-06-16T13:08:36Z</time>
      </trkpt>
      <trkpt lat="45.854" lon="5.76064">
        <ele>340.51</ele>
        <time>2013-06-16T13:08:50Z</time>
      </trkpt>
      <trkpt lat="45.8539" lon="5.76085">
        <ele>338.91</ele>
        <time>2013-06-16T13:09:04Z</time>
      </trkpt>
      <trkpt lat="45.85381" lon="5.76109">
        <ele>337.95</ele>
        <time>2013-06-16T13:09:18Z</time>
      </trkpt>
      <trkpt lat="45.85368" lon="5.76129">
        <ele>337.21</ele>
        <time>2013-06-16T13:09:33Z</time>
      </trkpt>
      <trkpt lat="45.85362" lon="5.76153">
        <ele>335.78</ele>
        <time>2013-06-16T13:09:52Z</time>
      </trkpt>
      <trkpt lat="45.8535" lon="5.76174">
        <ele>336.69</ele>
        <time>2013-06-16T13:10:04Z</time>
      </trkpt>
      <trkpt lat="45.85339" lon="5.76195">
        <ele>339.84</ele>
        <time>2013-06-16T13:10:17Z</time>
      </trkpt>
      <trkpt lat="45.85327" lon="5.76216">
        <ele>336.81</ele>
        <time>2013-06-16T13:10:33Z</time>
      </trkpt>
      <trkpt lat="45.85312" lon="5.76231">
        <ele>340.96</ele>
        <time>2013-06-16T13:10:48Z</time>
      </trkpt>
      <trkpt lat="45.85308" lon="5.76257">
        <ele>344.91</ele>
        <time>2013-06-16T13:11:42Z</time>
      </trkpt>
      <trkpt lat="45.85304" lon="5.76284">
        <ele>351.86</ele>
        <time>2013-06-16T13:11:58Z</time>
      </trkpt>
      <trkpt lat="45.85307" lon="5.7631">
        <ele>353.28</ele>
        <time>2013-06-16T13:12:09Z</time>
      </trkpt>
      <trkpt lat="45.85306" lon="5.76336">
        <ele>360.32</ele>
        <time>2013-06-16T13:12:49Z</time>
      </trkpt>
      <trkpt lat="45.85301" lon="5.76361">
        <ele>362.11</ele>
        <time>2013-06-16T13:13:07Z</time>
      </trkpt>
      <trkpt lat="45.85297" lon="5.76387">
        <ele>368.34</ele>
        <time>2013-06-16T13:13:28Z</time>
      </trkpt>
      <trkpt lat="45.85301" lon="5.76413">
        <ele>367.3</ele>
        <time>2013-06-16T13:14:00Z</time>
      </trkpt>
      <trkpt lat="45.85292" lon="5.76436">
        <ele>378.77</ele>
        <time>2013-06-16T13:15:23Z</time>
      </trkpt>
      <trkpt lat="45.85284" lon="5.7646">
        <ele>381.4</ele>
        <time>2013-06-16T13:16:00Z</time>
      </trkpt>
      <trkpt lat="45.85272" lon="5.7648">
        <ele>383.71</ele>
        <time>2013-06-16T13:16:16Z</time>
      </trkpt>
      <trkpt lat="45.85254" lon="5.76484">
        <ele>387.61</ele>
        <time>2013-06-16T13:16:33Z</time>
      </trkpt>
      <trkpt lat="45.85235" lon="5.76487">
        <ele>390.48</ele>
        <time>2013-06-16T13:16:47Z</time>
      </trkpt>
      <trkpt lat="45.85217" lon="5.76492">
        <ele>395.08</ele>
        <time>2013-06-16T13:17:13Z</time>
      </trkpt>
      <trkpt lat="45.85201" lon="5.76504">
        <ele>392.92</ele>
        <time>2013-06-16T13:17:25Z</time>
      </trkpt>
      <trkpt lat="45.85193" lon="5.76529">
        <ele>387.85</ele>
        <time>2013-06-16T13:17:41Z</time>
      </trkpt>
      <trkpt lat="45.85189" lon="5.76555">
        <ele>384.99</ele>
        <time>2013-06-16T13:17:59Z</time>
      </trkpt>
      <trkpt lat="45.8519" lon="5.76581">
        <ele>383.8</ele>
        <time>2013-06-16T13:18:26Z</time>
      </trkpt>
      <trkpt lat="45.85188" lon="5.76608">
        <ele>383.3</ele>
        <time>2013-06-16T13:18:38Z</time>
      </trkpt>
      <trkpt lat="45.85182" lon="5.76632">
        <ele>382.68</ele>
        <time>2013-06-16T13:18:53Z</time>
      </trkpt>
      <trkpt lat="45.85177" lon="5.76659">
        <ele>383.7</ele>
        <time>2013-06-16T13:19:12Z</time>
      </trkpt>
      <trkpt lat="45.85176" lon="5.76685">
        <ele>384.79</ele>
        <time>2013-06-16T13:19:28Z</time>
      </trkpt>
      <trkpt lat="45.85179" lon="5.76712">
        <ele>378.02</ele>
        <time>2013-06-16T13:19:45Z</time>
      </trkpt>
      <trkpt lat="45.85179" lon="5.7674">
        <ele>379.68</ele>
        <time>2013-06-16T13:19:58Z</time>
      </trkpt>
      <trkpt lat="45.85179" lon="5.76768">
        <ele>377.68</ele>
        <time>2013-06-16T13:20:10Z</time>
      </trkpt>
      <trkpt lat="45.85178" lon="5.76794">
        <ele>377.46</ele>
        <time>2013-06-16T13:20:32Z</time>
      </trkpt>
      <trkpt lat="45.85177" lon="5.7682">
        <ele>373.59</ele>
        <time>2013-06-16T13:20:46Z</time>
      </trkpt>
      <trkpt lat="45.85181" lon="5.76846">
        <ele>369.98</ele>
        <time>2013-06-16T13:20:59Z</time>
      </trkpt>
      <trkpt lat="45.85183" lon="5.76872">
        <ele>369.6</ele>
        <time>2013-06-16T13:21:13Z</time>
      </trkpt>
      <trkpt lat="45.85183" lon="5.76899">
        <ele>366.79</ele>
        <time>2013-06-16T13:21:31Z</time>
      </trkpt>
      <trkpt lat="45.85185" lon="5.76926">
        <ele>363.59</ele>
        <time>2013-06-16T13:22:28Z</time>
      </trkpt>
      <trkpt lat="45.85188" lon="5.76953">
        <ele>359.79</ele>
        <time>2013-06-16T13:22:41Z</time>
      </trkpt>
      <trkpt lat="45.85196" lon="5.76977">
        <ele>358.83</ele>
        <time>2013-06-16T13:22:55Z</time>
      </trkpt>
      <trkpt lat="45.85212" lon="5.76989">
        <ele>352.27</ele>
        <time>2013-06-16T13:23:11Z</time>
      </trkpt>
      <trkpt lat="45.85221" lon="5.77013">
        <ele>348.34</ele>
        <time>2013-06-16T13:23:48Z</time>
      </trkpt>
      <trkpt lat="45.85213" lon="5.77037">
        <ele>352.08</ele>
        <time>2013-06-16T13:24:10Z</time>
      </trkpt>
      <trkpt lat="45.85196" lon="5.77026">
        <ele>350.89</ele>
        <time>2013-06-16T13:24:29Z</time>
      </trkpt>
      <trkpt lat="45.8518" lon="5.77013">
        <ele>348.24</ele>
        <time>2013-06-16T13:24:43Z</time>
      </trkpt>
      <trkpt lat="45.85182" lon="5.77039">
        <ele>336.81</ele>
        <time>2013-06-16T13:25:34Z</time>
      </trkpt>
      <trkpt lat="45.85196" lon="5.77056">
        <ele>331.61</ele>
        <time>2013-06-16T13:25:52Z</time>
      </trkpt>
      <trkpt lat="45.85204" lon="5.7708">
        <ele>331.16</ele>
        <time>2013-06-16T13:26:07Z</time>
      </trkpt>
      <trkpt lat="45.8521" lon="5.77104">
        <ele>337.91</ele>
        <time>2013-06-16T13:26:36Z</time>
      </trkpt>
      <trkpt lat="45.85221" lon="5.77127">
        <ele>338.23</ele>
        <time>2013-06-16T13:26:52Z</time>
      </trkpt>
      <trkpt lat="45.85221" lon="5.77154">
        <ele>338.51</ele>
        <time>2013-06-16T13:27:09Z</time>
      </trkpt>
      <trkpt lat="45.85222" lon="5.77181">
        <ele>330.65</ele>
        <time>2013-06-16T13:27:21Z</time>
      </trkpt>
      <trkpt lat="45.85223" lon="5.77207">
        <ele>327.27</ele>
        <time>2013-06-16T13:27:31Z</time>
      </trkpt>
      <trkpt lat="45.85226" lon="5.77233">
        <ele>323.12</ele>
        <time>2013-06-16T13:27:43Z</time>
      </trkpt>
      <trkpt lat="45.85228" lon="5.7726">
        <ele>321.07</ele>
        <time>2013-06-16T13:27:55Z</time>
      </trkpt>
      <trkpt lat="45.85226" lon="5.77287">
        <ele>321.76</ele>
        <time>2013-06-16T13:28:09Z</time>
      </trkpt>
      <trkpt lat="45.85226" lon="5.77314">
        <ele>322.81</ele>
        <time>2013-06-16T13:28:24Z</time>
      </trkpt>
      <trkpt lat="45.85225" lon="5.7734">
        <ele>319.61</ele>
        <time>2013-06-16T13:28:38Z</time>
      </trkpt>
      <trkpt lat="45.85224" lon="5.77367">
        <ele>321.23</ele>
        <time>2013-06-16T13:28:52Z</time>
      </trkpt>
      <trkpt lat="45.85223" lon="5.77394">
        <ele>321.26</ele>
        <time>2013-06-16T13:29:06Z</time>
      </trkpt>
      <trkpt lat="45.85228" lon="5.77419">
        <ele>316.18</ele>
        <time>2013-06-16T13:29:21Z</time>
      </trkpt>
      <trkpt lat="45.85226" lon="5.77446">
        <ele>314.08</ele>
        <time>2013-06-16T13:29:55Z</time>
      </trkpt>
      <trkpt lat="45.85229" lon="5.77471">
        <ele>312.74</ele>
        <time>2013-06-16T13:30:09Z</time>
      </trkpt>
      <trkpt lat="45.85236" lon="5.77496">
        <ele>313.56</ele>
        <time>2013-06-16T13:30:23Z</time>
      </trkpt>
      <trkpt lat="45.85236" lon="5.77523">
        <ele>313.14</ele>
        <time>2013-06-16T13:30:54Z</time>
      </trkpt>
      <trkpt lat="45.85227" lon="5.77546">
        <ele>308.88</ele>
        <time>2013-06-16T13:31:09Z</time>
      </trkpt>
      <trkpt lat="45.8521" lon="5.77559">
        <ele>306.01</ele>
        <time>2013-06-16T13:31:24Z</time>
      </trkpt>
      <trkpt lat="45.85194" lon="5.7757">
        <ele>300.62</ele>
        <time>2013-06-16T13:31:38Z</time>
      </trkpt>
      <trkpt lat="45.85179" lon="5.77588">
        <ele>300.76</ele>
        <time>2013-06-16T13:31:53Z</time>
      </trkpt>
      <trkpt lat="45.85167" lon="5.7761">
        <ele>299.13</ele>
        <time>2013-06-16T13:32:06Z</time>
      </trkpt>
      <trkpt lat="45.85158" lon="5.77633">
        <ele>299.65</ele>
        <time>2013-06-16T13:32:20Z</time>
      </trkpt>
      <trkpt lat="45.8515" lon="5.77657">
        <ele>301.36</ele>
        <time>2013-06-16T13:32:34Z</time>
      </trkpt>
      <trkpt lat="45.85142" lon="5.77682">
        <ele>302.26</ele>
        <time>2013-06-16T13:32:49Z</time>
      </trkpt>
      <trkpt lat="45.8513" lon="5.77703">
        <ele>297.31</ele>
        <time>2013-06-16T13:33:06Z</time>
      </trkpt>
      <trkpt lat="45.8512" lon="5.77724">
        <ele>292.3</ele>
        <time>2013-06-16T13:33:22Z</time>
      </trkpt>
      <trkpt lat="45.8513" lon="5.77748">
        <ele>296.76</ele>
        <time>2013-06-16T13:33:38Z</time>
      </trkpt>
      <trkpt lat="45.85142" lon="5.77769">
        <ele>289.08</ele>
        <time>2013-06-16T13:33:54Z</time>
      </trkpt>
      <trkpt lat="45.85146" lon="5.77795">
        <ele>286.26</ele>
        <time>2013-06-16T13:34:08Z</time>
      </trkpt>
      <trkpt lat="45.85148" lon="5.77822">
        <ele>285.78</ele>
        <time>2013-06-16T13:34:37Z</time>
      </trkpt>
      <trkpt lat="45.85142" lon="5.77847">
        <ele>286.18</ele>
        <time>2013-06-16T13:34:47Z</time>
      </trkpt>
      <trkpt lat="45.85133" lon="5.77869">
        <ele>280.84</ele>
        <time>2013-06-16T13:35:01Z</time>
      </trkpt>
      <trkpt lat="45.85121" lon="5.77889">
        <ele>279.83</ele>
        <time>2013-06-16T13:35:14Z</time>
      </trkpt>
      <trkpt lat="45.8511" lon="5.77911">
        <ele>276.85</ele>
        <time>2013-06-16T13:35:30Z</time>
      </trkpt>
      <trkpt lat="45.851" lon="5.77933">
        <ele>275.11</ele>
        <time>2013-06-16T13:35:45Z</time>
      </trkpt>
      <trkpt lat="45.85094" lon="5.77958">
        <ele>272.78</ele>
        <time>2013-06-16T13:36:00Z</time>
      </trkpt>
      <trkpt lat="45.85085" lon="5.7798">
        <ele>271.45</ele>
        <time>2013-06-16T13:36:15Z</time>
      </trkpt>
      <trkpt lat="45.85077" lon="5.78004">
        <ele>271.85</ele>
        <time>2013-06-16T13:36:30Z</time>
      </trkpt>
      <trkpt lat="45.85064" lon="5.78022">
        <ele>271.81</ele>
        <time>2013-06-16T13:36:46Z</time>
      </trkpt>
      <trkpt lat="45.85049" lon="5.78037">
        <ele>268.85</ele>
        <time>2013-06-16T13:37:00Z</time>
      </trkpt>
      <trkpt lat="45.85034" lon="5.78052">
        <ele>268.02</ele>
        <time>2013-06-16T13:37:14Z</time>
      </trkpt>
      <trkpt lat="45.8502" lon="5.78069">
        <ele>264.05</ele>
        <time>2013-06-16T13:37:30Z</time>
      </trkpt>
      <trkpt lat="45.85003" lon="5.78082">
        <ele>261.54</ele>
        <time>2013-06-16T13:37:44Z</time>
      </trkpt>
      <trkpt lat="45.84989" lon="5.78097">
        <ele>260.8</ele>
        <time>2013-06-16T13:37:57Z</time>
      </trkpt>
      <trkpt lat="45.84975" lon="5.78115">
        <ele>259.33</ele>
        <time>2013-06-16T13:38:15Z</time>
      </trkpt>
      <trkpt lat="45.84957" lon="5.78119">
        <ele>263.12</ele>
        <time>2013-06-16T13:38:30Z</time>
      </trkpt>
      <trkpt lat="45.84938" lon="5.78122">
        <ele>262.73</ele>
        <time>2013-06-16T13:38:46Z</time>
      </trkpt>
      <trkpt lat="45.8492" lon="5.78121">
        <ele>254.61</ele>
        <time>2013-06-16T13:39:01Z</time>
      </trkpt>
      <trkpt lat="45.84902" lon="5.78118">
        <ele>248.24</ele>
        <time>2013-06-16T13:39:17Z</time>
      </trkpt>
      <trkpt lat="45.84884" lon="5.78112">
        <ele>249.2</ele>
        <time>2013-06-16T13:39:31Z</time>
      </trkpt>
      <trkpt lat="45.84864" lon="5.78117">
        <ele>248.9</ele>
        <time>2013-06-16T13:39:45Z</time>
      </trkpt>
      <trkpt lat="45.84846" lon="5.78116">
        <ele>247.69</ele>
        <time>2013-06-16T13:39:59Z</time>
      </trkpt>
      <trkpt lat="45.84828" lon="5.7811">
        <ele>249.46</ele>
        <time>2013-06-16T13:40:38Z</time>
      </trkpt>
      <trkpt lat="45.84811" lon="5.78101">
        <ele>239.04</ele>
        <time>2013-06-16T13:42:01Z</time>
      </trkpt>
      <trkpt lat="45.84809" lon="5.78075">
        <ele>247.76</ele>
        <time>2013-06-16T13:42:26Z</time>
      </trkpt>
      <trkpt lat="45.84815" lon="5.78048">
        <ele>246.48</ele>
        <time>2013-06-16T13:42:43Z</time>
      </trkpt>
      <trkpt lat="45.84828" lon="5.78028">
        <ele>244.69</ele>
        <time>2013-06-16T13:42:57Z</time>
      </trkpt>
      <trkpt lat="45.84841" lon="5.7801">
        <ele>242.12</ele>
        <time>2013-06-16T13:43:13Z</time>
      </trkpt>
    </trkseg>
  </trk>
</gpx>